| time (UTC) | temp C | wind direction | speed KPH | gust KPH | rain 1hr cm | rain 24hr cm | rain mn cm | humidity % | barometer mb |
| 20260507112125 | 15 | 171 | 14.5 | 25.7 | 0.00 | 0.00 | 0.00 | 1 | 1017.3 |
| 20260507112004 | 15 | 170 | 14.5 | 25.7 | 0.00 | 0.00 | 0.00 | 1 | 1017.3 |
| 20260507111905 | 15 | 171 | 14.5 | 25.7 | 0.00 | 0.00 | 0.00 | 1 | 1017.3 |
| 20260507111805 | 15 | 171 | 14.5 | 25.7 | 0.00 | 0.00 | 0.00 | 1 | 1017.2 |
| 20260507111704 | 15 | 171 | 14.5 | 25.7 | 0.00 | 0.00 | 0.00 | 1 | 1017.2 |
| 20260507111604 | 15 | 171 | 14.5 | 24.1 | 0.00 | 0.00 | 0.00 | 1 | 1017.2 |
| 20260507111506 | 15 | 171 | 14.5 | 24.1 | 0.00 | 0.00 | 0.00 | 1 | 1017.1 |
| 20260507111404 | 15 | 174 | 14.5 | 24.1 | 0.00 | 0.00 | 0.00 | 1 | 1017.1 |
| 20260507111304 | 15 | 174 | 14.5 | 24.1 | 0.00 | 0.00 | 0.00 | 1 | 1017.1 |
| 20260507111225 | 15 | 175 | 14.5 | 24.1 | 0.00 | 0.00 | 0.00 | 1 | 1017.1 |
| 20260507111104 | 15 | 176 | 14.5 | 24.1 | 0.00 | 0.00 | 0.00 | 1 | 1017.0 |
| 20260507111004 | 15 | 177 | 14.5 | 24.1 | 0.00 | 0.00 | 0.00 | 1 | 1017.1 |
| 20260507110904 | 15 | 177 | 14.5 | 24.1 | 0.00 | 0.00 | 0.00 | 1 | 1017.1 |
| 20260507110804 | 15 | 177 | 12.9 | 25.7 | 0.00 | 0.00 | 0.00 | 1 | 1017.2 |
| 20260507110704 | 15 | 176 | 12.9 | 25.7 | 0.00 | 0.00 | 0.00 | 1 | 1017.3 |
| 20260507110604 | 15 | 175 | 11.3 | 25.7 | 0.00 | 0.00 | 0.00 | 1 | 1017.3 |
| 20260507110504 | 15 | 175 | 11.3 | 25.7 | 0.00 | 0.00 | 0.00 | 1 | 1017.3 |
| 20260507110425 | 15 | 173 | 9.7 | 25.7 | 0.00 | 0.00 | 0.00 | 1 | 1017.3 |
| 20260507110325 | 15 | 169 | 9.7 | 25.7 | 0.00 | 0.00 | 0.00 | 1 | 1017.3 |
| 20260507110204 | 15 | 165 | 9.7 | 25.7 | 0.00 | 0.00 | 0.00 | 1 | 1017.4 |
| 20260507110104 | 15 | 163 | 11.3 | 25.7 | 0.00 | 0.00 | 0.00 | 1 | 1017.5 |
| 20260507110004 | 15 | 164 | 11.3 | 25.7 | 0.00 | 0.00 | 0.00 | 1 | 1017.6 |
| 20260507105904 | 15 | 163 | 9.7 | 25.7 | 0.00 | 0.00 | 0.00 | 1 | 1017.7 |
| 20260507105804 | 15 | 161 | 9.7 | 25.7 | 0.00 | 0.00 | 0.00 | 1 | 1017.7 |
| 20260507105704 | 15 | 161 | 11.3 | 25.7 | 0.00 | 0.00 | 0.00 | 1 | 1017.6 |
| 20260507105604 | 15 | 162 | 11.3 | 25.7 | 0.00 | 0.00 | 0.00 | 1 | 1017.7 |
| 20260507105504 | 15 | 161 | 11.3 | 25.7 | 0.00 | 0.00 | 0.00 | 1 | 1017.6 |
| 20260507105425 | 15 | 161 | 9.7 | 25.7 | 0.00 | 0.00 | 0.00 | 1 | 1017.5 |
| 20260507105306 | 15 | 163 | 9.7 | 25.7 | 0.00 | 0.00 | 0.00 | 1 | 1017.6 |
| 20260507105204 | 15 | 163 | 8.0 | 25.7 | 0.00 | 0.00 | 0.00 | 1 | 1017.5 |
| 20260507105104 | 15 | 164 | 8.0 | 20.9 | 0.00 | 0.00 | 0.00 | 1 | 1017.6 |
| 20260507105025 | 15 | 165 | 8.0 | 20.9 | 0.00 | 0.00 | 0.00 | 1 | 1017.5 |
| 20260507104904 | 15 | 165 | 8.0 | 20.9 | 0.00 | 0.00 | 0.00 | 1 | 1017.5 |
| 20260507104804 | 15 | 165 | 8.0 | 20.9 | 0.00 | 0.00 | 0.00 | 1 | 1017.6 |
| 20260507104704 | 15 | 167 | 9.7 | 24.1 | 0.00 | 0.00 | 0.00 | 1 | 1017.6 |
| 20260507104604 | 15 | 168 | 9.7 | 24.1 | 0.00 | 0.00 | 0.00 | 1 | 1017.5 |
| 20260507104504 | 15 | 169 | 8.0 | 24.1 | 0.00 | 0.00 | 0.00 | 1 | 1017.5 |
| 20260507104404 | 15 | 173 | 9.7 | 24.1 | 0.00 | 0.00 | 0.00 | 1 | 1017.4 |
| 20260507104304 | 15 | 176 | 11.3 | 24.1 | 0.00 | 0.00 | 0.00 | 1 | 1017.3 |
| 20260507104204 | 15 | 176 | 12.9 | 24.1 | 0.00 | 0.00 | 0.00 | 1 | 1017.3 |
| 20260507104104 | 15 | 176 | 12.9 | 24.1 | 0.00 | 0.00 | 0.00 | 1 | 1017.2 |
| 20260507104004 | 15 | 176 | 12.9 | 24.1 | 0.00 | 0.00 | 0.00 | 1 | 1017.1 |
| 20260507103904 | 15 | 179 | 11.3 | 24.1 | 0.00 | 0.00 | 0.00 | 1 | 1017.0 |
| 20260507103804 | 15 | 181 | 11.3 | 24.1 | 0.00 | 0.00 | 0.00 | 1 | 1016.9 |
| 20260507103704 | 15 | 181 | 11.3 | 20.9 | 0.00 | 0.00 | 0.00 | 1 | 1016.8 |
| 20260507103604 | 15 | 182 | 11.3 | 20.9 | 0.00 | 0.00 | 0.00 | 1 | 1016.7 |
| 20260507103504 | 15 | 182 | 11.3 | 20.9 | 0.00 | 0.00 | 0.00 | 1 | 1016.6 |
| 20260507103404 | 15 | 181 | 11.3 | 20.9 | 0.00 | 0.00 | 0.00 | 1 | 1016.6 |
| 20260507103325 | 15 | 180 | 9.7 | 19.3 | 0.00 | 0.00 | 0.00 | 1 | 1016.6 |
| 20260507103204 | 15 | 179 | 9.7 | 19.3 | 0.00 | 0.00 | 0.00 | 1 | 1016.7 |
| 20260507103104 | 15 | 178 | 9.7 | 19.3 | 0.00 | 0.00 | 0.00 | 1 | 1016.8 |
| 20260507103004 | 15 | 178 | 9.7 | 19.3 | 0.00 | 0.00 | 0.00 | 1 | 1016.9 |
| 20260507102904 | 15 | 177 | 9.7 | 16.1 | 0.00 | 0.00 | 0.00 | 1 | 1016.9 |
| 20260507102804 | 15 | 178 | 9.7 | 16.1 | 0.00 | 0.00 | 0.00 | 1 | 1017.0 |
| 20260507102704 | 15 | 180 | 9.7 | 16.1 | 0.00 | 0.00 | 0.00 | 1 | 1017.1 |
| 20260507102604 | 15 | 182 | 9.7 | 19.3 | 0.00 | 0.00 | 0.00 | 1 | 1017.1 |
| 20260507102526 | 15 | 182 | 9.7 | 19.3 | 0.00 | 0.00 | 0.00 | 1 | 1017.2 |
| 20260507102404 | 15 | 181 | 9.7 | 27.4 | 0.00 | 0.00 | 0.00 | 1 | 1017.2 |
| 20260507102306 | 15 | 179 | 11.3 | 27.4 | 0.00 | 0.00 | 0.00 | 1 | 1017.3 |
| 20260507102204 | 15 | 179 | 11.3 | 27.4 | 0.00 | 0.00 | 0.00 | 1 | 1017.2 |
| 20260507102125 | 15 | 181 | 11.3 | 27.4 | 0.00 | 0.00 | 0.00 | 1 | 1017.2 |
| 20260507102006 | 15 | 181 | 11.3 | 27.4 | 0.00 | 0.00 | 0.00 | 1 | 1017.1 |
| 20260507101904 | 15 | 181 | 11.3 | 27.4 | 0.00 | 0.00 | 0.00 | 1 | 1017.1 |
| 20260507101804 | 15 | 180 | 12.9 | 27.4 | 0.00 | 0.00 | 0.00 | 1 | 1017.0 |
| 20260507101725 | 15 | 178 | 12.9 | 27.4 | 0.00 | 0.00 | 0.00 | 1 | 1016.9 |
| 20260507101604 | 15 | 177 | 12.9 | 27.4 | 0.00 | 0.00 | 0.00 | 1 | 1016.9 |
| 20260507101504 | 15 | 179 | 12.9 | 27.4 | 0.00 | 0.00 | 0.00 | 1 | 1016.9 |
| 20260507101425 | 15 | 180 | 12.9 | 27.4 | 0.00 | 0.00 | 0.00 | 1 | 1016.9 |
| 20260507101304 | 15 | 183 | 12.9 | 24.1 | 0.00 | 0.00 | 0.00 | 1 | 1016.9 |
| 20260507101204 | 15 | 184 | 12.9 | 24.1 | 0.00 | 0.00 | 0.00 | 1 | 1016.9 |
| 20260507101125 | 15 | 181 | 12.9 | 24.1 | 0.00 | 0.00 | 0.00 | 1 | 1017.0 |
| 20260507101004 | 15 | 182 | 12.9 | 24.1 | 0.00 | 0.00 | 0.00 | 1 | 1016.9 |
| 20260507100904 | 15 | 183 | 12.9 | 24.1 | 0.00 | 0.00 | 0.00 | 1 | 1016.9 |
| 20260507100804 | 15 | 184 | 11.3 | 22.5 | 0.00 | 0.00 | 0.00 | 1 | 1016.8 |
| 20260507100704 | 15 | 183 | 11.3 | 20.9 | 0.00 | 0.00 | 0.00 | 1 | 1016.6 |
| 20260507100604 | 15 | 182 | 11.3 | 20.9 | 0.00 | 0.00 | 0.00 | 1 | 1016.6 |
| 20260507100525 | 15 | 182 | 11.3 | 20.9 | 0.00 | 0.00 | 0.00 | 1 | 1016.7 |
| 20260507100425 | 15 | 180 | 11.3 | 20.9 | 0.00 | 0.00 | 0.00 | 1 | 1016.7 |
| 20260507100304 | 15 | 180 | 11.3 | 22.5 | 0.00 | 0.00 | 0.00 | 1 | 1016.7 |
| 20260507100204 | 15 | 179 | 9.7 | 22.5 | 0.00 | 0.00 | 0.00 | 1 | 1016.7 |
| 20260507100104 | 15 | 180 | 9.7 | 22.5 | 0.00 | 0.00 | 0.00 | 1 | 1016.7 |
| 20260507100004 | 15 | 181 | 8.0 | 22.5 | 0.00 | 0.00 | 0.00 | 1 | 1016.8 |
| 20260507095904 | 15 | 180 | 6.4 | 22.5 | 0.00 | 0.00 | 0.00 | 1 | 1016.8 |
| 20260507095804 | 15 | 179 | 6.4 | 22.5 | 0.00 | 0.00 | 0.00 | 1 | 1016.8 |
| 20260507095725 | 15 | 181 | 4.8 | 22.5 | 0.00 | 0.00 | 0.00 | 1 | 1016.7 |
| 20260507095604 | 15 | 181 | 3.2 | 22.5 | 0.00 | 0.00 | 0.00 | 1 | 1016.7 |
| 20260507095504 | 15 | 184 | 3.2 | 22.5 | 0.00 | 0.00 | 0.00 | 1 | 1016.7 |
| 20260507095425 | 15 | 186 | 1.6 | 22.5 | 0.00 | 0.00 | 0.00 | 1 | 1016.6 |
| 20260507095325 | 15 | 178 | 1.6 | 9.7 | 0.00 | 0.00 | 0.00 | 1 | 1016.6 |
| 20260507095204 | 15 | 181 | 1.6 | 14.5 | 0.00 | 0.00 | 0.00 | 1 | 1016.7 |
| 20260507095104 | 15 | 174 | 1.6 | 14.5 | 0.00 | 0.00 | 0.00 | 1 | 1016.8 |
| 20260507095004 | 15 | 176 | 1.6 | 14.5 | 0.00 | 0.00 | 0.00 | 1 | 1016.8 |
| 20260507094904 | 15 | 176 | 1.6 | 14.5 | 0.00 | 0.00 | 0.00 | 1 | 1016.9 |
| 20260507094804 | 15 | 181 | 1.6 | 14.5 | 0.00 | 0.00 | 0.00 | 1 | 1016.8 |
| 20260507094704 | 15 | 183 | 1.6 | 14.5 | 0.00 | 0.00 | 0.00 | 1 | 1016.8 |
| 20260507094604 | 15 | 183 | 1.6 | 14.5 | 0.00 | 0.00 | 0.00 | 1 | 1016.8 |
| 20260507094504 | 15 | 183 | 1.6 | 14.5 | 0.00 | 0.00 | 0.00 | 1 | 1016.8 |
| 20260507094404 | 15 | 182 | 1.6 | 14.5 | 0.00 | 0.00 | 0.00 | 1 | 1016.8 |
| 20260507094304 | 15 | 181 | 1.6 | 14.5 | 0.00 | 0.00 | 0.00 | 1 | 1016.8 |
| 20260507094204 | 15 | 178 | 0.0 | 12.9 | 0.00 | 0.00 | 0.00 | 1 | 1016.8 |
| 20260507094125 | 15 | 190 | 0.0 | 11.3 | 0.00 | 0.00 | 0.00 | 1 | 1016.8 |
| 20260507094004 | 15 | 189 | 0.0 | 11.3 | 0.00 | 0.00 | 0.00 | 1 | 1016.8 |
| 20260507093904 | 15 | 188 | 0.0 | 11.3 | 0.00 | 0.00 | 0.00 | 1 | 1016.8 |
| 20260507093804 | 15 | 181 | 0.0 | 9.7 | 0.00 | 0.00 | 0.00 | 1 | 1016.7 |
| 20260507093704 | 15 | 180 | 0.0 | 9.7 | 0.00 | 0.00 | 0.00 | 1 | 1016.8 |
| 20260507093604 | 15 | 173 | 0.0 | 9.7 | 0.00 | 0.00 | 0.00 | 1 | 1016.7 |
| 20260507093504 | 15 | 176 | 1.6 | 9.7 | 0.00 | 0.00 | 0.00 | 1 | 1016.8 |
| 20260507093404 | 15 | 180 | 1.6 | 14.5 | 0.00 | 0.00 | 0.00 | 1 | 1016.8 |
| 20260507093304 | 15 | 180 | 1.6 | 14.5 | 0.00 | 0.00 | 0.00 | 1 | 1016.9 |
| 20260507093204 | 15 | 180 | 1.6 | 14.5 | 0.00 | 0.00 | 0.00 | 1 | 1017.0 |
| 20260507093104 | 15 | 178 | 1.6 | 14.5 | 0.00 | 0.00 | 0.00 | 1 | 1017.0 |
| 20260507093004 | 15 | 178 | 1.6 | 14.5 | 0.00 | 0.00 | 0.00 | 1 | 1016.9 |
| 20260507092904 | 15 | 178 | 1.6 | 14.5 | 0.00 | 0.00 | 0.00 | 1 | 1016.9 |
| 20260507092804 | 15 | 178 | 1.6 | 14.5 | 0.00 | 0.00 | 0.00 | 1 | 1016.9 |
| 20260507092704 | 15 | 178 | 0.0 | 14.5 | 0.00 | 0.00 | 0.00 | 1 | 1016.9 |
| 20260507092604 | 15 | 183 | 0.0 | 14.5 | 0.00 | 0.00 | 0.00 | 1 | 1016.9 |
| 20260507092504 | 15 | 182 | 0.0 | 14.5 | 0.00 | 0.00 | 0.00 | 1 | 1017.0 |
| 20260507092404 | 15 | 178 | 0.0 | 6.4 | 0.00 | 0.00 | 0.00 | 1 | 1017.0 |
| 20260507092307 | 15 | 177 | 0.0 | 6.4 | 0.00 | 0.00 | 0.00 | 1 | 1017.1 |
| 20260507092204 | 15 | 178 | 0.0 | 6.4 | 0.00 | 0.00 | 0.00 | 1 | 1017.1 |
| 20260507092104 | 15 | 178 | 0.0 | 6.4 | 0.00 | 0.00 | 0.00 | 1 | 1017.1 |
| 20260507092004 | 15 | 174 | 0.0 | 6.4 | 0.00 | 0.00 | 0.00 | 1 | 1017.1 |
| 20260507091904 | 15 | 174 | 0.0 | 6.4 | 0.00 | 0.00 | 0.00 | 1 | 1017.0 |
| 20260507091825 | 15 | 176 | 0.0 | 4.8 | 0.00 | 0.00 | 0.00 | 1 | 1017.0 |
| 20260507091704 | 15 | 175 | 0.0 | 4.8 | 0.00 | 0.00 | 0.00 | 1 | 1016.9 |
| 20260507091604 | 15 | 182 | 0.0 | 3.2 | 0.00 | 0.00 | 0.00 | 1 | 1016.9 |
| 20260507091504 | 15 | 174 | 0.0 | 3.2 | 0.00 | 0.00 | 0.00 | 1 | 1016.9 |
| 20260507091404 | 15 | 168 | 0.0 | 1.6 | 0.00 | 0.00 | 0.00 | 1 | 1016.8 |
| 20260507091304 | 15 | 168 | 0.0 | 1.6 | 0.00 | 0.00 | 0.00 | 1 | 1016.7 |
| 20260507091204 | 15 | 173 | 0.0 | 1.6 | 0.00 | 0.00 | 0.00 | 1 | 1016.7 |
| 20260507091104 | 15 | 173 | 0.0 | 1.6 | 0.00 | 0.00 | 0.00 | 1 | 1016.5 |
| 20260507091004 | 15 | 173 | 0.0 | 1.6 | 0.00 | 0.00 | 0.00 | 1 | 1016.5 |
| 20260507090925 | 15 | 173 | 0.0 | 1.6 | 0.00 | 0.00 | 0.00 | 1 | 1016.5 |
| 20260507090804 | 15 | 173 | 0.0 | 3.2 | 0.00 | 0.00 | 0.00 | 1 | 1016.5 |
| 20260507090704 | 15 | 173 | 0.0 | 3.2 | 0.00 | 0.00 | 0.00 | 1 | 1016.4 |
| 20260507090604 | 15 | 162 | 0.0 | 3.2 | 0.00 | 0.00 | 0.00 | 1 | 1016.4 |
| 20260507090525 | 15 | 183 | 0.0 | 3.2 | 0.00 | 0.00 | 0.00 | 1 | 1016.4 |
| 20260507090404 | 15 | 183 | 0.0 | 3.2 | 0.00 | 0.00 | 0.00 | 1 | 1016.4 |
| 20260507090304 | 15 | 183 | 0.0 | 3.2 | 0.00 | 0.00 | 0.00 | 1 | 1016.3 |
| 20260507090225 | 15 | 0 | 0.0 | 3.2 | 0.00 | 0.00 | 0.00 | 1 | 1016.3 |
| 20260507090104 | 15 | 226 | 0.0 | 3.2 | 0.00 | 0.00 | 0.00 | 1 | 1016.3 |
| 20260507090005 | 15 | 226 | 0.0 | 3.2 | 0.00 | 0.00 | 0.00 | 1 | 1016.4 |
| 20260507085904 | 15 | 226 | 0.0 | 3.2 | 0.00 | 0.00 | 0.00 | 1 | 1016.5 |
| 20260507085805 | 15 | 226 | 0.0 | 1.6 | 0.00 | 0.00 | 0.00 | 1 | 1016.5 |
| 20260507085704 | 15 | 226 | 0.0 | 1.6 | 0.00 | 0.00 | 0.00 | 1 | 1016.5 |
| 20260507085604 | 15 | 184 | 0.0 | 1.6 | 0.00 | 0.00 | 0.00 | 1 | 1016.5 |
| 20260507085504 | 15 | 190 | 1.6 | 12.9 | 0.00 | 0.00 | 0.00 | 1 | 1016.3 |
| 20260507085404 | 15 | 193 | 1.6 | 12.9 | 0.00 | 0.00 | 0.00 | 1 | 1016.2 |
| 20260507085325 | 15 | 184 | 1.6 | 12.9 | 0.00 | 0.00 | 0.00 | 1 | 1016.0 |
| 20260507085204 | 15 | 181 | 3.2 | 12.9 | 0.00 | 0.00 | 0.00 | 1 | 1016.0 |
| 20260507085104 | 15 | 179 | 3.2 | 16.1 | 0.00 | 0.00 | 0.00 | 1 | 1016.0 |
| 20260507085004 | 15 | 179 | 4.8 | 16.1 | 0.00 | 0.00 | 0.00 | 1 | 1016.1 |
| 20260507084925 | 15 | 178 | 4.8 | 16.1 | 0.00 | 0.00 | 0.00 | 1 | 1016.2 |
| 20260507084805 | 15 | 179 | 4.8 | 16.1 | 0.00 | 0.00 | 0.00 | 1 | 1016.2 |
| 20260507084704 | 15 | 179 | 4.8 | 16.1 | 0.00 | 0.00 | 0.00 | 1 | 1016.1 |
| 20260507084604 | 15 | 179 | 4.8 | 16.1 | 0.00 | 0.00 | 0.00 | 1 | 1016.2 |
| 20260507084504 | 15 | 178 | 4.8 | 16.1 | 0.00 | 0.00 | 0.00 | 1 | 1016.1 |
| 20260507084404 | 15 | 175 | 3.2 | 16.1 | 0.00 | 0.00 | 0.00 | 1 | 1016.1 |
| 20260507084304 | 15 | 178 | 3.2 | 16.1 | 0.00 | 0.00 | 0.00 | 1 | 1016.2 |
| 20260507084204 | 15 | 178 | 3.2 | 16.1 | 0.00 | 0.00 | 0.00 | 1 | 1016.2 |
| 20260507084104 | 15 | 179 | 1.6 | 14.5 | 0.00 | 0.00 | 0.00 | 1 | 1016.2 |
| 20260507084004 | 15 | 180 | 1.6 | 9.7 | 0.00 | 0.00 | 0.00 | 1 | 1016.3 |
| 20260507083904 | 15 | 187 | 0.0 | 9.7 | 0.00 | 0.00 | 0.00 | 1 | 1016.4 |
| 20260507083825 | 15 | 178 | 0.0 | 9.7 | 0.00 | 0.00 | 0.00 | 1 | 1016.3 |
| 20260507083704 | 15 | 225 | 0.0 | 1.6 | 0.00 | 0.00 | 0.00 | 1 | 1016.3 |
| 20260507083604 | 15 | 172 | 0.0 | 11.3 | 0.00 | 0.00 | 0.00 | 1 | 1016.2 |
| 20260507083504 | 15 | 189 | 1.6 | 17.7 | 0.00 | 0.00 | 0.00 | 1 | 1016.2 |
| 20260507083404 | 15 | 197 | 1.6 | 17.7 | 0.00 | 0.00 | 0.00 | 1 | 1016.2 |
| 20260507083304 | 15 | 197 | 1.6 | 17.7 | 0.00 | 0.00 | 0.00 | 1 | 1016.2 |
| 20260507083204 | 15 | 197 | 3.2 | 17.7 | 0.00 | 0.00 | 0.00 | 1 | 1016.2 |
| 20260507083104 | 15 | 197 | 3.2 | 17.7 | 0.00 | 0.00 | 0.00 | 1 | 1016.2 |
| 20260507083004 | 15 | 197 | 3.2 | 17.7 | 0.00 | 0.00 | 0.00 | 1 | 1016.2 |
| 20260507082904 | 15 | 197 | 3.2 | 17.7 | 0.00 | 0.00 | 0.00 | 1 | 1016.1 |
| 20260507082804 | 15 | 197 | 3.2 | 17.7 | 0.00 | 0.00 | 0.00 | 1 | 1016.0 |
| 20260507082704 | 15 | 196 | 3.2 | 17.7 | 0.00 | 0.00 | 0.00 | 1 | 1015.9 |
| 20260507082625 | 15 | 196 | 1.6 | 17.7 | 0.00 | 0.00 | 0.00 | 1 | 1015.8 |
| 20260507082504 | 15 | 207 | 1.6 | 17.7 | 0.00 | 0.00 | 0.00 | 1 | 1015.7 |
| 20260507082404 | 15 | 194 | 0.0 | 9.7 | 0.00 | 0.00 | 0.00 | 1 | 1015.7 |
| 20260507082306 | 15 | 197 | 0.0 | 9.7 | 0.00 | 0.00 | 0.00 | 1 | 1015.6 |
| 20260507082204 | 15 | 194 | 0.0 | 9.7 | 0.00 | 0.00 | 0.00 | 1 | 1015.7 |
| 20260507082104 | 15 | 194 | 0.0 | 6.4 | 0.00 | 0.00 | 0.00 | 1 | 1015.8 |
| 20260507082004 | 15 | 186 | 0.0 | 6.4 | 0.00 | 0.00 | 0.00 | 1 | 1015.8 |
| 20260507081904 | 15 | 195 | 0.0 | 6.4 | 0.00 | 0.00 | 0.00 | 1 | 1015.9 |
| 20260507081804 | 15 | 190 | 0.0 | 6.4 | 0.00 | 0.00 | 0.00 | 1 | 1015.9 |
| 20260507081705 | 15 | 191 | 0.0 | 6.4 | 0.00 | 0.00 | 0.00 | 1 | 1015.9 |
| 20260507081625 | 15 | 191 | 0.0 | 6.4 | 0.00 | 0.00 | 0.00 | 1 | 1015.7 |
| 20260507081504 | 15 | 191 | 0.0 | 6.4 | 0.00 | 0.00 | 0.00 | 1 | 1015.7 |
| 20260507081404 | 15 | 191 | 0.0 | 6.4 | 0.00 | 0.00 | 0.00 | 1 | 1015.7 |
| 20260507081304 | 15 | 189 | 0.0 | 6.4 | 0.00 | 0.00 | 0.00 | 1 | 1015.7 |
| 20260507081225 | 15 | 190 | 0.0 | 6.4 | 0.00 | 0.00 | 0.00 | 1 | 1015.6 |
| 20260507081104 | 15 | 188 | 0.0 | 6.4 | 0.00 | 0.00 | 0.00 | 1 | 1015.6 |
| 20260507081004 | 15 | 191 | 0.0 | 6.4 | 0.00 | 0.00 | 0.00 | 1 | 1015.6 |
| 20260507080904 | 15 | 175 | 0.0 | 4.8 | 0.00 | 0.00 | 0.00 | 1 | 1015.7 |
| 20260507080804 | 15 | 185 | 0.0 | 4.8 | 0.00 | 0.00 | 0.00 | 1 | 1015.7 |
| 20260507080704 | 15 | 193 | 0.0 | 4.8 | 0.00 | 0.00 | 0.00 | 1 | 1015.7 |
| 20260507080625 | 16 | 193 | 0.0 | 4.8 | 0.00 | 0.00 | 0.00 | 1 | 1015.9 |
| 20260507080504 | 16 | 193 | 0.0 | 4.8 | 0.00 | 0.00 | 0.00 | 1 | 1016.0 |
| 20260507080404 | 16 | 202 | 0.0 | 4.8 | 0.00 | 0.00 | 0.00 | 1 | 1016.1 |
| 20260507080304 | 16 | 202 | 0.0 | 4.8 | 0.00 | 0.00 | 0.00 | 1 | 1016.2 |
| 20260507080204 | 16 | 197 | 0.0 | 4.8 | 0.00 | 0.00 | 0.00 | 1 | 1016.1 |
| 20260507080125 | 16 | 197 | 0.0 | 4.8 | 0.00 | 0.00 | 0.00 | 1 | 1016.0 |
| 20260507080004 | 16 | 200 | 0.0 | 4.8 | 0.00 | 0.00 | 0.00 | 1 | 1015.8 |
| 20260507075904 | 16 | 200 | 0.0 | 4.8 | 0.00 | 0.00 | 0.00 | 1 | 1015.7 |
| 20260507075804 | 16 | 204 | 0.0 | 4.8 | 0.00 | 0.00 | 0.00 | 1 | 1015.5 |
| 20260507075704 | 16 | 202 | 0.0 | 4.8 | 0.00 | 0.00 | 0.00 | 1 | 1015.4 |
| 20260507075604 | 16 | 198 | 0.0 | 4.8 | 0.00 | 0.00 | 0.00 | 1 | 1015.3 |
| 20260507075504 | 16 | 198 | 0.0 | 4.8 | 0.00 | 0.00 | 0.00 | 1 | 1015.3 |
| 20260507075404 | 16 | 195 | 0.0 | 4.8 | 0.00 | 0.00 | 0.00 | 1 | 1015.4 |
| 20260507075306 | 16 | 198 | 0.0 | 4.8 | 0.00 | 0.00 | 0.00 | 1 | 1015.4 |
| 20260507075204 | 16 | 200 | 0.0 | 4.8 | 0.00 | 0.00 | 0.00 | 1 | 1015.4 |
| 20260507075125 | 16 | 210 | 0.0 | 9.7 | 0.00 | 0.00 | 0.00 | 1 | 1015.4 |
| 20260507075025 | 16 | 210 | 0.0 | 9.7 | 0.00 | 0.00 | 0.00 | 1 | 1015.4 |
| 20260507074925 | 16 | 210 | 0.0 | 9.7 | 0.00 | 0.00 | 0.00 | 1 | 1015.4 |
| 20260507074804 | 16 | 208 | 0.0 | 9.7 | 0.00 | 0.00 | 0.00 | 1 | 1015.4 |
| 20260507074704 | 16 | 210 | 0.0 | 9.7 | 0.00 | 0.00 | 0.00 | 1 | 1015.4 |
| 20260507074604 | 16 | 218 | 0.0 | 9.7 | 0.00 | 0.00 | 0.00 | 1 | 1015.4 |
| 20260507074504 | 16 | 218 | 0.0 | 9.7 | 0.00 | 0.00 | 0.00 | 1 | 1015.4 |
| 20260507074404 | 16 | 218 | 0.0 | 9.7 | 0.00 | 0.00 | 0.00 | 1 | 1015.4 |
| 20260507074325 | 16 | 218 | 0.0 | 9.7 | 0.00 | 0.00 | 0.00 | 1 | 1015.4 |
| 20260507074225 | 16 | 223 | 0.0 | 9.7 | 0.00 | 0.00 | 0.00 | 1 | 1015.5 |
| 20260507074104 | 16 | 218 | 0.0 | 8.0 | 0.00 | 0.00 | 0.00 | 1 | 1015.5 |
| 20260507074004 | 16 | 220 | 0.0 | 8.0 | 0.00 | 0.00 | 0.00 | 1 | 1015.5 |
| 20260507073904 | 16 | 217 | 0.0 | 8.0 | 0.00 | 0.00 | 0.00 | 1 | 1015.7 |
| 20260507073804 | 16 | 216 | 0.0 | 8.0 | 0.00 | 0.00 | 0.00 | 1 | 1015.8 |
| 20260507073726 | 16 | 213 | 0.0 | 8.0 | 0.00 | 0.00 | 0.00 | 1 | 1015.9 |
| 20260507073604 | 16 | 214 | 0.0 | 8.0 | 0.00 | 0.00 | 0.00 | 1 | 1015.9 |
| 20260507073525 | 16 | 214 | 0.0 | 8.0 | 0.00 | 0.00 | 0.00 | 1 | 1015.8 |
| 20260507073404 | 16 | 205 | 0.0 | 9.7 | 0.00 | 0.00 | 0.00 | 1 | 1015.7 |
| 20260507073304 | 16 | 205 | 0.0 | 9.7 | 0.00 | 0.00 | 0.00 | 1 | 1015.5 |
| 20260507073225 | 16 | 205 | 0.0 | 9.7 | 0.00 | 0.00 | 0.00 | 1 | 1015.5 |
| 20260507073104 | 16 | 204 | 0.0 | 9.7 | 0.00 | 0.00 | 0.00 | 1 | 1015.5 |
| 20260507073004 | 16 | 202 | 0.0 | 9.7 | 0.00 | 0.00 | 0.00 | 1 | 1015.5 |
| 20260507072904 | 16 | 201 | 0.0 | 9.7 | 0.00 | 0.00 | 0.00 | 1 | 1015.5 |
| 20260507072825 | 16 | 201 | 0.0 | 9.7 | 0.00 | 0.00 | 0.00 | 1 | 1015.5 |
| 20260507072704 | 16 | 200 | 0.0 | 9.7 | 0.00 | 0.00 | 0.00 | 1 | 1015.6 |
| 20260507072604 | 16 | 192 | 0.0 | 9.7 | 0.00 | 0.00 | 0.00 | 1 | 1015.7 |
| 20260507072504 | 16 | 231 | 0.0 | 6.4 | 0.00 | 0.00 | 0.00 | 1 | 1015.7 |
| 20260507072404 | 16 | 229 | 0.0 | 6.4 | 0.00 | 0.00 | 0.00 | 1 | 1015.8 |
| 20260507072325 | 16 | 229 | 0.0 | 6.4 | 0.00 | 0.00 | 0.00 | 1 | 1015.8 |
| 20260507072204 | 16 | 229 | 0.0 | 6.4 | 0.00 | 0.00 | 0.00 | 1 | 1015.8 |
| 20260507072125 | 16 | 229 | 0.0 | 6.4 | 0.00 | 0.00 | 0.00 | 1 | 1015.7 |
| 20260507072004 | 16 | 229 | 0.0 | 6.4 | 0.00 | 0.00 | 0.00 | 1 | 1015.7 |
| 20260507071904 | 16 | 230 | 0.0 | 6.4 | 0.00 | 0.00 | 0.00 | 1 | 1015.7 |
| 20260507071804 | 16 | 227 | 0.0 | 6.4 | 0.00 | 0.00 | 0.00 | 1 | 1015.7 |
| 20260507071704 | 16 | 224 | 0.0 | 6.4 | 0.00 | 0.00 | 0.00 | 1 | 1015.6 |
| 20260507071604 | 16 | 224 | 0.0 | 6.4 | 0.00 | 0.00 | 0.00 | 1 | 1015.7 |
| 20260507071504 | 16 | 208 | 0.0 | 1.6 | 0.00 | 0.00 | 0.00 | 1 | 1015.7 |
| 20260507071404 | 16 | 207 | 0.0 | 1.6 | 0.00 | 0.00 | 0.00 | 1 | 1015.9 |
| 20260507071304 | 16 | 208 | 0.0 | 1.6 | 0.00 | 0.00 | 0.00 | 1 | 1016.0 |
| 20260507071225 | 16 | 208 | 0.0 | 1.6 | 0.00 | 0.00 | 0.00 | 1 | 1016.1 |
| 20260507071104 | 16 | 208 | 0.0 | 1.6 | 0.00 | 0.00 | 0.00 | 1 | 1016.1 |
| 20260507071004 | 16 | 209 | 0.0 | 3.2 | 0.00 | 0.00 | 0.00 | 1 | 1016.2 |
| 20260507070904 | 16 | 209 | 0.0 | 3.2 | 0.00 | 0.00 | 0.00 | 1 | 1016.1 |
| 20260507070825 | 16 | 209 | 0.0 | 3.2 | 0.00 | 0.00 | 0.00 | 1 | 1016.1 |
| 20260507070725 | 16 | 208 | 0.0 | 3.2 | 0.00 | 0.00 | 0.00 | 1 | 1016.0 |
| 20260507070604 | 16 | 205 | 0.0 | 3.2 | 0.00 | 0.00 | 0.00 | 1 | 1016.0 |
| 20260507070504 | 16 | 205 | 0.0 | 3.2 | 0.00 | 0.00 | 0.00 | 1 | 1015.9 |
| 20260507070404 | 16 | 211 | 0.0 | 3.2 | 0.00 | 0.00 | 0.00 | 1 | 1015.8 |
| 20260507070325 | 16 | 213 | 0.0 | 3.2 | 0.00 | 0.00 | 0.00 | 1 | 1015.8 |
| 20260507070225 | 16 | 213 | 0.0 | 3.2 | 0.00 | 0.00 | 0.00 | 1 | 1015.8 |
| 20260507070125 | 16 | 223 | 0.0 | 3.2 | 0.00 | 0.00 | 0.00 | 1 | 1015.8 |
| 20260507070008 | 16 | 216 | 0.0 | 6.4 | 0.00 | 0.00 | 0.00 | 1 | 1015.8 |
| 20260507065904 | 16 | 216 | 0.0 | 6.4 | 0.00 | 0.00 | 0.00 | 1 | 1015.8 |
| 20260507065804 | 16 | 216 | 0.0 | 6.4 | 0.00 | 0.00 | 0.00 | 1 | 1015.8 |
| 20260507065704 | 16 | 216 | 0.0 | 6.4 | 0.00 | 0.00 | 0.00 | 1 | 1015.8 |
| 20260507065604 | 16 | 212 | 0.0 | 6.4 | 0.00 | 0.00 | 0.00 | 1 | 1015.7 |
| 20260507065525 | 16 | 209 | 0.0 | 6.4 | 0.00 | 0.00 | 0.00 | 1 | 1015.6 |
| 20260507065425 | 16 | 209 | 0.0 | 6.4 | 0.00 | 0.00 | 0.00 | 1 | 1015.6 |
| 20260507065306 | 16 | 209 | 0.0 | 6.4 | 0.00 | 0.00 | 0.00 | 1 | 1015.4 |
| 20260507065204 | 16 | 212 | 0.0 | 6.4 | 0.00 | 0.00 | 0.00 | 1 | 1015.4 |
| 20260507065104 | 16 | 207 | 0.0 | 11.3 | 0.00 | 0.00 | 0.00 | 1 | 1015.3 |
| 20260507065004 | 16 | 206 | 0.0 | 11.3 | 0.00 | 0.00 | 0.00 | 1 | 1015.3 |
| 20260507064904 | 16 | 206 | 0.0 | 11.3 | 0.00 | 0.00 | 0.00 | 1 | 1015.3 |
| 20260507064804 | 16 | 207 | 0.0 | 11.3 | 0.00 | 0.00 | 0.00 | 1 | 1015.3 |
| 20260507064704 | 16 | 210 | 0.0 | 11.3 | 0.00 | 0.00 | 0.00 | 1 | 1015.3 |
| 20260507064604 | 16 | 210 | 0.0 | 11.3 | 0.00 | 0.00 | 0.00 | 1 | 1015.3 |
| 20260507064525 | 16 | 211 | 0.0 | 11.3 | 0.00 | 0.00 | 0.00 | 1 | 1015.3 |
| 20260507064425 | 16 | 211 | 0.0 | 11.3 | 0.00 | 0.00 | 0.00 | 1 | 1015.2 |
| 20260507064304 | 16 | 211 | 0.0 | 11.3 | 0.00 | 0.00 | 0.00 | 1 | 1015.0 |
| 20260507064204 | 16 | 211 | 0.0 | 11.3 | 0.00 | 0.00 | 0.00 | 1 | 1014.9 |
| 20260507064104 | 16 | 213 | 0.0 | 9.7 | 0.00 | 0.00 | 0.00 | 1 | 1014.8 |
| 20260507064004 | 16 | 215 | 0.0 | 9.7 | 0.00 | 0.00 | 0.00 | 1 | 1014.8 |
| 20260507063904 | 16 | 214 | 0.0 | 9.7 | 0.00 | 0.00 | 0.00 | 1 | 1014.8 |
| 20260507063804 | 16 | 215 | 0.0 | 9.7 | 0.00 | 0.00 | 0.00 | 1 | 1014.9 |
| 20260507063725 | 16 | 210 | 0.0 | 4.8 | 0.00 | 0.00 | 0.00 | 1 | 1015.0 |
| 20260507063625 | 16 | 209 | 0.0 | 4.8 | 0.00 | 0.00 | 0.00 | 1 | 1015.1 |
| 20260507063525 | 16 | 209 | 0.0 | 4.8 | 0.00 | 0.00 | 0.00 | 1 | 1015.2 |
| 20260507063404 | 16 | 209 | 0.0 | 4.8 | 0.00 | 0.00 | 0.00 | 1 | 1015.2 |
| 20260507063304 | 16 | 209 | 0.0 | 4.8 | 0.00 | 0.00 | 0.00 | 1 | 1015.3 |
| 20260507063204 | 16 | 205 | 0.0 | 4.8 | 0.00 | 0.00 | 0.00 | 1 | 1015.3 |
| 20260507063104 | 16 | 199 | 0.0 | 4.8 | 0.00 | 0.00 | 0.00 | 1 | 1015.3 |
| 20260507063004 | 16 | 209 | 0.0 | 9.7 | 0.00 | 0.00 | 0.00 | 1 | 1015.4 |
| 20260507062925 | 16 | 213 | 0.0 | 9.7 | 0.00 | 0.00 | 0.00 | 1 | 1015.4 |
| 20260507062804 | 16 | 213 | 0.0 | 9.7 | 0.00 | 0.00 | 0.00 | 1 | 1015.5 |
| 20260507062704 | 16 | 213 | 0.0 | 9.7 | 0.00 | 0.00 | 0.00 | 1 | 1015.5 |
| 20260507062604 | 16 | 213 | 0.0 | 9.7 | 0.00 | 0.00 | 0.00 | 1 | 1015.6 |
| 20260507062504 | 16 | 213 | 0.0 | 9.7 | 0.00 | 0.00 | 0.00 | 1 | 1015.7 |
| 20260507062425 | 16 | 212 | 0.0 | 9.7 | 0.00 | 0.00 | 0.00 | 1 | 1015.7 |
| 20260507062306 | 16 | 212 | 0.0 | 9.7 | 0.00 | 0.00 | 0.00 | 1 | 1015.7 |
| 20260507062225 | 16 | 211 | 0.0 | 9.7 | 0.00 | 0.00 | 0.00 | 1 | 1015.7 |
| 20260507062104 | 16 | 212 | 0.0 | 9.7 | 0.00 | 0.00 | 0.00 | 1 | 1015.7 |
| 20260507062004 | 16 | 209 | 0.0 | 8.0 | 0.00 | 0.00 | 0.00 | 1 | 1015.5 |
| 20260507061904 | 16 | 208 | 0.0 | 8.0 | 0.00 | 0.00 | 0.00 | 1 | 1015.5 |
| 20260507061804 | 16 | 207 | 0.0 | 8.0 | 0.00 | 0.00 | 0.00 | 1 | 1015.4 |
| 20260507061704 | 16 | 205 | 0.0 | 8.0 | 0.00 | 0.00 | 0.00 | 1 | 1015.3 |
| 20260507061604 | 16 | 204 | 0.0 | 8.0 | 0.00 | 0.00 | 0.00 | 1 | 1015.3 |
| 20260507061525 | 16 | 203 | 0.0 | 8.0 | 0.00 | 0.00 | 0.00 | 1 | 1015.3 |
| 20260507061404 | 16 | 200 | 0.0 | 4.8 | 0.00 | 0.00 | 0.00 | 1 | 1015.3 |
| 20260507061304 | 16 | 200 | 0.0 | 4.8 | 0.00 | 0.00 | 0.00 | 1 | 1015.4 |
| 20260507061204 | 16 | 202 | 0.0 | 4.8 | 0.00 | 0.00 | 0.00 | 1 | 1015.4 |
| 20260507061104 | 16 | 202 | 0.0 | 4.8 | 0.00 | 0.00 | 0.00 | 1 | 1015.4 |
| 20260507061004 | 16 | 202 | 0.0 | 4.8 | 0.00 | 0.00 | 0.00 | 1 | 1015.3 |
| 20260507060904 | 16 | 200 | 0.0 | 4.8 | 0.00 | 0.00 | 0.00 | 1 | 1015.3 |
| 20260507060804 | 16 | 201 | 0.0 | 4.8 | 0.00 | 0.00 | 0.00 | 1 | 1015.3 |
| 20260507060704 | 16 | 201 | 0.0 | 4.8 | 0.00 | 0.00 | 0.00 | 1 | 1015.3 |
| 20260507060604 | 16 | 201 | 0.0 | 4.8 | 0.00 | 0.00 | 0.00 | 1 | 1015.3 |
| 20260507060504 | 16 | 202 | 0.0 | 4.8 | 0.00 | 0.00 | 0.00 | 1 | 1015.3 |
| 20260507060404 | 16 | 200 | 0.0 | 4.8 | 0.00 | 0.00 | 0.00 | 1 | 1015.3 |
| 20260507060304 | 16 | 200 | 0.0 | 4.8 | 0.00 | 0.00 | 0.00 | 1 | 1015.4 |
| 20260507060225 | 16 | 201 | 0.0 | 4.8 | 0.00 | 0.00 | 0.00 | 1 | 1015.5 |
| 20260507060104 | 16 | 185 | 0.0 | 4.8 | 0.00 | 0.00 | 0.00 | 1 | 1015.5 |
| 20260507060004 | 16 | 185 | 0.0 | 3.2 | 0.00 | 0.00 | 0.00 | 1 | 1015.5 |
| 20260507055904 | 16 | 211 | 0.0 | 4.8 | 0.00 | 0.00 | 0.00 | 1 | 1015.5 |
| 20260507055804 | 16 | 212 | 0.0 | 4.8 | 0.00 | 0.00 | 0.00 | 1 | 1015.5 |
| 20260507055704 | 16 | 209 | 0.0 | 4.8 | 0.00 | 0.00 | 0.00 | 1 | 1015.6 |
| 20260507055604 | 16 | 204 | 0.0 | 4.8 | 0.00 | 0.00 | 0.00 | 1 | 1015.6 |
| 20260507055504 | 16 | 202 | 0.0 | 4.8 | 0.00 | 0.00 | 0.00 | 1 | 1015.6 |
| 20260507055404 | 16 | 203 | 0.0 | 6.4 | 0.00 | 0.00 | 0.00 | 1 | 1015.4 |
| 20260507055306 | 16 | 207 | 0.0 | 8.0 | 0.00 | 0.00 | 0.00 | 1 | 1015.4 |
| 20260507055225 | 16 | 207 | 0.0 | 8.0 | 0.00 | 0.00 | 0.00 | 1 | 1015.3 |
| 20260507055125 | 16 | 207 | 0.0 | 8.0 | 0.00 | 0.00 | 0.00 | 1 | 1015.3 |
| 20260507055004 | 16 | 207 | 0.0 | 8.0 | 0.00 | 0.00 | 0.00 | 1 | 1015.2 |
| 20260507054904 | 16 | 206 | 0.0 | 8.0 | 0.00 | 0.00 | 0.00 | 1 | 1015.2 |
| 20260507054804 | 16 | 205 | 0.0 | 8.0 | 0.00 | 0.00 | 0.00 | 1 | 1015.3 |
| 20260507054704 | 16 | 205 | 0.0 | 8.0 | 0.00 | 0.00 | 0.00 | 1 | 1015.3 |
| 20260507054604 | 16 | 211 | 0.0 | 8.0 | 0.00 | 0.00 | 0.00 | 1 | 1015.3 |
| 20260507054504 | 16 | 212 | 0.0 | 8.0 | 0.00 | 0.00 | 0.00 | 1 | 1015.2 |
| 20260507054425 | 16 | 211 | 0.0 | 8.0 | 0.00 | 0.00 | 0.00 | 1 | 1015.2 |
| 20260507054304 | 16 | 205 | 0.0 | 12.9 | 0.00 | 0.00 | 0.00 | 1 | 1015.2 |
| 20260507054204 | 16 | 205 | 0.0 | 12.9 | 0.00 | 0.00 | 0.00 | 2 | 1015.3 |
| 20260507054104 | 16 | 205 | 0.0 | 12.9 | 0.00 | 0.00 | 0.00 | 2 | 1015.4 |
| 20260507054004 | 16 | 205 | 0.0 | 12.9 | 0.00 | 0.00 | 0.00 | 3 | 1015.4 |
| 20260507053904 | 16 | 204 | 0.0 | 12.9 | 0.00 | 0.00 | 0.00 | 3 | 1015.4 |
| 20260507053825 | 16 | 204 | 0.0 | 12.9 | 0.00 | 0.00 | 0.00 | 3 | 1015.4 |
| 20260507053704 | 16 | 206 | 0.0 | 12.9 | 0.00 | 0.00 | 0.00 | 3 | 1015.3 |
| 20260507053605 | 16 | 204 | 0.0 | 12.9 | 0.00 | 0.00 | 0.00 | 3 | 1015.3 |
| 20260507053504 | 16 | 204 | 0.0 | 12.9 | 0.00 | 0.00 | 0.00 | 4 | 1015.2 |
| 20260507053404 | 16 | 202 | 0.0 | 12.9 | 0.00 | 0.00 | 0.00 | 4 | 1015.3 |
| 20260507053325 | 16 | 205 | 0.0 | 8.0 | 0.00 | 0.00 | 0.00 | 4 | 1015.2 |
| 20260507053204 | 16 | 205 | 0.0 | 8.0 | 0.00 | 0.00 | 0.00 | 4 | 1015.2 |
| 20260507053104 | 16 | 210 | 1.6 | 14.5 | 0.00 | 0.00 | 0.00 | 4 | 1015.2 |
| 20260507053004 | 16 | 206 | 1.6 | 14.5 | 0.00 | 0.00 | 0.00 | 5 | 1015.1 |
| 20260507052904 | 16 | 202 | 1.6 | 14.5 | 0.00 | 0.00 | 0.00 | 5 | 1015.1 |
| 20260507052804 | 16 | 203 | 1.6 | 14.5 | 0.00 | 0.00 | 0.00 | 5 | 1015.1 |
| 20260507052704 | 16 | 202 | 1.6 | 14.5 | 0.00 | 0.00 | 0.00 | 6 | 1015.1 |
| 20260507052604 | 16 | 201 | 1.6 | 14.5 | 0.00 | 0.00 | 0.00 | 6 | 1015.2 |
| 20260507052504 | 16 | 201 | 1.6 | 14.5 | 0.00 | 0.00 | 0.00 | 7 | 1015.2 |
| 20260507052404 | 16 | 197 | 1.6 | 14.5 | 0.00 | 0.00 | 0.00 | 7 | 1015.3 |
| 20260507052306 | 16 | 201 | 1.6 | 14.5 | 0.00 | 0.00 | 0.00 | 7 | 1015.3 |
| 20260507052204 | 16 | 200 | 1.6 | 14.5 | 0.00 | 0.00 | 0.00 | 8 | 1015.3 |
| 20260507052104 | 16 | 196 | 1.6 | 12.9 | 0.00 | 0.00 | 0.00 | 8 | 1015.3 |
| 20260507052004 | 16 | 197 | 1.6 | 12.9 | 0.00 | 0.00 | 0.00 | 8 | 1015.3 |
| 20260507051925 | 16 | 198 | 1.6 | 12.9 | 0.00 | 0.00 | 0.00 | 8 | 1015.2 |
| 20260507051825 | 16 | 198 | 1.6 | 12.9 | 0.00 | 0.00 | 0.00 | 8 | 1015.2 |
| 20260507051704 | 16 | 201 | 1.6 | 17.7 | 0.00 | 0.00 | 0.00 | 9 | 1015.2 |
| 20260507051625 | 16 | 197 | 1.6 | 17.7 | 0.00 | 0.00 | 0.00 | 9 | 1015.2 |
| 20260507051504 | 16 | 196 | 1.6 | 17.7 | 0.00 | 0.00 | 0.00 | 9 | 1015.1 |
| 20260507051404 | 16 | 199 | 1.6 | 17.7 | 0.00 | 0.00 | 0.00 | 9 | 1015.1 |
| 20260507051325 | 16 | 198 | 1.6 | 17.7 | 0.00 | 0.00 | 0.00 | 9 | 1015.1 |
| 20260507051204 | 16 | 194 | 1.6 | 17.7 | 0.00 | 0.00 | 0.00 | 9 | 1015.1 |
| 20260507051104 | 16 | 193 | 1.6 | 17.7 | 0.00 | 0.00 | 0.00 | 10 | 1015.1 |
| 20260507051025 | 16 | 194 | 1.6 | 17.7 | 0.00 | 0.00 | 0.00 | 10 | 1015.2 |
| 20260507050904 | 16 | 195 | 1.6 | 17.7 | 0.00 | 0.00 | 0.00 | 10 | 1015.2 |
| 20260507050804 | 16 | 195 | 1.6 | 17.7 | 0.00 | 0.00 | 0.00 | 10 | 1015.2 |
| 20260507050725 | 16 | 189 | 3.2 | 17.7 | 0.00 | 0.00 | 0.00 | 10 | 1015.2 |
| 20260507050604 | 16 | 189 | 3.2 | 20.9 | 0.00 | 0.00 | 0.00 | 10 | 1015.1 |
| 20260507050504 | 16 | 190 | 3.2 | 20.9 | 0.00 | 0.00 | 0.00 | 10 | 1015.2 |
| 20260507050404 | 17 | 190 | 3.2 | 20.9 | 0.00 | 0.00 | 0.00 | 10 | 1015.1 |
| 20260507050304 | 17 | 192 | 3.2 | 20.9 | 0.00 | 0.00 | 0.00 | 10 | 1015.2 |
| 20260507050204 | 17 | 192 | 3.2 | 20.9 | 0.00 | 0.00 | 0.00 | 10 | 1015.2 |
| 20260507050104 | 17 | 193 | 3.2 | 20.9 | 0.00 | 0.00 | 0.00 | 10 | 1015.2 |
| 20260507050004 | 17 | 193 | 1.6 | 20.9 | 0.00 | 0.00 | 0.00 | 10 | 1015.3 |
| 20260507045904 | 17 | 192 | 1.6 | 20.9 | 0.00 | 0.00 | 0.00 | 10 | 1015.2 |
| 20260507045804 | 17 | 190 | 1.6 | 20.9 | 0.00 | 0.00 | 0.00 | 10 | 1015.2 |
| 20260507045725 | 17 | 191 | 1.6 | 20.9 | 0.00 | 0.00 | 0.00 | 10 | 1015.2 |
| 20260507045604 | 17 | 193 | 1.6 | 12.9 | 0.00 | 0.00 | 0.00 | 9 | 1015.2 |
| 20260507045504 | 17 | 192 | 1.6 | 12.9 | 0.00 | 0.00 | 0.00 | 9 | 1015.3 |
| 20260507045404 | 17 | 189 | 1.6 | 12.9 | 0.00 | 0.00 | 0.00 | 9 | 1015.3 |
| 20260507045306 | 17 | 188 | 3.2 | 17.7 | 0.00 | 0.00 | 0.00 | 7 | 1015.4 |
| 20260507045204 | 17 | 190 | 4.8 | 17.7 | 0.00 | 0.00 | 0.00 | 7 | 1015.5 |
| 20260507045104 | 17 | 190 | 4.8 | 20.9 | 0.00 | 0.00 | 0.00 | 6 | 1015.5 |
| 20260507045004 | 17 | 188 | 6.4 | 20.9 | 0.00 | 0.00 | 0.00 | 6 | 1015.5 |
| 20260507044904 | 17 | 187 | 6.4 | 20.9 | 0.00 | 0.00 | 0.00 | 5 | 1015.4 |
| 20260507044804 | 17 | 187 | 6.4 | 20.9 | 0.00 | 0.00 | 0.00 | 5 | 1015.5 |
| 20260507044704 | 17 | 188 | 6.4 | 20.9 | 0.00 | 0.00 | 0.00 | 4 | 1015.5 |
| 20260507044604 | 17 | 188 | 6.4 | 20.9 | 0.00 | 0.00 | 0.00 | 4 | 1015.5 |
| 20260507044504 | 17 | 188 | 8.0 | 20.9 | 0.00 | 0.00 | 0.00 | 4 | 1015.5 |
| 20260507044404 | 17 | 186 | 8.0 | 20.9 | 0.00 | 0.00 | 0.00 | 4 | 1015.5 |
| 20260507044304 | 17 | 184 | 8.0 | 20.9 | 0.00 | 0.00 | 0.00 | 4 | 1015.6 |
| 20260507044204 | 17 | 180 | 6.4 | 20.9 | 0.00 | 0.00 | 0.00 | 4 | 1015.7 |
| 20260507044104 | 17 | 177 | 6.4 | 19.3 | 0.00 | 0.00 | 0.00 | 3 | 1015.7 |
| 20260507044004 | 17 | 176 | 6.4 | 19.3 | 0.00 | 0.00 | 0.00 | 2 | 1015.7 |
| 20260507043904 | 17 | 178 | 6.4 | 19.3 | 0.00 | 0.00 | 0.00 | 1 | 1015.7 |
| 20260507043825 | 17 | 180 | 8.0 | 19.3 | 0.00 | 0.00 | 0.00 | 1 | 1015.6 |
| 20260507043704 | 17 | 180 | 8.0 | 19.3 | 0.00 | 0.00 | 0.00 | 1 | 1015.5 |
| 20260507043604 | 17 | 181 | 9.7 | 19.3 | 0.00 | 0.00 | 0.00 | 1 | 1015.5 |
| 20260507043504 | 17 | 181 | 9.7 | 19.3 | 0.00 | 0.00 | 0.00 | 1 | 1015.5 |
| 20260507043404 | 17 | 182 | 9.7 | 19.3 | 0.00 | 0.00 | 0.00 | 1 | 1015.5 |
| 20260507043304 | 17 | 182 | 8.0 | 19.3 | 0.00 | 0.00 | 0.00 | 1 | 1015.4 |
| 20260507043204 | 17 | 185 | 8.0 | 19.3 | 0.00 | 0.00 | 0.00 | 1 | 1015.4 |
| 20260507043125 | 17 | 186 | 6.4 | 19.3 | 0.00 | 0.00 | 0.00 | 1 | 1015.3 |
| 20260507043004 | 17 | 189 | 8.0 | 19.3 | 0.00 | 0.00 | 0.00 | 1 | 1015.3 |
| 20260507042925 | 17 | 191 | 6.4 | 19.3 | 0.00 | 0.00 | 0.00 | 1 | 1015.2 |
| 20260507042804 | 17 | 192 | 6.4 | 19.3 | 0.00 | 0.00 | 0.00 | 1 | 1015.2 |
| 20260507042704 | 17 | 192 | 8.0 | 20.9 | 0.00 | 0.00 | 0.00 | 1 | 1015.2 |
| 20260507042604 | 17 | 190 | 6.4 | 20.9 | 0.00 | 0.00 | 0.00 | 1 | 1015.1 |
| 20260507042504 | 17 | 191 | 4.8 | 20.9 | 0.00 | 0.00 | 0.00 | 1 | 1015.2 |
| 20260507042404 | 17 | 192 | 4.8 | 20.9 | 0.00 | 0.00 | 0.00 | 1 | 1015.1 |
| 20260507042306 | 17 | 188 | 6.4 | 20.9 | 0.00 | 0.00 | 0.00 | 1 | 1015.0 |
| 20260507042225 | 17 | 188 | 8.0 | 20.9 | 0.00 | 0.00 | 0.00 | 1 | 1015.0 |
| 20260507042104 | 17 | 187 | 8.0 | 20.9 | 0.00 | 0.00 | 0.00 | 1 | 1015.0 |
| 20260507042025 | 17 | 185 | 8.0 | 20.9 | 0.00 | 0.00 | 0.00 | 1 | 1015.0 |
| 20260507041904 | 17 | 182 | 8.0 | 20.9 | 0.00 | 0.00 | 0.00 | 1 | 1015.1 |
| 20260507041804 | 17 | 181 | 6.4 | 20.9 | 0.00 | 0.00 | 0.00 | 1 | 1015.2 |
| 20260507041725 | 17 | 180 | 4.8 | 19.3 | 0.00 | 0.00 | 0.00 | 1 | 1015.2 |
| 20260507041604 | 17 | 179 | 4.8 | 19.3 | 0.00 | 0.00 | 0.00 | 1 | 1015.3 |
| 20260507041504 | 17 | 179 | 4.8 | 19.3 | 0.00 | 0.00 | 0.00 | 1 | 1015.3 |
| 20260507041404 | 17 | 179 | 4.8 | 19.3 | 0.00 | 0.00 | 0.00 | 1 | 1015.2 |
| 20260507041304 | 17 | 182 | 3.2 | 19.3 | 0.00 | 0.00 | 0.00 | 1 | 1015.3 |
| 20260507041204 | 17 | 181 | 3.2 | 19.3 | 0.00 | 0.00 | 0.00 | 1 | 1015.2 |
| 20260507041104 | 17 | 182 | 1.6 | 19.3 | 0.00 | 0.00 | 0.00 | 1 | 1015.2 |
| 20260507041004 | 17 | 182 | 1.6 | 11.3 | 0.00 | 0.00 | 0.00 | 1 | 1015.1 |
| 20260507040904 | 17 | 186 | 0.0 | 11.3 | 0.00 | 0.00 | 0.00 | 1 | 1015.1 |
| 20260507040825 | 17 | 185 | 0.0 | 11.3 | 0.00 | 0.00 | 0.00 | 1 | 1015.2 |
| 20260507040705 | 17 | 180 | 0.0 | 9.7 | 0.00 | 0.00 | 0.00 | 1 | 1015.3 |
| 20260507040604 | 17 | 183 | 0.0 | 9.7 | 0.00 | 0.00 | 0.00 | 1 | 1015.3 |
| 20260507040504 | 17 | 180 | 0.0 | 6.4 | 0.00 | 0.00 | 0.00 | 1 | 1015.4 |
| 20260507040425 | 17 | 180 | 0.0 | 6.4 | 0.00 | 0.00 | 0.00 | 1 | 1015.5 |
| 20260507040304 | 17 | 178 | 0.0 | 6.4 | 0.00 | 0.00 | 0.00 | 1 | 1015.4 |
| 20260507040204 | 17 | 178 | 0.0 | 6.4 | 0.00 | 0.00 | 0.00 | 1 | 1015.4 |
| 20260507040125 | 17 | 179 | 0.0 | 6.4 | 0.00 | 0.00 | 0.00 | 1 | 1015.4 |
| 20260507040025 | 17 | 179 | 0.0 | 6.4 | 0.00 | 0.00 | 0.00 | 1 | 1015.4 |
| 20260507035904 | 17 | 179 | 0.0 | 4.8 | 0.00 | 0.00 | 0.00 | 1 | 1015.4 |
| 20260507035804 | 17 | 175 | 0.0 | 4.8 | 0.00 | 0.00 | 0.00 | 1 | 1015.3 |
| 20260507035704 | 17 | 175 | 0.0 | 4.8 | 0.00 | 0.00 | 0.00 | 1 | 1015.4 |
| 20260507035625 | 17 | 175 | 0.0 | 4.8 | 0.00 | 0.00 | 0.00 | 1 | 1015.5 |
| 20260507035504 | 17 | 184 | 0.0 | 1.6 | 0.00 | 0.00 | 0.00 | 1 | 1015.5 |
| 20260507035404 | 17 | 195 | 0.0 | 3.2 | 0.00 | 0.00 | 0.00 | 1 | 1015.5 |
| 20260507035306 | 17 | 195 | 0.0 | 3.2 | 0.00 | 0.00 | 0.00 | 1 | 1015.5 |
| 20260507035225 | 17 | 195 | 0.0 | 3.2 | 0.00 | 0.00 | 0.00 | 1 | 1015.4 |
| 20260507035104 | 17 | 200 | 0.0 | 3.2 | 0.00 | 0.00 | 0.00 | 1 | 1015.4 |
| 20260507035004 | 17 | 193 | 0.0 | 4.8 | 0.00 | 0.00 | 0.00 | 1 | 1015.4 |
| 20260507034904 | 17 | 184 | 0.0 | 4.8 | 0.00 | 0.00 | 0.00 | 1 | 1015.4 |
| 20260507034825 | 17 | 187 | 1.6 | 16.1 | 0.00 | 0.00 | 0.00 | 1 | 1015.3 |
| 20260507034725 | 17 | 180 | 1.6 | 19.3 | 0.00 | 0.00 | 0.00 | 1 | 1015.3 |
| 20260507034604 | 17 | 182 | 3.2 | 19.3 | 0.00 | 0.00 | 0.00 | 1 | 1015.2 |
| 20260507034504 | 17 | 178 | 3.2 | 19.3 | 0.00 | 0.00 | 0.00 | 1 | 1015.2 |
| 20260507034404 | 17 | 179 | 4.8 | 19.3 | 0.00 | 0.00 | 0.00 | 1 | 1015.3 |
| 20260507034304 | 17 | 176 | 4.8 | 19.3 | 0.00 | 0.00 | 0.00 | 1 | 1015.3 |
| 20260507034204 | 17 | 173 | 4.8 | 19.3 | 0.00 | 0.00 | 0.00 | 1 | 1015.3 |
| 20260507034125 | 17 | 173 | 6.4 | 19.3 | 0.00 | 0.00 | 0.00 | 1 | 1015.2 |
| 20260507034004 | 17 | 174 | 8.0 | 19.3 | 0.00 | 0.00 | 0.00 | 1 | 1015.1 |
| 20260507033904 | 17 | 175 | 8.0 | 19.3 | 0.00 | 0.00 | 0.00 | 1 | 1015.0 |
| 20260507033804 | 17 | 176 | 8.0 | 19.3 | 0.00 | 0.00 | 0.00 | 1 | 1014.9 |
| 20260507033704 | 17 | 175 | 9.7 | 20.9 | 0.00 | 0.00 | 0.00 | 1 | 1015.0 |
| 20260507033604 | 17 | 176 | 9.7 | 20.9 | 0.00 | 0.00 | 0.00 | 1 | 1015.1 |
| 20260507033504 | 17 | 177 | 9.7 | 20.9 | 0.00 | 0.00 | 0.00 | 1 | 1015.1 |
| 20260507033404 | 17 | 177 | 11.3 | 20.9 | 0.00 | 0.00 | 0.00 | 2 | 1015.2 |
| 20260507033304 | 17 | 178 | 11.3 | 20.9 | 0.00 | 0.00 | 0.00 | 2 | 1015.1 |
| 20260507033204 | 17 | 179 | 11.3 | 20.9 | 0.00 | 0.00 | 0.00 | 2 | 1015.1 |
| 20260507033104 | 17 | 179 | 11.3 | 20.9 | 0.00 | 0.00 | 0.00 | 3 | 1015.0 |
| 20260507033004 | 17 | 180 | 11.3 | 20.9 | 0.00 | 0.00 | 0.00 | 3 | 1015.0 |
| 20260507032904 | 17 | 181 | 11.3 | 20.9 | 0.00 | 0.00 | 0.00 | 3 | 1015.1 |
| 20260507032804 | 17 | 182 | 11.3 | 20.9 | 0.00 | 0.00 | 0.00 | 4 | 1015.1 |
| 20260507032704 | 17 | 180 | 9.7 | 19.3 | 0.00 | 0.00 | 0.00 | 3 | 1015.1 |
| 20260507032604 | 17 | 179 | 9.7 | 19.3 | 0.00 | 0.00 | 0.00 | 4 | 1015.2 |
| 20260507032525 | 17 | 178 | 9.7 | 20.9 | 0.00 | 0.00 | 0.00 | 3 | 1015.2 |
| 20260507032404 | 17 | 178 | 9.7 | 20.9 | 0.00 | 0.00 | 0.00 | 4 | 1015.3 |
| 20260507032306 | 17 | 177 | 9.7 | 20.9 | 0.00 | 0.00 | 0.00 | 4 | 1015.3 |
| 20260507032204 | 17 | 177 | 8.0 | 20.9 | 0.00 | 0.00 | 0.00 | 4 | 1015.3 |
| 20260507032104 | 17 | 177 | 8.0 | 20.9 | 0.00 | 0.00 | 0.00 | 4 | 1015.2 |
| 20260507032025 | 17 | 176 | 8.0 | 20.9 | 0.00 | 0.00 | 0.00 | 4 | 1015.3 |
| 20260507031904 | 17 | 170 | 6.4 | 20.9 | 0.00 | 0.00 | 0.00 | 4 | 1015.3 |
| 20260507031804 | 17 | 168 | 4.8 | 20.9 | 0.00 | 0.00 | 0.00 | 4 | 1015.4 |
| 20260507031704 | 17 | 170 | 4.8 | 20.9 | 0.00 | 0.00 | 0.00 | 5 | 1015.4 |
| 20260507031604 | 17 | 169 | 4.8 | 20.9 | 0.00 | 0.00 | 0.00 | 5 | 1015.3 |
| 20260507031525 | 17 | 169 | 4.8 | 19.3 | 0.00 | 0.00 | 0.00 | 4 | 1015.2 |
| 20260507031404 | 17 | 169 | 4.8 | 17.7 | 0.00 | 0.00 | 0.00 | 4 | 1015.1 |
| 20260507031304 | 17 | 171 | 4.8 | 17.7 | 0.00 | 0.00 | 0.00 | 4 | 1015.1 |
| 20260507031204 | 17 | 172 | 4.8 | 17.7 | 0.00 | 0.00 | 0.00 | 5 | 1015.0 |
| 20260507031104 | 17 | 174 | 6.4 | 17.7 | 0.00 | 0.00 | 0.00 | 4 | 1014.9 |
| 20260507031004 | 17 | 176 | 6.4 | 17.7 | 0.00 | 0.00 | 0.00 | 4 | 1014.8 |
| 20260507030904 | 17 | 177 | 6.4 | 16.1 | 0.00 | 0.00 | 0.00 | 4 | 1014.9 |
| 20260507030804 | 17 | 177 | 6.4 | 16.1 | 0.00 | 0.00 | 0.00 | 4 | 1014.9 |
| 20260507030704 | 17 | 176 | 6.4 | 16.1 | 0.00 | 0.00 | 0.00 | 4 | 1014.9 |
| 20260507030604 | 17 | 179 | 6.4 | 16.1 | 0.00 | 0.00 | 0.00 | 3 | 1015.0 |
| 20260507030504 | 17 | 179 | 6.4 | 16.1 | 0.00 | 0.00 | 0.00 | 3 | 1015.0 |
| 20260507030404 | 17 | 180 | 6.4 | 17.7 | 0.00 | 0.00 | 0.00 | 4 | 1015.0 |
| 20260507030304 | 17 | 179 | 6.4 | 17.7 | 0.00 | 0.00 | 0.00 | 3 | 1015.0 |
| 20260507030204 | 17 | 179 | 6.4 | 17.7 | 0.00 | 0.00 | 0.00 | 4 | 1015.0 |
| 20260507030125 | 17 | 178 | 4.8 | 17.7 | 0.00 | 0.00 | 0.00 | 4 | 1015.0 |
| 20260507030004 | 17 | 178 | 4.8 | 17.7 | 0.00 | 0.00 | 0.00 | 3 | 1015.0 |
| 20260507025904 | 17 | 179 | 4.8 | 17.7 | 0.00 | 0.00 | 0.00 | 3 | 1015.0 |
| 20260507025804 | 17 | 179 | 4.8 | 17.7 | 0.00 | 0.00 | 0.00 | 2 | 1014.8 |
| 20260507025704 | 17 | 181 | 3.2 | 17.7 | 0.00 | 0.00 | 0.00 | 3 | 1014.7 |
| 20260507025604 | 17 | 177 | 3.2 | 17.7 | 0.00 | 0.00 | 0.00 | 2 | 1014.6 |
| 20260507025504 | 17 | 174 | 1.6 | 17.7 | 0.00 | 0.00 | 0.00 | 1 | 1014.6 |
| 20260507025404 | 17 | 166 | 1.6 | 16.1 | 0.00 | 0.00 | 0.00 | 1 | 1014.7 |
| 20260507025325 | 17 | 164 | 1.6 | 16.1 | 0.00 | 0.00 | 0.00 | 1 | 1014.8 |
| 20260507025204 | 17 | 166 | 3.2 | 9.7 | 0.00 | 0.00 | 0.00 | 1 | 1014.9 |
| 20260507025104 | 17 | 162 | 3.2 | 9.7 | 0.00 | 0.00 | 0.00 | 1 | 1015.0 |
| 20260507025004 | 17 | 159 | 3.2 | 12.9 | 0.00 | 0.00 | 0.00 | 1 | 1015.0 |
| 20260507024904 | 17 | 156 | 3.2 | 16.1 | 0.00 | 0.00 | 0.00 | 1 | 1015.0 |
| 20260507024804 | 17 | 161 | 4.8 | 16.1 | 0.00 | 0.00 | 0.00 | 1 | 1015.1 |
| 20260507024725 | 17 | 159 | 4.8 | 16.1 | 0.00 | 0.00 | 0.00 | 1 | 1015.0 |
| 20260507024604 | 17 | 162 | 6.4 | 16.1 | 0.00 | 0.00 | 0.00 | 1 | 1015.0 |
| 20260507024504 | 17 | 162 | 6.4 | 16.1 | 0.00 | 0.00 | 0.00 | 1 | 1015.0 |
| 20260507024404 | 17 | 164 | 6.4 | 16.1 | 0.00 | 0.00 | 0.00 | 1 | 1015.0 |
| 20260507024304 | 17 | 164 | 6.4 | 16.1 | 0.00 | 0.00 | 0.00 | 1 | 1015.0 |
| 20260507024204 | 17 | 164 | 6.4 | 16.1 | 0.00 | 0.00 | 0.00 | 1 | 1014.9 |
| 20260507024125 | 17 | 166 | 6.4 | 16.1 | 0.00 | 0.00 | 0.00 | 1 | 1014.8 |
| 20260507024025 | 17 | 166 | 6.4 | 16.1 | 0.00 | 0.00 | 0.00 | 1 | 1014.7 |
| 20260507023904 | 17 | 165 | 6.4 | 19.3 | 0.00 | 0.00 | 0.00 | 1 | 1014.6 |
| 20260507023825 | 17 | 163 | 8.0 | 19.3 | 0.00 | 0.00 | 0.00 | 1 | 1014.6 |
| 20260507023725 | 17 | 163 | 6.4 | 19.3 | 0.00 | 0.00 | 0.00 | 1 | 1014.6 |
| 20260507023604 | 17 | 161 | 6.4 | 19.3 | 0.00 | 0.00 | 0.00 | 1 | 1014.7 |
| 20260507023504 | 17 | 161 | 6.4 | 19.3 | 0.00 | 0.00 | 0.00 | 1 | 1014.7 |
| 20260507023404 | 17 | 160 | 4.8 | 19.3 | 0.00 | 0.00 | 0.00 | 2 | 1014.7 |
| 20260507023304 | 17 | 159 | 4.8 | 19.3 | 0.00 | 0.00 | 0.00 | 2 | 1014.6 |
| 20260507023204 | 17 | 158 | 4.8 | 19.3 | 0.00 | 0.00 | 0.00 | 2 | 1014.5 |
| 20260507023104 | 17 | 157 | 3.2 | 19.3 | 0.00 | 0.00 | 0.00 | 2 | 1014.4 |
| 20260507023004 | 17 | 159 | 3.2 | 19.3 | 0.00 | 0.00 | 0.00 | 3 | 1014.5 |
| 20260507022904 | 17 | 163 | 1.6 | 19.3 | 0.00 | 0.00 | 0.00 | 3 | 1014.4 |
| 20260507022804 | 17 | 170 | 1.6 | 16.1 | 0.00 | 0.00 | 0.00 | 2 | 1014.4 |
| 20260507022725 | 17 | 174 | 1.6 | 12.9 | 0.00 | 0.00 | 0.00 | 2 | 1014.5 |
| 20260507022604 | 17 | 175 | 3.2 | 12.9 | 0.00 | 0.00 | 0.00 | 2 | 1014.5 |
| 20260507022504 | 17 | 173 | 4.8 | 14.5 | 0.00 | 0.00 | 0.00 | 2 | 1014.5 |
| 20260507022404 | 17 | 172 | 4.8 | 19.3 | 0.00 | 0.00 | 0.00 | 3 | 1014.4 |
| 20260507022306 | 17 | 172 | 4.8 | 19.3 | 0.00 | 0.00 | 0.00 | 3 | 1014.4 |
| 20260507022204 | 17 | 172 | 4.8 | 19.3 | 0.00 | 0.00 | 0.00 | 3 | 1014.4 |
| 20260507022103 | 17 | 172 | 4.8 | 19.3 | 0.00 | 0.00 | 0.00 | 3 | 1014.3 |
| 20260507022004 | 17 | 172 | 4.8 | 19.3 | 0.00 | 0.00 | 0.00 | 3 | 1014.4 |
| 20260507021904 | 17 | 172 | 3.2 | 19.3 | 0.00 | 0.00 | 0.00 | 3 | 1014.3 |
| 20260507021804 | 17 | 171 | 3.2 | 19.3 | 0.00 | 0.00 | 0.00 | 4 | 1014.3 |
| 20260507021704 | 17 | 168 | 3.2 | 19.3 | 0.00 | 0.00 | 0.00 | 4 | 1014.3 |
| 20260507021604 | 17 | 164 | 3.2 | 19.3 | 0.00 | 0.00 | 0.00 | 5 | 1014.4 |
| 20260507021504 | 17 | 162 | 1.6 | 19.3 | 0.00 | 0.00 | 0.00 | 4 | 1014.3 |
| 20260507021425 | 17 | 160 | 1.6 | 17.7 | 0.00 | 0.00 | 0.00 | 4 | 1014.3 |
| 20260507021304 | 17 | 158 | 1.6 | 17.7 | 0.00 | 0.00 | 0.00 | 4 | 1014.3 |
| 20260507021204 | 17 | 164 | 1.6 | 17.7 | 0.00 | 0.00 | 0.00 | 3 | 1014.4 |
| 20260507021104 | 17 | 164 | 1.6 | 17.7 | 0.00 | 0.00 | 0.00 | 4 | 1014.4 |
| 20260507021004 | 17 | 164 | 1.6 | 17.7 | 0.00 | 0.00 | 0.00 | 4 | 1014.4 |
| 20260507020904 | 17 | 164 | 1.6 | 17.7 | 0.00 | 0.00 | 0.00 | 4 | 1014.4 |
| 20260507020804 | 17 | 162 | 1.6 | 17.7 | 0.00 | 0.00 | 0.00 | 4 | 1014.5 |
| 20260507020704 | 17 | 167 | 3.2 | 17.7 | 0.00 | 0.00 | 0.00 | 4 | 1014.4 |
| 20260507020625 | 17 | 170 | 3.2 | 17.7 | 0.00 | 0.00 | 0.00 | 4 | 1014.4 |
| 20260507020504 | 17 | 170 | 3.2 | 17.7 | 0.00 | 0.00 | 0.00 | 4 | 1014.4 |
| 20260507020404 | 17 | 170 | 3.2 | 17.7 | 0.00 | 0.00 | 0.00 | 4 | 1014.3 |
| 20260507020304 | 17 | 170 | 3.2 | 17.7 | 0.00 | 0.00 | 0.00 | 5 | 1014.2 |
| 20260507020204 | 17 | 168 | 1.6 | 17.7 | 0.00 | 0.00 | 0.00 | 4 | 1014.2 |
| 20260507020104 | 17 | 167 | 1.6 | 17.7 | 0.00 | 0.00 | 0.00 | 5 | 1014.1 |
| 20260507020004 | 17 | 167 | 1.6 | 17.7 | 0.00 | 0.00 | 0.00 | 4 | 1014.0 |
| 20260507015904 | 17 | 167 | 1.6 | 17.7 | 0.00 | 0.00 | 0.00 | 5 | 1014.0 |
| 20260507015825 | 17 | 170 | 1.6 | 17.7 | 0.00 | 0.00 | 0.00 | 5 | 1013.9 |
| 20260507015704 | 17 | 163 | 0.0 | 16.1 | 0.00 | 0.00 | 0.00 | 6 | 1013.8 |
| 20260507015604 | 17 | 156 | 0.0 | 8.0 | 0.00 | 0.00 | 0.00 | 6 | 1013.9 |
| 20260507015504 | 17 | 157 | 0.0 | 8.0 | 0.00 | 0.00 | 0.00 | 6 | 1013.8 |
| 20260507015404 | 17 | 157 | 0.0 | 8.0 | 0.00 | 0.00 | 0.00 | 6 | 1013.9 |
| 20260507015306 | 17 | 157 | 0.0 | 8.0 | 0.00 | 0.00 | 0.00 | 7 | 1013.9 |
| 20260507015204 | 17 | 156 | 0.0 | 6.4 | 0.00 | 0.00 | 0.00 | 7 | 1013.8 |
| 20260507015104 | 17 | 165 | 0.0 | 3.2 | 0.00 | 0.00 | 0.00 | 7 | 1013.8 |
| 20260507015025 | 17 | 169 | 0.0 | 3.2 | 0.00 | 0.00 | 0.00 | 7 | 1013.8 |
| 20260507014904 | 17 | 155 | 0.0 | 3.2 | 0.00 | 0.00 | 0.00 | 7 | 1013.7 |
| 20260507014804 | 17 | 158 | 0.0 | 3.2 | 0.00 | 0.00 | 0.00 | 6 | 1013.8 |
| 20260507014704 | 17 | 156 | 0.0 | 3.2 | 0.00 | 0.00 | 0.00 | 7 | 1013.7 |
| 20260507014604 | 17 | 157 | 0.0 | 8.0 | 0.00 | 0.00 | 0.00 | 6 | 1013.8 |
| 20260507014525 | 17 | 167 | 0.0 | 8.0 | 0.00 | 0.00 | 0.00 | 7 | 1013.9 |
| 20260507014404 | 17 | 164 | 0.0 | 8.0 | 0.00 | 0.00 | 0.00 | 7 | 1014.0 |
| 20260507014304 | 17 | 164 | 0.0 | 8.0 | 0.00 | 0.00 | 0.00 | 7 | 1014.0 |
| 20260507014204 | 17 | 164 | 0.0 | 8.0 | 0.00 | 0.00 | 0.00 | 7 | 1013.9 |
| 20260507014104 | 17 | 164 | 0.0 | 8.0 | 0.00 | 0.00 | 0.00 | 7 | 1013.9 |
| 20260507014004 | 17 | 164 | 0.0 | 8.0 | 0.00 | 0.00 | 0.00 | 8 | 1013.8 |
| 20260507013904 | 17 | 164 | 0.0 | 8.0 | 0.00 | 0.00 | 0.00 | 9 | 1013.8 |
| 20260507013804 | 17 | 164 | 0.0 | 8.0 | 0.00 | 0.00 | 0.00 | 9 | 1013.8 |
| 20260507013704 | 17 | 164 | 0.0 | 8.0 | 0.00 | 0.00 | 0.00 | 10 | 1013.8 |
| 20260507013604 | 17 | 166 | 0.0 | 11.3 | 0.00 | 0.00 | 0.00 | 9 | 1013.6 |
| 20260507013504 | 17 | 166 | 0.0 | 11.3 | 0.00 | 0.00 | 0.00 | 9 | 1013.5 |
| 20260507013404 | 17 | 153 | 0.0 | 11.3 | 0.00 | 0.00 | 0.00 | 9 | 1013.4 |
| 20260507013304 | 17 | 153 | 0.0 | 11.3 | 0.00 | 0.00 | 0.00 | 9 | 1013.4 |
| 20260507013204 | 17 | 179 | 0.0 | 11.3 | 0.00 | 0.00 | 0.00 | 8 | 1013.4 |
| 20260507013104 | 17 | 179 | 0.0 | 11.3 | 0.00 | 0.00 | 0.00 | 8 | 1013.4 |
| 20260507013004 | 17 | 179 | 0.0 | 11.3 | 0.00 | 0.00 | 0.00 | 8 | 1013.5 |
| 20260507012904 | 17 | 179 | 0.0 | 11.3 | 0.00 | 0.00 | 0.00 | 8 | 1013.5 |
| 20260507012804 | 17 | 175 | 0.0 | 11.3 | 0.00 | 0.00 | 0.00 | 8 | 1013.4 |
| 20260507012704 | 17 | 175 | 0.0 | 11.3 | 0.00 | 0.00 | 0.00 | 8 | 1013.4 |
| 20260507012604 | 17 | 175 | 0.0 | 16.1 | 0.00 | 0.00 | 0.00 | 9 | 1013.3 |
| 20260507012504 | 17 | 173 | 0.0 | 16.1 | 0.00 | 0.00 | 0.00 | 9 | 1013.3 |
| 20260507012404 | 17 | 174 | 0.0 | 16.1 | 0.00 | 0.00 | 0.00 | 9 | 1013.4 |
| 20260507012306 | 17 | 171 | 0.0 | 16.1 | 0.00 | 0.00 | 0.00 | 9 | 1013.5 |
| 20260507012204 | 17 | 156 | 0.0 | 16.1 | 0.00 | 0.00 | 0.00 | 9 | 1013.4 |
| 20260507012104 | 17 | 152 | 0.0 | 16.1 | 0.00 | 0.00 | 0.00 | 8 | 1013.4 |
| 20260507012025 | 17 | 152 | 0.0 | 16.1 | 0.00 | 0.00 | 0.00 | 8 | 1013.3 |
| 20260507011904 | 17 | 153 | 0.0 | 16.1 | 0.00 | 0.00 | 0.00 | 9 | 1013.3 |
| 20260507011804 | 17 | 152 | 0.0 | 16.1 | 0.00 | 0.00 | 0.00 | 9 | 1013.2 |
| 20260507011704 | 17 | 151 | 1.6 | 16.1 | 0.00 | 0.00 | 0.00 | 9 | 1013.3 |
| 20260507011604 | 17 | 151 | 1.6 | 19.3 | 0.00 | 0.00 | 0.00 | 9 | 1013.2 |
| 20260507011504 | 17 | 151 | 1.6 | 19.3 | 0.00 | 0.00 | 0.00 | 9 | 1013.2 |
| 20260507011404 | 17 | 151 | 1.6 | 19.3 | 0.00 | 0.00 | 0.00 | 9 | 1013.2 |
| 20260507011304 | 17 | 151 | 1.6 | 19.3 | 0.00 | 0.00 | 0.00 | 9 | 1013.2 |
| 20260507011204 | 17 | 151 | 1.6 | 19.3 | 0.00 | 0.00 | 0.00 | 9 | 1013.2 |
| 20260507011125 | 17 | 151 | 1.6 | 19.3 | 0.00 | 0.00 | 0.00 | 9 | 1013.2 |
| 20260507010904 | 17 | 151 | 1.6 | 19.3 | 0.00 | 0.00 | 0.00 | 9 | 1013.2 |
| 20260507010804 | 17 | 151 | 1.6 | 19.3 | 0.00 | 0.00 | 0.00 | 10 | 1013.2 |
| 20260507010704 | 17 | 152 | 1.6 | 19.3 | 0.00 | 0.00 | 0.00 | 10 | 1013.2 |
| 20260507010604 | 17 | 151 | 0.0 | 14.5 | 0.00 | 0.00 | 0.00 | 9 | 1013.2 |
| 20260507010525 | 17 | 151 | 1.6 | 14.5 | 0.00 | 0.00 | 0.00 | 9 | 1013.3 |
| 20260507010404 | 17 | 154 | 1.6 | 14.5 | 0.00 | 0.00 | 0.00 | 8 | 1013.2 |
| 20260507010304 | 17 | 154 | 1.6 | 14.5 | 0.00 | 0.00 | 0.00 | 7 | 1013.2 |
| 20260507010204 | 17 | 153 | 1.6 | 14.5 | 0.00 | 0.00 | 0.00 | 8 | 1013.1 |
| 20260507010104 | 17 | 153 | 3.2 | 14.5 | 0.00 | 0.00 | 0.00 | 9 | 1013.0 |
| 20260507010004 | 17 | 159 | 3.2 | 14.5 | 0.00 | 0.00 | 0.00 | 8 | 1013.0 |
| 20260507005904 | 17 | 159 | 4.8 | 17.7 | 0.00 | 0.00 | 0.00 | 9 | 1013.0 |
| 20260507005825 | 17 | 159 | 6.4 | 19.3 | 0.00 | 0.00 | 0.00 | 8 | 1013.1 |
| 20260507005725 | 17 | 160 | 6.4 | 19.3 | 0.00 | 0.00 | 0.00 | 8 | 1013.0 |
| 20260507005625 | 17 | 161 | 6.4 | 19.3 | 0.00 | 0.00 | 0.00 | 8 | 1013.0 |
| 20260507005504 | 17 | 164 | 8.0 | 19.3 | 0.00 | 0.00 | 0.00 | 8 | 1012.9 |
| 20260507005404 | 17 | 164 | 8.0 | 19.3 | 0.00 | 0.00 | 0.00 | 8 | 1012.9 |
| 20260507005305 | 17 | 164 | 8.0 | 19.3 | 0.00 | 0.00 | 0.00 | 7 | 1012.9 |
| 20260507005204 | 17 | 163 | 9.7 | 19.3 | 0.00 | 0.00 | 0.00 | 7 | 1012.8 |
| 20260507005104 | 17 | 163 | 9.7 | 19.3 | 0.00 | 0.00 | 0.00 | 9 | 1012.8 |
| 20260507005004 | 17 | 160 | 9.7 | 19.3 | 0.00 | 0.00 | 0.00 | 9 | 1012.7 |
| 20260507004904 | 17 | 160 | 8.0 | 19.3 | 0.00 | 0.00 | 0.00 | 9 | 1012.7 |
| 20260507004804 | 17 | 160 | 8.0 | 17.7 | 0.00 | 0.00 | 0.00 | 9 | 1012.7 |
| 20260507004704 | 17 | 160 | 8.0 | 17.7 | 0.00 | 0.00 | 0.00 | 9 | 1012.8 |
| 20260507004604 | 17 | 160 | 8.0 | 22.5 | 0.00 | 0.00 | 0.00 | 9 | 1012.8 |
| 20260507004504 | 17 | 162 | 8.0 | 22.5 | 0.00 | 0.00 | 0.00 | 9 | 1012.8 |
| 20260507004404 | 17 | 162 | 8.0 | 22.5 | 0.00 | 0.00 | 0.00 | 9 | 1012.9 |
| 20260507004304 | 17 | 163 | 8.0 | 22.5 | 0.00 | 0.00 | 0.00 | 9 | 1012.9 |
| 20260507004204 | 17 | 164 | 6.4 | 22.5 | 0.00 | 0.00 | 0.00 | 8 | 1013.0 |
| 20260507004104 | 17 | 165 | 6.4 | 22.5 | 0.00 | 0.00 | 0.00 | 8 | 1013.0 |
| 20260507004004 | 17 | 169 | 4.8 | 22.5 | 0.00 | 0.00 | 0.00 | 8 | 1013.0 |
| 20260507003904 | 17 | 170 | 4.8 | 22.5 | 0.00 | 0.00 | 0.00 | 8 | 1013.0 |
| 20260507003804 | 17 | 173 | 4.8 | 22.5 | 0.00 | 0.00 | 0.00 | 9 | 1013.0 |
| 20260507003704 | 17 | 172 | 4.8 | 22.5 | 0.00 | 0.00 | 0.00 | 10 | 1012.7 |
| 20260507003604 | 17 | 174 | 3.2 | 20.9 | 0.00 | 0.00 | 0.00 | 10 | 1012.7 |
| 20260507003504 | 17 | 167 | 3.2 | 17.7 | 0.00 | 0.00 | 0.00 | 9 | 1012.8 |
| 20260507003404 | 17 | 165 | 3.2 | 17.7 | 0.00 | 0.00 | 0.00 | 8 | 1012.8 |
| 20260507003304 | 17 | 162 | 4.8 | 20.9 | 0.00 | 0.00 | 0.00 | 7 | 1012.8 |
| 20260507003204 | 17 | 161 | 6.4 | 20.9 | 0.00 | 0.00 | 0.00 | 6 | 1012.9 |
| 20260507003104 | 17 | 161 | 8.0 | 20.9 | 0.00 | 0.00 | 0.00 | 7 | 1012.9 |
| 20260507003004 | 17 | 160 | 8.0 | 20.9 | 0.00 | 0.00 | 0.00 | 7 | 1013.0 |
| 20260507002925 | 17 | 160 | 9.7 | 20.9 | 0.00 | 0.00 | 0.00 | 7 | 1012.9 |
| 20260507002804 | 17 | 160 | 9.7 | 20.9 | 0.00 | 0.00 | 0.00 | 7 | 1012.9 |
| 20260507002704 | 17 | 160 | 8.0 | 20.9 | 0.00 | 0.00 | 0.00 | 8 | 1012.9 |
| 20260507002604 | 17 | 159 | 8.0 | 20.9 | 0.00 | 0.00 | 0.00 | 8 | 1012.9 |
| 20260507002504 | 17 | 159 | 6.4 | 20.9 | 0.00 | 0.00 | 0.00 | 8 | 1012.9 |
| 20260507002404 | 17 | 159 | 6.4 | 20.9 | 0.00 | 0.00 | 0.00 | 8 | 1012.9 |
| 20260507002306 | 17 | 160 | 4.8 | 17.7 | 0.00 | 0.00 | 0.00 | 8 | 1012.9 |
| 20260507002204 | 17 | 161 | 3.2 | 17.7 | 0.00 | 0.00 | 0.00 | 8 | 1012.8 |
| 20260507002125 | 17 | 161 | 3.2 | 16.1 | 0.00 | 0.00 | 0.00 | 8 | 1012.6 |
| 20260507002004 | 17 | 167 | 1.6 | 16.1 | 0.00 | 0.00 | 0.00 | 8 | 1012.6 |
| 20260507001925 | 17 | 169 | 0.0 | 16.1 | 0.00 | 0.00 | 0.00 | 7 | 1012.6 |
| 20260507001804 | 17 | 154 | 0.0 | 4.8 | 0.00 | 0.00 | 0.00 | 7 | 1012.6 |
| 20260507001704 | 17 | 154 | 0.0 | 4.8 | 0.00 | 0.00 | 0.00 | 6 | 1012.6 |
| 20260507001604 | 17 | 158 | 0.0 | 4.8 | 0.00 | 0.00 | 0.00 | 7 | 1012.7 |
| 20260507001504 | 17 | 171 | 0.0 | 4.8 | 0.00 | 0.00 | 0.00 | 7 | 1012.8 |
| 20260507001404 | 17 | 171 | 0.0 | 4.8 | 0.00 | 0.00 | 0.00 | 6 | 1012.8 |
| 20260507001304 | 17 | 176 | 0.0 | 4.8 | 0.00 | 0.00 | 0.00 | 6 | 1012.9 |
| 20260507001204 | 17 | 173 | 1.6 | 14.5 | 0.00 | 0.00 | 0.00 | 6 | 1012.9 |
| 20260507001104 | 17 | 179 | 1.6 | 17.7 | 0.00 | 0.00 | 0.00 | 6 | 1012.9 |
| 20260507001004 | 17 | 179 | 3.2 | 17.7 | 0.00 | 0.00 | 0.00 | 7 | 1012.8 |
| 20260507000904 | 17 | 175 | 3.2 | 17.7 | 0.00 | 0.00 | 0.00 | 7 | 1012.7 |
| 20260507000804 | 17 | 175 | 3.2 | 17.7 | 0.00 | 0.00 | 0.00 | 7 | 1012.7 |
| 20260507000704 | 17 | 175 | 3.2 | 17.7 | 0.00 | 0.00 | 0.00 | 7 | 1012.6 |
| 20260507000604 | 17 | 173 | 4.8 | 17.7 | 0.00 | 0.00 | 0.00 | 6 | 1012.7 |
| 20260507000504 | 17 | 170 | 4.8 | 17.7 | 0.00 | 0.00 | 0.00 | 7 | 1012.6 |
| 20260507000405 | 17 | 170 | 4.8 | 17.7 | 0.00 | 0.00 | 0.00 | 7 | 1012.6 |
| 20260507000306 | 17 | 169 | 6.4 | 17.7 | 0.00 | 0.00 | 0.00 | 6 | 1012.6 |
| 20260507000226 | 17 | 168 | 6.4 | 17.7 | 0.00 | 0.00 | 0.00 | 6 | 1012.5 |
| 20260507000104 | 17 | 165 | 6.4 | 17.7 | 0.00 | 0.00 | 0.00 | 5 | 1012.5 |
| 20260507000004 | 17 | 162 | 4.8 | 17.7 | 0.00 | 0.00 | 0.00 | 5 | 1012.4 |
| 20260506235904 | 17 | 160 | 6.4 | 17.7 | 0.00 | 0.00 | 0.00 | 4 | 1012.5 |
| 20260506235804 | 17 | 163 | 6.4 | 17.7 | 0.00 | 0.00 | 0.00 | 4 | 1012.6 |
| 20260506235704 | 17 | 163 | 6.4 | 17.7 | 0.00 | 0.00 | 0.00 | 4 | 1012.8 |
| 20260506235625 | 17 | 164 | 8.0 | 17.7 | 0.00 | 0.00 | 0.00 | 4 | 1012.8 |
| 20260506235504 | 17 | 166 | 8.0 | 17.7 | 0.00 | 0.00 | 0.00 | 4 | 1012.9 |
| 20260506235404 | 17 | 168 | 8.0 | 17.7 | 0.00 | 0.00 | 0.00 | 4 | 1012.9 |
| 20260506235325 | 17 | 167 | 9.7 | 17.7 | 0.00 | 0.00 | 0.00 | 4 | 1012.9 |
| 20260506235205 | 17 | 168 | 9.7 | 20.9 | 0.00 | 0.00 | 0.00 | 5 | 1012.9 |
| 20260506235104 | 17 | 169 | 9.7 | 20.9 | 0.00 | 0.00 | 0.00 | 5 | 1012.8 |
| 20260506235004 | 17 | 170 | 9.7 | 20.9 | 0.00 | 0.00 | 0.00 | 5 | 1012.7 |
| 20260506234904 | 17 | 171 | 9.7 | 20.9 | 0.00 | 0.00 | 0.00 | 6 | 1012.7 |
| 20260506234804 | 17 | 173 | 9.7 | 20.9 | 0.00 | 0.00 | 0.00 | 5 | 1012.6 |
| 20260506234704 | 17 | 175 | 11.3 | 20.9 | 0.00 | 0.00 | 0.00 | 6 | 1012.5 |
| 20260506234625 | 17 | 175 | 11.3 | 20.9 | 0.00 | 0.00 | 0.00 | 6 | 1012.5 |
| 20260506234525 | 17 | 174 | 9.7 | 20.9 | 0.00 | 0.00 | 0.00 | 6 | 1012.5 |
| 20260506234404 | 17 | 172 | 9.7 | 20.9 | 0.00 | 0.00 | 0.00 | 7 | 1012.5 |
| 20260506234304 | 17 | 171 | 9.7 | 20.9 | 0.00 | 0.00 | 0.00 | 7 | 1012.5 |
| 20260506234225 | 17 | 173 | 9.7 | 19.3 | 0.00 | 0.00 | 0.00 | 7 | 1012.5 |
| 20260506234125 | 17 | 173 | 9.7 | 19.3 | 0.00 | 0.00 | 0.00 | 7 | 1012.5 |
| 20260506234004 | 17 | 170 | 11.3 | 22.5 | 0.00 | 0.00 | 0.00 | 5 | 1012.6 |
| 20260506233904 | 17 | 169 | 11.3 | 22.5 | 0.00 | 0.00 | 0.00 | 5 | 1012.6 |
| 20260506233804 | 17 | 169 | 11.3 | 22.5 | 0.00 | 0.00 | 0.00 | 5 | 1012.6 |
| 20260506233704 | 17 | 168 | 11.3 | 22.5 | 0.00 | 0.00 | 0.00 | 5 | 1012.6 |
| 20260506233604 | 17 | 168 | 11.3 | 22.5 | 0.00 | 0.00 | 0.00 | 4 | 1012.6 |
| 20260506233525 | 17 | 169 | 12.9 | 22.5 | 0.00 | 0.00 | 0.00 | 4 | 1012.6 |
| 20260506233425 | 17 | 169 | 12.9 | 22.5 | 0.00 | 0.00 | 0.00 | 6 | 1012.5 |
| 20260506233304 | 17 | 172 | 11.3 | 22.5 | 0.00 | 0.00 | 0.00 | 6 | 1012.6 |
| 20260506233204 | 17 | 170 | 11.3 | 22.5 | 0.00 | 0.00 | 0.00 | 6 | 1012.6 |
| 20260506233104 | 17 | 170 | 11.3 | 22.5 | 0.00 | 0.00 | 0.00 | 7 | 1012.5 |
| 20260506233004 | 17 | 173 | 11.3 | 22.5 | 0.00 | 0.00 | 0.00 | 7 | 1012.5 |
| 20260506232904 | 17 | 175 | 11.3 | 20.9 | 0.00 | 0.00 | 0.00 | 7 | 1012.5 |
| 20260506232804 | 17 | 173 | 9.7 | 19.3 | 0.00 | 0.00 | 0.00 | 6 | 1012.5 |
| 20260506232704 | 17 | 171 | 9.7 | 19.3 | 0.00 | 0.00 | 0.00 | 5 | 1012.6 |
| 20260506232604 | 17 | 170 | 9.7 | 19.3 | 0.00 | 0.00 | 0.00 | 5 | 1012.7 |
| 20260506232504 | 17 | 170 | 9.7 | 19.3 | 0.00 | 0.00 | 0.00 | 4 | 1012.7 |
| 20260506232404 | 17 | 167 | 9.7 | 20.9 | 0.00 | 0.00 | 0.00 | 5 | 1012.7 |
| 20260506232325 | 17 | 165 | 9.7 | 20.9 | 0.00 | 0.00 | 0.00 | 5 | 1012.6 |
| 20260506232204 | 17 | 165 | 9.7 | 20.9 | 0.00 | 0.00 | 0.00 | 6 | 1012.6 |
| 20260506232104 | 17 | 165 | 9.7 | 20.9 | 0.00 | 0.00 | 0.00 | 6 | 1012.4 |
| 20260506232004 | 17 | 164 | 9.7 | 20.9 | 0.00 | 0.00 | 0.00 | 6 | 1012.4 |
| 20260506231904 | 17 | 161 | 9.7 | 20.9 | 0.00 | 0.00 | 0.00 | 7 | 1012.4 |
| 20260506231804 | 17 | 160 | 9.7 | 20.9 | 0.00 | 0.00 | 0.00 | 7 | 1012.4 |
| 20260506231704 | 17 | 161 | 9.7 | 20.9 | 0.00 | 0.00 | 0.00 | 5 | 1012.5 |
| 20260506231604 | 17 | 162 | 9.7 | 20.9 | 0.00 | 0.00 | 0.00 | 7 | 1012.5 |
| 20260506231504 | 17 | 162 | 9.7 | 20.9 | 0.00 | 0.00 | 0.00 | 8 | 1012.4 |
| 20260506231404 | 17 | 166 | 9.7 | 19.3 | 0.00 | 0.00 | 0.00 | 8 | 1012.4 |
| 20260506231304 | 17 | 166 | 9.7 | 19.3 | 0.00 | 0.00 | 0.00 | 8 | 1012.4 |
| 20260506231204 | 17 | 166 | 8.0 | 17.7 | 0.00 | 0.00 | 0.00 | 8 | 1012.5 |
| 20260506231104 | 17 | 166 | 6.4 | 17.7 | 0.00 | 0.00 | 0.00 | 8 | 1012.5 |
| 20260506231004 | 17 | 164 | 6.4 | 17.7 | 0.00 | 0.00 | 0.00 | 7 | 1012.6 |
| 20260506230904 | 17 | 167 | 6.4 | 17.7 | 0.00 | 0.00 | 0.00 | 6 | 1012.7 |
| 20260506230804 | 17 | 167 | 8.0 | 17.7 | 0.00 | 0.00 | 0.00 | 7 | 1012.6 |
| 20260506230725 | 17 | 168 | 8.0 | 17.7 | 0.00 | 0.00 | 0.00 | 8 | 1012.7 |
| 20260506230604 | 17 | 166 | 6.4 | 20.9 | 0.00 | 0.00 | 0.00 | 9 | 1012.6 |
| 20260506230504 | 17 | 163 | 6.4 | 20.9 | 0.00 | 0.00 | 0.00 | 9 | 1012.6 |
| 20260506230405 | 17 | 161 | 8.0 | 20.9 | 0.00 | 0.00 | 0.00 | 7 | 1012.5 |
| 20260506230304 | 17 | 161 | 8.0 | 20.9 | 0.00 | 0.00 | 0.00 | 6 | 1012.4 |
| 20260506230204 | 17 | 159 | 9.7 | 20.9 | 0.00 | 0.00 | 0.00 | 7 | 1012.4 |
| 20260506230104 | 17 | 158 | 11.3 | 20.9 | 0.00 | 0.00 | 0.00 | 9 | 1012.4 |
| 20260506230004 | 17 | 159 | 11.3 | 20.9 | 0.00 | 0.00 | 0.00 | 9 | 1012.4 |
| 20260506225904 | 17 | 158 | 11.3 | 20.9 | 0.00 | 0.00 | 0.00 | 9 | 1012.4 |
| 20260506225804 | 17 | 158 | 9.7 | 20.9 | 0.00 | 0.00 | 0.00 | 9 | 1012.5 |
| 20260506225704 | 17 | 156 | 9.7 | 20.9 | 0.00 | 0.00 | 0.00 | 8 | 1012.5 |
| 20260506225604 | 17 | 156 | 9.7 | 24.1 | 0.00 | 0.00 | 0.00 | 8 | 1012.4 |
| 20260506225504 | 17 | 155 | 9.7 | 24.1 | 0.00 | 0.00 | 0.00 | 10 | 1012.5 |
| 20260506225404 | 17 | 153 | 9.7 | 24.1 | 0.00 | 0.00 | 0.00 | 10 | 1012.4 |
| 20260506225305 | 17 | 153 | 9.7 | 24.1 | 0.00 | 0.00 | 0.00 | 11 | 1012.4 |
| 20260506225204 | 17 | 155 | 9.7 | 24.1 | 0.00 | 0.00 | 0.00 | 10 | 1012.4 |
| 20260506225104 | 17 | 156 | 9.7 | 24.1 | 0.00 | 0.00 | 0.00 | 9 | 1012.4 |
| 20260506225004 | 17 | 156 | 11.3 | 24.1 | 0.00 | 0.00 | 0.00 | 8 | 1012.4 |
| 20260506224904 | 17 | 155 | 11.3 | 24.1 | 0.00 | 0.00 | 0.00 | 8 | 1012.5 |
| 20260506224804 | 17 | 155 | 11.3 | 24.1 | 0.00 | 0.00 | 0.00 | 8 | 1012.5 |
| 20260506224704 | 17 | 156 | 11.3 | 24.1 | 0.00 | 0.00 | 0.00 | 9 | 1012.5 |
| 20260506224604 | 17 | 157 | 12.9 | 24.1 | 0.00 | 0.00 | 0.00 | 10 | 1012.5 |
| 20260506224504 | 17 | 159 | 12.9 | 24.1 | 0.00 | 0.00 | 0.00 | 11 | 1012.5 |
| 20260506224404 | 17 | 160 | 12.9 | 24.1 | 0.00 | 0.00 | 0.00 | 10 | 1012.4 |
| 20260506224304 | 17 | 160 | 12.9 | 24.1 | 0.00 | 0.00 | 0.00 | 12 | 1012.4 |
| 20260506224204 | 17 | 158 | 12.9 | 24.1 | 0.00 | 0.00 | 0.00 | 12 | 1012.4 |
| 20260506224104 | 17 | 159 | 12.9 | 24.1 | 0.00 | 0.00 | 0.00 | 12 | 1012.3 |
| 20260506224004 | 17 | 158 | 11.3 | 24.1 | 0.00 | 0.00 | 0.00 | 11 | 1012.3 |
| 20260506223904 | 17 | 160 | 11.3 | 24.1 | 0.00 | 0.00 | 0.00 | 12 | 1012.3 |
| 20260506223804 | 17 | 162 | 11.3 | 24.1 | 0.00 | 0.00 | 0.00 | 12 | 1012.3 |
| 20260506223704 | 17 | 162 | 11.3 | 24.1 | 0.00 | 0.00 | 0.00 | 13 | 1012.2 |
| 20260506223625 | 17 | 162 | 11.3 | 24.1 | 0.00 | 0.00 | 0.00 | 13 | 1012.2 |
| 20260506223525 | 17 | 161 | 11.3 | 27.4 | 0.00 | 0.00 | 0.00 | 14 | 1012.2 |
| 20260506223404 | 17 | 160 | 11.3 | 27.4 | 0.00 | 0.00 | 0.00 | 13 | 1012.2 |
| 20260506223304 | 17 | 161 | 11.3 | 27.4 | 0.00 | 0.00 | 0.00 | 14 | 1012.2 |
| 20260506223204 | 17 | 161 | 11.3 | 27.4 | 0.00 | 0.00 | 0.00 | 13 | 1012.2 |
| 20260506223104 | 17 | 163 | 11.3 | 27.4 | 0.00 | 0.00 | 0.00 | 14 | 1012.3 |
| 20260506223004 | 17 | 163 | 11.3 | 27.4 | 0.00 | 0.00 | 0.00 | 15 | 1012.2 |
| 20260506222904 | 17 | 163 | 11.3 | 27.4 | 0.00 | 0.00 | 0.00 | 13 | 1012.3 |
| 20260506222804 | 17 | 161 | 12.9 | 27.4 | 0.00 | 0.00 | 0.00 | 14 | 1012.3 |
| 20260506222704 | 17 | 161 | 11.3 | 27.4 | 0.00 | 0.00 | 0.00 | 16 | 1012.3 |
| 20260506222604 | 17 | 162 | 11.3 | 27.4 | 0.00 | 0.00 | 0.00 | 16 | 1012.3 |
| 20260506222504 | 17 | 163 | 11.3 | 24.1 | 0.00 | 0.00 | 0.00 | 16 | 1012.4 |
| 20260506222404 | 17 | 162 | 12.9 | 24.1 | 0.00 | 0.00 | 0.00 | 17 | 1012.4 |
| 20260506222306 | 17 | 166 | 12.9 | 24.1 | 0.00 | 0.00 | 0.00 | 17 | 1012.4 |
| 20260506222204 | 17 | 169 | 12.9 | 24.1 | 0.00 | 0.00 | 0.00 | 17 | 1012.4 |
| 20260506222104 | 17 | 169 | 12.9 | 27.4 | 0.00 | 0.00 | 0.00 | 18 | 1012.4 |
| 20260506222004 | 17 | 169 | 12.9 | 27.4 | 0.00 | 0.00 | 0.00 | 17 | 1012.4 |
| 20260506221904 | 17 | 169 | 12.9 | 27.4 | 0.00 | 0.00 | 0.00 | 16 | 1012.4 |
| 20260506221804 | 17 | 169 | 14.5 | 27.4 | 0.00 | 0.00 | 0.00 | 15 | 1012.4 |
| 20260506221704 | 17 | 170 | 14.5 | 27.4 | 0.00 | 0.00 | 0.00 | 16 | 1012.4 |
| 20260506221604 | 17 | 171 | 14.5 | 27.4 | 0.00 | 0.00 | 0.00 | 16 | 1012.4 |
| 20260506221504 | 17 | 170 | 14.5 | 27.4 | 0.00 | 0.00 | 0.00 | 16 | 1012.4 |
| 20260506221404 | 17 | 170 | 12.9 | 27.4 | 0.00 | 0.00 | 0.00 | 20 | 1012.4 |
| 20260506221304 | 17 | 168 | 11.3 | 27.4 | 0.00 | 0.00 | 0.00 | 20 | 1012.4 |
| 20260506221204 | 17 | 166 | 11.3 | 27.4 | 0.00 | 0.00 | 0.00 | 20 | 1012.4 |
| 20260506221125 | 17 | 164 | 11.3 | 25.7 | 0.00 | 0.00 | 0.00 | 19 | 1012.4 |
| 20260506221004 | 17 | 166 | 11.3 | 24.1 | 0.00 | 0.00 | 0.00 | 21 | 1012.3 |
| 20260506220904 | 17 | 168 | 11.3 | 27.4 | 0.00 | 0.00 | 0.00 | 20 | 1012.4 |
| 20260506220825 | 17 | 169 | 9.7 | 27.4 | 0.00 | 0.00 | 0.00 | 20 | 1012.3 |
| 20260506220704 | 17 | 169 | 8.0 | 27.4 | 0.00 | 0.00 | 0.00 | 17 | 1012.3 |
| 20260506220604 | 17 | 169 | 9.7 | 27.4 | 0.00 | 0.00 | 0.00 | 17 | 1012.2 |
| 20260506220504 | 17 | 171 | 9.7 | 27.4 | 0.00 | 0.00 | 0.00 | 19 | 1012.2 |
| 20260506220404 | 17 | 170 | 9.7 | 27.4 | 0.00 | 0.00 | 0.00 | 18 | 1012.2 |
| 20260506220304 | 17 | 169 | 11.3 | 27.4 | 0.00 | 0.00 | 0.00 | 19 | 1012.2 |
| 20260506220204 | 17 | 168 | 11.3 | 27.4 | 0.00 | 0.00 | 0.00 | 19 | 1012.2 |
| 20260506220104 | 17 | 167 | 11.3 | 27.4 | 0.00 | 0.00 | 0.00 | 21 | 1012.2 |
| 20260506220004 | 17 | 169 | 11.3 | 27.4 | 0.00 | 0.00 | 0.00 | 22 | 1012.2 |
| 20260506215904 | 17 | 167 | 11.3 | 27.4 | 0.00 | 0.00 | 0.00 | 22 | 1012.2 |
| 20260506215825 | 17 | 167 | 12.9 | 27.4 | 0.00 | 0.00 | 0.00 | 22 | 1012.2 |
| 20260506215704 | 17 | 168 | 12.9 | 27.4 | 0.00 | 0.00 | 0.00 | 19 | 1012.2 |
| 20260506215625 | 17 | 169 | 14.5 | 27.4 | 0.00 | 0.00 | 0.00 | 19 | 1012.2 |
| 20260506215504 | 17 | 168 | 14.5 | 27.4 | 0.00 | 0.00 | 0.00 | 19 | 1012.3 |
| 20260506215404 | 17 | 168 | 14.5 | 27.4 | 0.00 | 0.00 | 0.00 | 20 | 1012.2 |
| 20260506215306 | 17 | 169 | 14.5 | 27.4 | 0.00 | 0.00 | 0.00 | 21 | 1012.2 |
| 20260506215225 | 17 | 170 | 12.9 | 27.4 | 0.00 | 0.00 | 0.00 | 21 | 1012.2 |
| 20260506215104 | 17 | 170 | 12.9 | 27.4 | 0.00 | 0.00 | 0.00 | 19 | 1012.2 |
| 20260506215004 | 17 | 168 | 14.5 | 27.4 | 0.00 | 0.00 | 0.00 | 21 | 1012.2 |
| 20260506214904 | 17 | 167 | 14.5 | 29.0 | 0.00 | 0.00 | 0.00 | 21 | 1012.2 |
| 20260506214804 | 17 | 167 | 14.5 | 29.0 | 0.00 | 0.00 | 0.00 | 21 | 1012.2 |
| 20260506214704 | 17 | 168 | 12.9 | 29.0 | 0.00 | 0.00 | 0.00 | 21 | 1012.1 |
| 20260506214604 | 17 | 169 | 12.9 | 29.0 | 0.00 | 0.00 | 0.00 | 21 | 1012.2 |
| 20260506214503 | 17 | 171 | 12.9 | 29.0 | 0.00 | 0.00 | 0.00 | 19 | 1012.1 |
| 20260506214404 | 17 | 174 | 12.9 | 29.0 | 0.00 | 0.00 | 0.00 | 20 | 1012.1 |
| 20260506214304 | 17 | 173 | 14.5 | 29.0 | 0.00 | 0.00 | 0.00 | 21 | 1012.1 |
| 20260506214204 | 17 | 171 | 14.5 | 29.0 | 0.00 | 0.00 | 0.00 | 22 | 1012.0 |
| 20260506214104 | 17 | 172 | 16.1 | 29.0 | 0.00 | 0.00 | 0.00 | 21 | 1012.0 |
| 20260506214004 | 17 | 172 | 16.1 | 29.0 | 0.00 | 0.00 | 0.00 | 23 | 1012.0 |
| 20260506213904 | 17 | 172 | 14.5 | 25.7 | 0.00 | 0.00 | 0.00 | 23 | 1012.0 |
| 20260506213804 | 17 | 173 | 14.5 | 25.7 | 0.00 | 0.00 | 0.00 | 22 | 1012.0 |
| 20260506213704 | 17 | 171 | 14.5 | 24.1 | 0.00 | 0.00 | 0.00 | 23 | 1012.1 |
| 20260506213604 | 17 | 171 | 14.5 | 24.1 | 0.00 | 0.00 | 0.00 | 23 | 1012.2 |
| 20260506213504 | 17 | 171 | 14.5 | 24.1 | 0.00 | 0.00 | 0.00 | 24 | 1012.2 |
| 20260506213404 | 17 | 168 | 14.5 | 24.1 | 0.00 | 0.00 | 0.00 | 24 | 1012.2 |
| 20260506213304 | 17 | 168 | 14.5 | 24.1 | 0.00 | 0.00 | 0.00 | 25 | 1012.2 |
| 20260506213204 | 17 | 170 | 14.5 | 24.1 | 0.00 | 0.00 | 0.00 | 25 | 1012.2 |
| 20260506213104 | 17 | 171 | 12.9 | 24.1 | 0.00 | 0.00 | 0.00 | 25 | 1012.3 |
| 20260506213004 | 17 | 172 | 11.3 | 24.1 | 0.00 | 0.00 | 0.00 | 25 | 1012.3 |
| 20260506212904 | 17 | 172 | 9.7 | 24.1 | 0.00 | 0.00 | 0.00 | 24 | 1012.3 |
| 20260506212804 | 17 | 171 | 9.7 | 24.1 | 0.00 | 0.00 | 0.00 | 25 | 1012.4 |
| 20260506212704 | 18 | 173 | 8.0 | 24.1 | 0.00 | 0.00 | 0.00 | 26 | 1012.2 |
| 20260506212604 | 18 | 172 | 6.4 | 22.5 | 0.00 | 0.00 | 0.00 | 26 | 1012.3 |
| 20260506212504 | 18 | 172 | 6.4 | 22.5 | 0.00 | 0.00 | 0.00 | 25 | 1012.2 |
| 20260506212404 | 18 | 174 | 4.8 | 20.9 | 0.00 | 0.00 | 0.00 | 24 | 1012.3 |
| 20260506212306 | 18 | 178 | 3.2 | 20.9 | 0.00 | 0.00 | 0.00 | 24 | 1012.3 |
| 20260506212225 | 18 | 181 | 1.6 | 20.9 | 0.00 | 0.00 | 0.00 | 24 | 1012.3 |
| 20260506212104 | 18 | 173 | 1.6 | 17.7 | 0.00 | 0.00 | 0.00 | 25 | 1012.3 |
| 20260506212025 | 18 | 174 | 1.6 | 17.7 | 0.00 | 0.00 | 0.00 | 25 | 1012.4 |
| 20260506211904 | 18 | 165 | 3.2 | 17.7 | 0.00 | 0.00 | 0.00 | 28 | 1012.4 |
| 20260506211804 | 18 | 157 | 3.2 | 25.7 | 0.00 | 0.00 | 0.00 | 26 | 1012.4 |
| 20260506211704 | 18 | 156 | 4.8 | 25.7 | 0.00 | 0.00 | 0.00 | 27 | 1012.4 |
| 20260506211625 | 18 | 155 | 4.8 | 25.7 | 0.00 | 0.00 | 0.00 | 27 | 1012.3 |
| 20260506211504 | 18 | 155 | 6.4 | 25.7 | 0.00 | 0.00 | 0.00 | 26 | 1012.4 |
| 20260506211404 | 18 | 156 | 8.0 | 25.7 | 0.00 | 0.00 | 0.00 | 26 | 1012.4 |
| 20260506211304 | 18 | 156 | 9.7 | 25.7 | 0.00 | 0.00 | 0.00 | 27 | 1012.3 |
| 20260506211204 | 18 | 157 | 9.7 | 25.7 | 0.00 | 0.00 | 0.00 | 26 | 1012.3 |
| 20260506211104 | 18 | 157 | 9.7 | 25.7 | 0.00 | 0.00 | 0.00 | 27 | 1012.3 |
| 20260506211025 | 18 | 157 | 9.7 | 25.7 | 0.00 | 0.00 | 0.00 | 27 | 1012.5 |
| 20260506210904 | 18 | 159 | 8.0 | 25.7 | 0.00 | 0.00 | 0.00 | 28 | 1012.5 |
| 20260506210825 | 18 | 160 | 6.4 | 22.5 | 0.00 | 0.00 | 0.00 | 27 | 1012.5 |
| 20260506210704 | 18 | 163 | 6.4 | 22.5 | 0.00 | 0.00 | 0.00 | 27 | 1012.5 |
| 20260506210604 | 18 | 164 | 4.8 | 22.5 | 0.00 | 0.00 | 0.00 | 27 | 1012.4 |
| 20260506210504 | 18 | 161 | 4.8 | 22.5 | 0.00 | 0.00 | 0.00 | 25 | 1012.4 |
| 20260506210404 | 18 | 159 | 4.8 | 24.1 | 0.00 | 0.00 | 0.00 | 25 | 1012.3 |
| 20260506210304 | 18 | 159 | 3.2 | 24.1 | 0.00 | 0.00 | 0.00 | 25 | 1012.3 |
| 20260506210204 | 18 | 157 | 3.2 | 24.1 | 0.00 | 0.00 | 0.00 | 25 | 1012.4 |
| 20260506210104 | 18 | 157 | 3.2 | 24.1 | 0.00 | 0.00 | 0.00 | 24 | 1012.4 |
| 20260506210004 | 18 | 158 | 3.2 | 24.1 | 0.00 | 0.00 | 0.00 | 23 | 1012.4 |
| 20260506205904 | 18 | 159 | 3.2 | 24.1 | 0.00 | 0.00 | 0.00 | 25 | 1012.4 |
| 20260506205804 | 18 | 156 | 3.2 | 24.1 | 0.00 | 0.00 | 0.00 | 26 | 1012.5 |
| 20260506205704 | 18 | 155 | 3.2 | 24.1 | 0.00 | 0.00 | 0.00 | 26 | 1012.5 |
| 20260506205604 | 18 | 153 | 3.2 | 24.1 | 0.00 | 0.00 | 0.00 | 26 | 1012.5 |
| 20260506205504 | 18 | 156 | 3.2 | 24.1 | 0.00 | 0.00 | 0.00 | 26 | 1012.6 |
| 20260506205404 | 18 | 160 | 1.6 | 14.5 | 0.00 | 0.00 | 0.00 | 24 | 1012.5 |
| 20260506205306 | 18 | 161 | 3.2 | 14.5 | 0.00 | 0.00 | 0.00 | 24 | 1012.6 |
| 20260506205204 | 18 | 161 | 3.2 | 14.5 | 0.00 | 0.00 | 0.00 | 24 | 1012.6 |
| 20260506205125 | 18 | 161 | 3.2 | 14.5 | 0.00 | 0.00 | 0.00 | 24 | 1012.6 |
| 20260506205004 | 18 | 166 | 3.2 | 14.5 | 0.00 | 0.00 | 0.00 | 25 | 1012.7 |
| 20260506204904 | 18 | 166 | 3.2 | 24.1 | 0.00 | 0.00 | 0.00 | 25 | 1012.7 |
| 20260506204804 | 18 | 165 | 3.2 | 24.1 | 0.00 | 0.00 | 0.00 | 26 | 1012.7 |
| 20260506204704 | 18 | 165 | 4.8 | 24.1 | 0.00 | 0.00 | 0.00 | 26 | 1012.6 |
| 20260506204604 | 18 | 165 | 4.8 | 24.1 | 0.00 | 0.00 | 0.00 | 27 | 1012.6 |
| 20260506204504 | 18 | 167 | 6.4 | 24.1 | 0.00 | 0.00 | 0.00 | 28 | 1012.6 |
| 20260506204404 | 18 | 168 | 8.0 | 24.1 | 0.00 | 0.00 | 0.00 | 27 | 1012.7 |
| 20260506204304 | 18 | 168 | 9.7 | 24.1 | 0.00 | 0.00 | 0.00 | 26 | 1012.6 |
| 20260506204204 | 18 | 168 | 9.7 | 24.1 | 0.00 | 0.00 | 0.00 | 26 | 1012.5 |
| 20260506204104 | 18 | 167 | 11.3 | 24.1 | 0.00 | 0.00 | 0.00 | 27 | 1012.5 |
| 20260506204004 | 18 | 165 | 11.3 | 24.1 | 0.00 | 0.00 | 0.00 | 27 | 1012.5 |
| 20260506203904 | 18 | 164 | 11.3 | 27.4 | 0.00 | 0.00 | 0.00 | 27 | 1012.6 |
| 20260506203804 | 19 | 163 | 12.9 | 27.4 | 0.00 | 0.00 | 0.00 | 27 | 1012.5 |
| 20260506203725 | 19 | 163 | 12.9 | 27.4 | 0.00 | 0.00 | 0.00 | 27 | 1012.5 |
| 20260506203604 | 19 | 163 | 12.9 | 27.4 | 0.00 | 0.00 | 0.00 | 28 | 1012.5 |
| 20260506203504 | 19 | 163 | 11.3 | 27.4 | 0.00 | 0.00 | 0.00 | 28 | 1012.5 |
| 20260506203404 | 19 | 161 | 11.3 | 27.4 | 0.00 | 0.00 | 0.00 | 27 | 1012.5 |
| 20260506203304 | 19 | 159 | 9.7 | 27.4 | 0.00 | 0.00 | 0.00 | 25 | 1012.5 |
| 20260506203204 | 20 | 160 | 9.7 | 27.4 | 0.00 | 0.00 | 0.00 | 25 | 1012.5 |
| 20260506203104 | 20 | 159 | 9.7 | 27.4 | 0.00 | 0.00 | 0.00 | 23 | 1012.5 |
| 20260506203004 | 20 | 159 | 11.3 | 27.4 | 0.00 | 0.00 | 0.00 | 23 | 1012.4 |
| 20260506202904 | 20 | 159 | 11.3 | 24.1 | 0.00 | 0.00 | 0.00 | 23 | 1012.4 |
| 20260506202804 | 20 | 160 | 12.9 | 24.1 | 0.00 | 0.00 | 0.00 | 22 | 1012.4 |
| 20260506202704 | 20 | 162 | 12.9 | 24.1 | 0.00 | 0.00 | 0.00 | 23 | 1012.4 |
| 20260506202604 | 20 | 161 | 11.3 | 24.1 | 0.00 | 0.00 | 0.00 | 23 | 1012.4 |
| 20260506202504 | 20 | 160 | 12.9 | 24.1 | 0.00 | 0.00 | 0.00 | 21 | 1012.3 |
| 20260506202404 | 20 | 162 | 12.9 | 24.1 | 0.00 | 0.00 | 0.00 | 22 | 1012.4 |
| 20260506202306 | 20 | 162 | 12.9 | 24.1 | 0.00 | 0.00 | 0.00 | 23 | 1012.4 |
| 20260506202204 | 20 | 161 | 12.9 | 24.1 | 0.00 | 0.00 | 0.00 | 21 | 1012.4 |
| 20260506202104 | 20 | 162 | 12.9 | 22.5 | 0.00 | 0.00 | 0.00 | 22 | 1012.3 |
| 20260506202025 | 20 | 163 | 14.5 | 22.5 | 0.00 | 0.00 | 0.00 | 22 | 1012.3 |
| 20260506201904 | 20 | 165 | 12.9 | 25.7 | 0.00 | 0.00 | 0.00 | 23 | 1012.3 |
| 20260506201804 | 20 | 166 | 12.9 | 25.7 | 0.00 | 0.00 | 0.00 | 23 | 1012.3 |
| 20260506201704 | 20 | 165 | 11.3 | 25.7 | 0.00 | 0.00 | 0.00 | 21 | 1012.2 |
| 20260506201604 | 20 | 165 | 11.3 | 25.7 | 0.00 | 0.00 | 0.00 | 22 | 1012.2 |
| 20260506201503 | 20 | 167 | 9.7 | 25.7 | 0.00 | 0.00 | 0.00 | 21 | 1012.2 |
| 20260506201404 | 20 | 165 | 9.7 | 25.7 | 0.00 | 0.00 | 0.00 | 22 | 1012.1 |
| 20260506201304 | 20 | 168 | 9.7 | 25.7 | 0.00 | 0.00 | 0.00 | 22 | 1012.1 |
| 20260506201225 | 20 | 169 | 8.0 | 25.7 | 0.00 | 0.00 | 0.00 | 22 | 1012.2 |
| 20260506201125 | 20 | 167 | 8.0 | 25.7 | 0.00 | 0.00 | 0.00 | 22 | 1012.1 |
| 20260506201006 | 20 | 164 | 8.0 | 24.1 | 0.00 | 0.00 | 0.00 | 20 | 1012.2 |
| 20260506200905 | 20 | 164 | 8.0 | 22.5 | 0.00 | 0.00 | 0.00 | 19 | 1012.2 |
| 20260506200804 | 20 | 163 | 9.7 | 24.1 | 0.00 | 0.00 | 0.00 | 20 | 1012.2 |
| 20260506200704 | 20 | 164 | 9.7 | 27.4 | 0.00 | 0.00 | 0.00 | 20 | 1012.2 |
| 20260506200604 | 20 | 165 | 11.3 | 27.4 | 0.00 | 0.00 | 0.00 | 17 | 1012.2 |
| 20260506200504 | 20 | 165 | 11.3 | 27.4 | 0.00 | 0.00 | 0.00 | 17 | 1012.1 |
| 20260506200404 | 20 | 166 | 9.7 | 27.4 | 0.00 | 0.00 | 0.00 | 17 | 1012.1 |
| 20260506200304 | 20 | 163 | 9.7 | 27.4 | 0.00 | 0.00 | 0.00 | 17 | 1012.1 |
| 20260506200204 | 20 | 164 | 9.7 | 27.4 | 0.00 | 0.00 | 0.00 | 19 | 1012.1 |
| 20260506200104 | 20 | 166 | 8.0 | 27.4 | 0.00 | 0.00 | 0.00 | 20 | 1012.0 |
| 20260506200004 | 20 | 167 | 6.4 | 27.4 | 0.00 | 0.00 | 0.00 | 22 | 1012.0 |
| 20260506195904 | 20 | 166 | 4.8 | 27.4 | 0.00 | 0.00 | 0.00 | 22 | 1012.0 |
| 20260506195804 | 20 | 169 | 3.2 | 27.4 | 0.00 | 0.00 | 0.00 | 23 | 1012.0 |
| 20260506195704 | 20 | 170 | 3.2 | 24.1 | 0.00 | 0.00 | 0.00 | 23 | 1012.0 |
| 20260506195604 | 20 | 167 | 1.6 | 24.1 | 0.00 | 0.00 | 0.00 | 23 | 1012.0 |
| 20260506195504 | 20 | 168 | 1.6 | 24.1 | 0.00 | 0.00 | 0.00 | 23 | 1012.0 |
| 20260506195404 | 20 | 175 | 3.2 | 24.1 | 0.00 | 0.00 | 0.00 | 24 | 1012.0 |
| 20260506195306 | 20 | 175 | 3.2 | 24.1 | 0.00 | 0.00 | 0.00 | 23 | 1012.0 |
| 20260506195204 | 20 | 172 | 4.8 | 25.7 | 0.00 | 0.00 | 0.00 | 24 | 1012.0 |
| 20260506195104 | 20 | 169 | 4.8 | 27.4 | 0.00 | 0.00 | 0.00 | 24 | 1012.0 |
| 20260506195003 | 21 | 168 | 4.8 | 27.4 | 0.00 | 0.00 | 0.00 | 24 | 1012.0 |
| 20260506194904 | 21 | 170 | 4.8 | 27.4 | 0.00 | 0.00 | 0.00 | 24 | 1012.0 |
| 20260506194804 | 21 | 169 | 6.4 | 27.4 | 0.00 | 0.00 | 0.00 | 24 | 1012.1 |
| 20260506194704 | 21 | 172 | 6.4 | 27.4 | 0.00 | 0.00 | 0.00 | 25 | 1012.0 |
| 20260506194604 | 21 | 176 | 8.0 | 27.4 | 0.00 | 0.00 | 0.00 | 25 | 1012.0 |
| 20260506194504 | 21 | 175 | 8.0 | 29.0 | 0.00 | 0.00 | 0.00 | 25 | 1012.0 |
| 20260506194404 | 21 | 173 | 8.0 | 29.0 | 0.00 | 0.00 | 0.00 | 26 | 1011.9 |
| 20260506194325 | 21 | 175 | 9.7 | 29.0 | 0.00 | 0.00 | 0.00 | 26 | 1012.0 |
| 20260506194204 | 21 | 177 | 8.0 | 29.0 | 0.00 | 0.00 | 0.00 | 28 | 1011.9 |
| 20260506194104 | 21 | 177 | 9.7 | 29.0 | 0.00 | 0.00 | 0.00 | 28 | 1011.9 |
| 20260506194025 | 21 | 176 | 9.7 | 29.0 | 0.00 | 0.00 | 0.00 | 28 | 1012.0 |
| 20260506193904 | 21 | 174 | 11.3 | 29.0 | 0.00 | 0.00 | 0.00 | 28 | 1012.0 |
| 20260506193825 | 21 | 175 | 11.3 | 29.0 | 0.00 | 0.00 | 0.00 | 27 | 1011.9 |
| 20260506193725 | 21 | 175 | 11.3 | 29.0 | 0.00 | 0.00 | 0.00 | 28 | 1011.9 |
| 20260506193625 | 21 | 176 | 11.3 | 29.0 | 0.00 | 0.00 | 0.00 | 27 | 1011.9 |
| 20260506193504 | 21 | 175 | 11.3 | 25.7 | 0.00 | 0.00 | 0.00 | 26 | 1011.8 |
| 20260506193425 | 21 | 175 | 11.3 | 25.7 | 0.00 | 0.00 | 0.00 | 27 | 1011.8 |
| 20260506193304 | 21 | 172 | 11.3 | 25.7 | 0.00 | 0.00 | 0.00 | 26 | 1011.8 |
| 20260506193204 | 21 | 169 | 11.3 | 25.7 | 0.00 | 0.00 | 0.00 | 28 | 1011.9 |
| 20260506193104 | 21 | 169 | 12.9 | 25.7 | 0.00 | 0.00 | 0.00 | 28 | 1011.9 |
| 20260506193025 | 21 | 168 | 12.9 | 25.7 | 0.00 | 0.00 | 0.00 | 27 | 1011.9 |
| 20260506192904 | 21 | 167 | 14.5 | 25.7 | 0.00 | 0.00 | 0.00 | 27 | 1011.8 |
| 20260506192825 | 22 | 166 | 14.5 | 25.7 | 0.00 | 0.00 | 0.00 | 27 | 1011.8 |
| 20260506192704 | 21 | 164 | 12.9 | 25.7 | 0.00 | 0.00 | 0.00 | 27 | 1011.9 |
| 20260506192604 | 21 | 162 | 12.9 | 25.7 | 0.00 | 0.00 | 0.00 | 26 | 1011.9 |
| 20260506192504 | 21 | 160 | 12.9 | 25.7 | 0.00 | 0.00 | 0.00 | 28 | 1011.9 |
| 20260506192404 | 21 | 158 | 11.3 | 25.7 | 0.00 | 0.00 | 0.00 | 28 | 1011.9 |
| 20260506192305 | 21 | 158 | 9.7 | 25.7 | 0.00 | 0.00 | 0.00 | 27 | 1011.9 |
| 20260506192204 | 22 | 159 | 9.7 | 25.7 | 0.00 | 0.00 | 0.00 | 28 | 1011.9 |
| 20260506192125 | 22 | 158 | 6.4 | 25.7 | 0.00 | 0.00 | 0.00 | 29 | 1011.9 |
| 20260506192004 | 22 | 159 | 6.4 | 25.7 | 0.00 | 0.00 | 0.00 | 29 | 1011.9 |
| 20260506191925 | 22 | 161 | 4.8 | 24.1 | 0.00 | 0.00 | 0.00 | 28 | 1011.8 |
| 20260506191804 | 22 | 159 | 3.2 | 22.5 | 0.00 | 0.00 | 0.00 | 26 | 1011.9 |
| 20260506191725 | 22 | 159 | 4.8 | 17.7 | 0.00 | 0.00 | 0.00 | 26 | 1011.9 |
| 20260506191604 | 22 | 158 | 4.8 | 17.7 | 0.00 | 0.00 | 0.00 | 27 | 1011.9 |
| 20260506191504 | 22 | 159 | 3.2 | 17.7 | 0.00 | 0.00 | 0.00 | 27 | 1012.0 |
| 20260506191404 | 22 | 164 | 3.2 | 17.7 | 0.00 | 0.00 | 0.00 | 27 | 1012.1 |
| 20260506191304 | 22 | 163 | 3.2 | 17.7 | 0.00 | 0.00 | 0.00 | 26 | 1012.1 |
| 20260506191204 | 22 | 161 | 3.2 | 17.7 | 0.00 | 0.00 | 0.00 | 27 | 1012.1 |
| 20260506191104 | 22 | 161 | 3.2 | 17.7 | 0.00 | 0.00 | 0.00 | 28 | 1012.1 |
| 20260506191025 | 22 | 161 | 1.6 | 17.7 | 0.00 | 0.00 | 0.00 | 27 | 1012.1 |
| 20260506190925 | 22 | 161 | 1.6 | 17.7 | 0.00 | 0.00 | 0.00 | 28 | 1012.1 |
| 20260506190804 | 23 | 157 | 1.6 | 16.1 | 0.00 | 0.00 | 0.00 | 28 | 1012.0 |
| 20260506190704 | 23 | 155 | 1.6 | 16.1 | 0.00 | 0.00 | 0.00 | 27 | 1012.0 |
| 20260506190604 | 23 | 158 | 1.6 | 12.9 | 0.00 | 0.00 | 0.00 | 25 | 1012.0 |
| 20260506190525 | 23 | 158 | 1.6 | 12.9 | 0.00 | 0.00 | 0.00 | 25 | 1012.0 |
| 20260506190404 | 23 | 158 | 1.6 | 12.9 | 0.00 | 0.00 | 0.00 | 25 | 1011.9 |
| 20260506190304 | 23 | 158 | 0.0 | 12.9 | 0.00 | 0.00 | 0.00 | 24 | 1011.9 |
| 20260506190225 | 23 | 166 | 0.0 | 11.3 | 0.00 | 0.00 | 0.00 | 24 | 1011.9 |
| 20260506190104 | 23 | 163 | 0.0 | 11.3 | 0.00 | 0.00 | 0.00 | 23 | 1011.9 |
| 20260506190004 | 23 | 164 | 1.6 | 11.3 | 0.00 | 0.00 | 0.00 | 24 | 1011.9 |
| 20260506185904 | 23 | 167 | 1.6 | 11.3 | 0.00 | 0.00 | 0.00 | 24 | 1011.9 |
| 20260506185804 | 23 | 171 | 1.6 | 11.3 | 0.00 | 0.00 | 0.00 | 24 | 1011.9 |
| 20260506185704 | 23 | 171 | 1.6 | 11.3 | 0.00 | 0.00 | 0.00 | 23 | 1011.9 |
| 20260506185604 | 23 | 173 | 0.0 | 8.0 | 0.00 | 0.00 | 0.00 | 25 | 1011.9 |
| 20260506185504 | 23 | 174 | 0.0 | 8.0 | 0.00 | 0.00 | 0.00 | 22 | 1011.9 |
| 20260506185403 | 23 | 176 | 0.0 | 8.0 | 0.00 | 0.00 | 0.00 | 23 | 1011.9 |
| 20260506185306 | 23 | 175 | 0.0 | 8.0 | 0.00 | 0.00 | 0.00 | 24 | 1011.9 |
| 20260506185204 | 23 | 175 | 0.0 | 8.0 | 0.00 | 0.00 | 0.00 | 23 | 1011.8 |
| 20260506185104 | 23 | 181 | 0.0 | 6.4 | 0.00 | 0.00 | 0.00 | 24 | 1011.8 |
| 20260506185003 | 23 | 179 | 0.0 | 6.4 | 0.00 | 0.00 | 0.00 | 25 | 1011.8 |
| 20260506184904 | 23 | 179 | 0.0 | 6.4 | 0.00 | 0.00 | 0.00 | 25 | 1011.7 |
| 20260506184804 | 23 | 173 | 0.0 | 6.4 | 0.00 | 0.00 | 0.00 | 24 | 1011.7 |
| 20260506184704 | 23 | 180 | 0.0 | 6.4 | 0.00 | 0.00 | 0.00 | 22 | 1011.7 |
| 20260506184625 | 23 | 177 | 0.0 | 4.8 | 0.00 | 0.00 | 0.00 | 21 | 1011.7 |
| 20260506184504 | 23 | 177 | 0.0 | 4.8 | 0.00 | 0.00 | 0.00 | 21 | 1011.6 |
| 20260506184404 | 23 | 177 | 0.0 | 4.8 | 0.00 | 0.00 | 0.00 | 20 | 1011.7 |
| 20260506184304 | 23 | 172 | 0.0 | 4.8 | 0.00 | 0.00 | 0.00 | 20 | 1011.7 |
| 20260506184204 | 23 | 164 | 0.0 | 9.7 | 0.00 | 0.00 | 0.00 | 18 | 1011.7 |
| 20260506184103 | 23 | 164 | 0.0 | 9.7 | 0.00 | 0.00 | 0.00 | 19 | 1011.7 |
| 20260506184004 | 23 | 164 | 0.0 | 9.7 | 0.00 | 0.00 | 0.00 | 18 | 1011.7 |
| 20260506183925 | 23 | 164 | 0.0 | 9.7 | 0.00 | 0.00 | 0.00 | 17 | 1011.7 |
| 20260506183804 | 23 | 160 | 0.0 | 9.7 | 0.00 | 0.00 | 0.00 | 18 | 1011.7 |
| 20260506183704 | 23 | 155 | 0.0 | 9.7 | 0.00 | 0.00 | 0.00 | 16 | 1011.7 |
| 20260506183604 | 22 | 154 | 0.0 | 9.7 | 0.00 | 0.00 | 0.00 | 16 | 1011.7 |
| 20260506183504 | 22 | 154 | 0.0 | 9.7 | 0.00 | 0.00 | 0.00 | 15 | 1011.7 |
| 20260506183404 | 22 | 154 | 0.0 | 9.7 | 0.00 | 0.00 | 0.00 | 17 | 1011.7 |
| 20260506183304 | 22 | 155 | 0.0 | 9.7 | 0.00 | 0.00 | 0.00 | 16 | 1011.8 |
| 20260506183204 | 22 | 143 | 0.0 | 1.6 | 0.00 | 0.00 | 0.00 | 12 | 1011.8 |
| 20260506183104 | 22 | 143 | 0.0 | 1.6 | 0.00 | 0.00 | 0.00 | 13 | 1011.9 |
| 20260506183004 | 22 | 143 | 0.0 | 1.6 | 0.00 | 0.00 | 0.00 | 9 | 1011.8 |
| 20260506182925 | 22 | 143 | 0.0 | 1.6 | 0.00 | 0.00 | 0.00 | 12 | 1011.8 |
| 20260506182804 | 22 | 143 | 0.0 | 1.6 | 0.00 | 0.00 | 0.00 | 15 | 1011.9 |
| 20260506182704 | 22 | 143 | 0.0 | 1.6 | 0.00 | 0.00 | 0.00 | 15 | 1011.9 |
| 20260506182604 | 22 | 143 | 0.0 | 1.6 | 0.00 | 0.00 | 0.00 | 12 | 1011.9 |
| 20260506182504 | 22 | 143 | 0.0 | 1.6 | 0.00 | 0.00 | 0.00 | 13 | 1011.9 |
| 20260506182404 | 22 | 145 | 0.0 | 1.6 | 0.00 | 0.00 | 0.00 | 13 | 1011.8 |
| 20260506182306 | 22 | 145 | 0.0 | 1.6 | 0.00 | 0.00 | 0.00 | 14 | 1011.8 |
| 20260506182204 | 22 | 146 | 0.0 | 1.6 | 0.00 | 0.00 | 0.00 | 14 | 1011.9 |
| 20260506182104 | 22 | 146 | 0.0 | 1.6 | 0.00 | 0.00 | 0.00 | 12 | 1011.9 |
| 20260506182004 | 22 | 169 | 0.0 | 1.6 | 0.00 | 0.00 | 0.00 | 15 | 1011.8 |
| 20260506181904 | 22 | 169 | 0.0 | 1.6 | 0.00 | 0.00 | 0.00 | 14 | 1011.8 |
| 20260506181804 | 22 | 169 | 0.0 | 1.6 | 0.00 | 0.00 | 0.00 | 12 | 1011.8 |
| 20260506181704 | 22 | 169 | 0.0 | 1.6 | 0.00 | 0.00 | 0.00 | 15 | 1011.8 |
| 20260506181604 | 21 | 169 | 0.0 | 1.6 | 0.00 | 0.00 | 0.00 | 14 | 1011.8 |
| 20260506181525 | 21 | 169 | 0.0 | 1.6 | 0.00 | 0.00 | 0.00 | 15 | 1011.8 |
| 20260506181404 | 21 | 198 | 0.0 | 4.8 | 0.00 | 0.00 | 0.00 | 16 | 1011.8 |
| 20260506181304 | 21 | 198 | 0.0 | 4.8 | 0.00 | 0.00 | 0.00 | 16 | 1011.7 |
| 20260506181204 | 21 | 198 | 0.0 | 4.8 | 0.00 | 0.00 | 0.00 | 16 | 1011.7 |
| 20260506181104 | 21 | 198 | 0.0 | 4.8 | 0.00 | 0.00 | 0.00 | 18 | 1011.7 |
| 20260506181004 | 22 | 203 | 0.0 | 4.8 | 0.00 | 0.00 | 0.00 | 16 | 1011.7 |
| 20260506180925 | 22 | 203 | 0.0 | 4.8 | 0.00 | 0.00 | 0.00 | 12 | 1011.7 |
| 20260506180804 | 21 | 203 | 0.0 | 4.8 | 0.00 | 0.00 | 0.00 | 13 | 1011.7 |
| 20260506180704 | 21 | 203 | 0.0 | 4.8 | 0.00 | 0.00 | 0.00 | 13 | 1011.6 |
| 20260506180604 | 21 | 220 | 0.0 | 12.9 | 0.00 | 0.00 | 0.00 | 12 | 1011.6 |
| 20260506180504 | 21 | 222 | 1.6 | 12.9 | 0.00 | 0.00 | 0.00 | 9 | 1011.6 |
| 20260506180404 | 21 | 215 | 3.2 | 12.9 | 0.00 | 0.00 | 0.00 | 9 | 1011.6 |
| 20260506180304 | 21 | 211 | 3.2 | 14.5 | 0.00 | 0.00 | 0.00 | 7 | 1011.6 |
| 20260506180204 | 21 | 207 | 3.2 | 14.5 | 0.00 | 0.00 | 0.00 | 11 | 1011.6 |
| 20260506180104 | 21 | 209 | 4.8 | 14.5 | 0.00 | 0.00 | 0.00 | 13 | 1011.6 |
| 20260506180005 | 21 | 206 | 4.8 | 14.5 | 0.00 | 0.00 | 0.00 | 12 | 1011.7 |
| 20260506175904 | 21 | 206 | 6.4 | 14.5 | 0.00 | 0.00 | 0.00 | 11 | 1011.6 |
| 20260506175804 | 21 | 208 | 6.4 | 14.5 | 0.00 | 0.00 | 0.00 | 8 | 1011.6 |
| 20260506175725 | 21 | 209 | 6.4 | 14.5 | 0.00 | 0.00 | 0.00 | 12 | 1011.5 |
| 20260506175625 | 21 | 209 | 6.4 | 14.5 | 0.00 | 0.00 | 0.00 | 12 | 1011.5 |
| 20260506175504 | 21 | 210 | 6.4 | 14.5 | 0.00 | 0.00 | 0.00 | 11 | 1011.5 |
| 20260506175425 | 21 | 214 | 6.4 | 14.5 | 0.00 | 0.00 | 0.00 | 11 | 1011.5 |
| 20260506175306 | 21 | 218 | 6.4 | 12.9 | 0.00 | 0.00 | 0.00 | 10 | 1011.4 |
| 20260506175204 | 21 | 220 | 4.8 | 12.9 | 0.00 | 0.00 | 0.00 | 11 | 1011.5 |
| 20260506175104 | 21 | 220 | 4.8 | 12.9 | 0.00 | 0.00 | 0.00 | 6 | 1011.4 |
| 20260506175024 | 21 | 217 | 4.8 | 17.7 | 0.00 | 0.00 | 0.00 | 6 | 1011.5 |
| 20260506174904 | 21 | 219 | 4.8 | 17.7 | 0.00 | 0.00 | 0.00 | 7 | 1011.4 |
| 20260506174804 | 21 | 218 | 3.2 | 17.7 | 0.00 | 0.00 | 0.00 | 7 | 1011.5 |
| 20260506174704 | 21 | 217 | 3.2 | 17.7 | 0.00 | 0.00 | 0.00 | 7 | 1011.6 |
| 20260506174625 | 21 | 220 | 3.2 | 17.7 | 0.00 | 0.00 | 0.00 | 7 | 1011.6 |
| 20260506174525 | 21 | 217 | 1.6 | 17.7 | 0.00 | 0.00 | 0.00 | 6 | 1011.6 |
| 20260506174404 | 21 | 190 | 1.6 | 17.7 | 0.00 | 0.00 | 0.00 | 5 | 1011.6 |
| 20260506174304 | 20 | 188 | 1.6 | 17.7 | 0.00 | 0.00 | 0.00 | 7 | 1011.6 |
| 20260506174204 | 20 | 188 | 1.6 | 17.7 | 0.00 | 0.00 | 0.00 | 3 | 1011.6 |
| 20260506174104 | 20 | 186 | 0.0 | 17.7 | 0.00 | 0.00 | 0.00 | 5 | 1011.6 |
| 20260506174004 | 20 | 194 | 0.0 | 3.2 | 0.00 | 0.00 | 0.00 | 4 | 1011.6 |
| 20260506173904 | 20 | 189 | 0.0 | 3.2 | 0.00 | 0.00 | 0.00 | 1 | 1011.6 |
| 20260506173804 | 20 | 178 | 0.0 | 1.6 | 0.00 | 0.00 | 0.00 | 1 | 1011.7 |
| 20260506173704 | 20 | 204 | 0.0 | 3.2 | 0.00 | 0.00 | 0.00 | 1 | 1011.7 |
| 20260506173604 | 20 | 206 | 0.0 | 3.2 | 0.00 | 0.00 | 0.00 | 1 | 1011.8 |
| 20260506173525 | 20 | 207 | 0.0 | 3.2 | 0.00 | 0.00 | 0.00 | 1 | 1011.7 |
| 20260506173404 | 20 | 207 | 0.0 | 3.2 | 0.00 | 0.00 | 0.00 | 1 | 1011.7 |
| 20260506173304 | 20 | 205 | 0.0 | 3.2 | 0.00 | 0.00 | 0.00 | 1 | 1011.7 |
| 20260506173204 | 20 | 212 | 0.0 | 17.7 | 0.00 | 0.00 | 0.00 | 1 | 1011.7 |
| 20260506173104 | 20 | 175 | 1.6 | 17.7 | 0.00 | 0.00 | 0.00 | 1 | 1011.7 |
| 20260506173004 | 20 | 167 | 1.6 | 17.7 | 0.00 | 0.00 | 0.00 | 1 | 1011.7 |
| 20260506172904 | 20 | 169 | 1.6 | 17.7 | 0.00 | 0.00 | 0.00 | 1 | 1011.8 |
| 20260506172803 | 20 | 169 | 1.6 | 17.7 | 0.00 | 0.00 | 0.00 | 1 | 1011.8 |
| 20260506172704 | 20 | 167 | 1.6 | 17.7 | 0.00 | 0.00 | 0.00 | 1 | 1011.8 |
| 20260506172604 | 20 | 171 | 3.2 | 17.7 | 0.00 | 0.00 | 0.00 | 1 | 1011.8 |
| 20260506172504 | 20 | 186 | 3.2 | 17.7 | 0.00 | 0.00 | 0.00 | 1 | 1011.8 |
| 20260506172425 | 20 | 191 | 4.8 | 17.7 | 0.00 | 0.00 | 0.00 | 1 | 1011.9 |
| 20260506172306 | 20 | 199 | 6.4 | 17.7 | 0.00 | 0.00 | 0.00 | 1 | 1011.8 |
| 20260506172204 | 20 | 202 | 6.4 | 17.7 | 0.00 | 0.00 | 0.00 | 1 | 1011.8 |
| 20260506172104 | 20 | 208 | 6.4 | 17.7 | 0.00 | 0.00 | 0.00 | 1 | 1011.8 |
| 20260506172004 | 20 | 215 | 4.8 | 17.7 | 0.00 | 0.00 | 0.00 | 1 | 1011.7 |
| 20260506171904 | 19 | 215 | 6.4 | 17.7 | 0.00 | 0.00 | 0.00 | 1 | 1011.8 |
| 20260506171804 | 19 | 209 | 8.0 | 17.7 | 0.00 | 0.00 | 0.00 | 1 | 1011.8 |
| 20260506171725 | 19 | 206 | 8.0 | 17.7 | 0.00 | 0.00 | 0.00 | 1 | 1011.8 |
| 20260506171604 | 19 | 209 | 9.7 | 17.7 | 0.00 | 0.00 | 0.00 | 1 | 1011.9 |
| 20260506171504 | 19 | 214 | 9.7 | 17.7 | 0.00 | 0.00 | 0.00 | 1 | 1011.9 |
| 20260506171404 | 18 | 218 | 8.0 | 17.7 | 0.00 | 0.00 | 0.00 | 1 | 1011.9 |
| 20260506171325 | 18 | 219 | 8.0 | 17.7 | 0.00 | 0.00 | 0.00 | 1 | 1011.8 |
| 20260506171204 | 18 | 219 | 8.0 | 20.9 | 0.00 | 0.00 | 0.00 | 1 | 1011.8 |
| 20260506171104 | 18 | 217 | 9.7 | 20.9 | 0.00 | 0.00 | 0.00 | 1 | 1011.7 |
| 20260506171004 | 18 | 220 | 9.7 | 20.9 | 0.00 | 0.00 | 0.00 | 1 | 1011.8 |
| 20260506170904 | 18 | 223 | 9.7 | 20.9 | 0.00 | 0.00 | 0.00 | 1 | 1011.8 |
| 20260506170803 | 18 | 226 | 9.7 | 20.9 | 0.00 | 0.00 | 0.00 | 1 | 1011.8 |
| 20260506170704 | 18 | 224 | 9.7 | 20.9 | 0.00 | 0.00 | 0.00 | 1 | 1011.8 |
| 20260506170625 | 18 | 221 | 11.3 | 20.9 | 0.00 | 0.00 | 0.00 | 1 | 1011.9 |
| 20260506170525 | 18 | 215 | 11.3 | 20.9 | 0.00 | 0.00 | 0.00 | 1 | 1011.9 |
| 20260506170425 | 18 | 205 | 11.3 | 20.9 | 0.00 | 0.00 | 0.00 | 1 | 1011.9 |
| 20260506170303 | 18 | 200 | 11.3 | 20.9 | 0.00 | 0.00 | 0.00 | 1 | 1011.9 |
| 20260506170204 | 18 | 199 | 11.3 | 24.1 | 0.00 | 0.00 | 0.00 | 1 | 1012.0 |
| 20260506170104 | 18 | 197 | 11.3 | 24.1 | 0.00 | 0.00 | 0.00 | 1 | 1012.1 |
| 20260506170004 | 18 | 195 | 12.9 | 24.1 | 0.00 | 0.00 | 0.00 | 1 | 1012.2 |
| 20260506165904 | 18 | 195 | 12.9 | 24.1 | 0.00 | 0.00 | 0.00 | 1 | 1012.3 |
| 20260506165804 | 18 | 196 | 12.9 | 24.1 | 0.00 | 0.00 | 0.00 | 1 | 1012.3 |
| 20260506165704 | 18 | 199 | 12.9 | 24.1 | 0.00 | 0.00 | 0.00 | 1 | 1012.2 |
| 20260506165604 | 18 | 202 | 12.9 | 24.1 | 0.00 | 0.00 | 0.00 | 1 | 1012.2 |
| 20260506165504 | 18 | 203 | 11.3 | 24.1 | 0.00 | 0.00 | 0.00 | 1 | 1012.2 |
| 20260506165404 | 18 | 205 | 11.3 | 24.1 | 0.00 | 0.00 | 0.00 | 1 | 1012.2 |
| 20260506165305 | 18 | 209 | 11.3 | 24.1 | 0.00 | 0.00 | 0.00 | 1 | 1012.2 |
| 20260506165204 | 18 | 210 | 11.3 | 22.5 | 0.00 | 0.00 | 0.00 | 1 | 1012.2 |
| 20260506165125 | 18 | 210 | 11.3 | 22.5 | 0.00 | 0.00 | 0.00 | 1 | 1012.4 |
| 20260506165003 | 18 | 211 | 9.7 | 20.9 | 0.00 | 0.00 | 0.00 | 1 | 1012.5 |
| 20260506164903 | 17 | 209 | 9.7 | 20.9 | 0.00 | 0.00 | 0.00 | 1 | 1012.5 |
| 20260506164825 | 17 | 211 | 9.7 | 20.9 | 0.00 | 0.00 | 0.00 | 1 | 1012.5 |
| 20260506164704 | 17 | 212 | 9.7 | 20.9 | 0.00 | 0.00 | 0.00 | 1 | 1012.5 |
| 20260506164625 | 17 | 212 | 8.0 | 20.9 | 0.00 | 0.00 | 0.00 | 1 | 1012.5 |
| 20260506164504 | 17 | 214 | 8.0 | 20.9 | 0.00 | 0.00 | 0.00 | 1 | 1012.5 |
| 20260506164404 | 17 | 216 | 6.4 | 20.9 | 0.00 | 0.00 | 0.00 | 1 | 1012.5 |
| 20260506164304 | 17 | 211 | 6.4 | 20.9 | 0.00 | 0.00 | 0.00 | 1 | 1012.5 |
| 20260506164204 | 17 | 208 | 8.0 | 20.9 | 0.00 | 0.00 | 0.00 | 1 | 1012.6 |
| 20260506164104 | 17 | 207 | 8.0 | 20.9 | 0.00 | 0.00 | 0.00 | 1 | 1012.7 |
| 20260506164004 | 17 | 202 | 8.0 | 20.9 | 0.00 | 0.00 | 0.00 | 1 | 1012.8 |
| 20260506163903 | 17 | 199 | 8.0 | 20.9 | 0.00 | 0.00 | 0.00 | 1 | 1012.8 |
| 20260506163804 | 17 | 192 | 6.4 | 20.9 | 0.00 | 0.00 | 0.00 | 1 | 1013.0 |
| 20260506163703 | 17 | 185 | 8.0 | 19.3 | 0.00 | 0.00 | 0.00 | 1 | 1013.0 |
| 20260506163604 | 17 | 183 | 8.0 | 19.3 | 0.00 | 0.00 | 0.00 | 1 | 1013.0 |
| 20260506163504 | 17 | 184 | 9.7 | 19.3 | 0.00 | 0.00 | 0.00 | 1 | 1013.0 |
| 20260506163404 | 16 | 187 | 9.7 | 22.5 | 0.00 | 0.00 | 0.00 | 1 | 1013.1 |
| 20260506163304 | 16 | 187 | 11.3 | 22.5 | 0.00 | 0.00 | 0.00 | 1 | 1013.1 |
| 20260506163204 | 16 | 187 | 9.7 | 22.5 | 0.00 | 0.00 | 0.00 | 1 | 1013.1 |
| 20260506163104 | 16 | 187 | 9.7 | 22.5 | 0.00 | 0.00 | 0.00 | 1 | 1013.1 |
| 20260506163004 | 16 | 185 | 9.7 | 22.5 | 0.00 | 0.00 | 0.00 | 1 | 1013.1 |
| 20260506162904 | 16 | 186 | 11.3 | 22.5 | 0.00 | 0.00 | 0.00 | 1 | 1013.2 |
| 20260506162804 | 16 | 187 | 11.3 | 22.5 | 0.00 | 0.00 | 0.00 | 1 | 1013.2 |
| 20260506162703 | 16 | 185 | 11.3 | 22.5 | 0.00 | 0.00 | 0.00 | 1 | 1013.2 |
| 20260506162604 | 16 | 187 | 11.3 | 30.6 | 0.00 | 0.00 | 0.00 | 1 | 1013.2 |
| 20260506162504 | 17 | 186 | 11.3 | 30.6 | 0.00 | 0.00 | 0.00 | 1 | 1013.3 |
| 20260506162425 | 17 | 186 | 12.9 | 30.6 | 0.00 | 0.00 | 0.00 | 1 | 1013.2 |
| 20260506162306 | 17 | 184 | 12.9 | 30.6 | 0.00 | 0.00 | 0.00 | 1 | 1013.2 |
| 20260506162225 | 17 | 184 | 12.9 | 30.6 | 0.00 | 0.00 | 0.00 | 1 | 1013.2 |
| 20260506162125 | 17 | 183 | 14.5 | 30.6 | 0.00 | 0.00 | 0.00 | 1 | 1013.1 |
| 20260506162025 | 17 | 181 | 14.5 | 30.6 | 0.00 | 0.00 | 0.00 | 1 | 1013.2 |
| 20260506161904 | 17 | 182 | 16.1 | 30.6 | 0.00 | 0.00 | 0.00 | 1 | 1013.2 |
| 20260506161803 | 17 | 182 | 16.1 | 30.6 | 0.00 | 0.00 | 0.00 | 1 | 1013.4 |
| 20260506161704 | 17 | 185 | 16.1 | 30.6 | 0.00 | 0.00 | 0.00 | 1 | 1013.6 |
| 20260506161603 | 17 | 187 | 16.1 | 35.4 | 0.00 | 0.00 | 0.00 | 1 | 1013.6 |
| 20260506161504 | 17 | 186 | 16.1 | 35.4 | 0.00 | 0.00 | 0.00 | 1 | 1013.7 |
| 20260506161404 | 17 | 183 | 17.7 | 35.4 | 0.00 | 0.00 | 0.00 | 1 | 1013.8 |
| 20260506161325 | 17 | 182 | 17.7 | 35.4 | 0.00 | 0.00 | 0.00 | 1 | 1013.8 |
| 20260506161204 | 17 | 180 | 16.1 | 35.4 | 0.00 | 0.00 | 0.00 | 1 | 1013.8 |
| 20260506161104 | 17 | 180 | 16.1 | 35.4 | 0.00 | 0.00 | 0.00 | 1 | 1013.8 |
| 20260506161025 | 17 | 180 | 17.7 | 35.4 | 0.00 | 0.00 | 0.00 | 1 | 1013.6 |
| 20260506160903 | 17 | 177 | 17.7 | 35.4 | 0.00 | 0.00 | 0.00 | 1 | 1013.6 |
| 20260506160825 | 17 | 176 | 17.7 | 35.4 | 0.00 | 0.00 | 0.00 | 1 | 1013.5 |
| 20260506160704 | 17 | 173 | 17.7 | 35.4 | 0.00 | 0.00 | 0.00 | 1 | 1013.5 |
| 20260506160604 | 17 | 169 | 16.1 | 32.2 | 0.00 | 0.00 | 0.00 | 1 | 1013.5 |
| 20260506160504 | 17 | 169 | 16.1 | 32.2 | 0.00 | 0.00 | 0.00 | 1 | 1013.5 |
| 20260506160404 | 17 | 170 | 16.1 | 32.2 | 0.00 | 0.00 | 0.00 | 1 | 1013.4 |
| 20260506160304 | 17 | 172 | 16.1 | 38.6 | 0.00 | 0.00 | 0.00 | 1 | 1013.4 |
| 20260506160225 | 17 | 172 | 17.7 | 38.6 | 0.00 | 0.00 | 0.00 | 1 | 1013.4 |
| 20260506160104 | 17 | 171 | 17.7 | 38.6 | 0.00 | 0.00 | 0.00 | 1 | 1013.3 |
| 20260506160004 | 17 | 172 | 16.1 | 38.6 | 0.00 | 0.00 | 0.00 | 1 | 1013.5 |
| 20260506155903 | 18 | 174 | 16.1 | 38.6 | 0.00 | 0.00 | 0.00 | 1 | 1013.5 |
| 20260506155804 | 18 | 174 | 16.1 | 38.6 | 0.00 | 0.00 | 0.00 | 1 | 1013.6 |
| 20260506155703 | 18 | 175 | 16.1 | 38.6 | 0.00 | 0.00 | 0.00 | 1 | 1013.5 |
| 20260506155604 | 18 | 175 | 16.1 | 38.6 | 0.00 | 0.00 | 0.00 | 1 | 1013.6 |
| 20260506155504 | 18 | 174 | 16.1 | 38.6 | 0.00 | 0.00 | 0.00 | 1 | 1013.5 |
| 20260506155425 | 18 | 175 | 16.1 | 38.6 | 0.00 | 0.00 | 0.00 | 1 | 1013.5 |
| 20260506155306 | 18 | 172 | 14.5 | 35.4 | 0.00 | 0.00 | 0.00 | 1 | 1013.4 |
| 20260506155203 | 18 | 173 | 16.1 | 35.4 | 0.00 | 0.00 | 0.00 | 1 | 1013.3 |
| 20260506155104 | 18 | 174 | 16.1 | 35.4 | 0.00 | 0.00 | 0.00 | 1 | 1013.2 |
| 20260506155025 | 18 | 173 | 16.1 | 35.4 | 0.00 | 0.00 | 0.00 | 1 | 1013.1 |
| 20260506154904 | 18 | 172 | 17.7 | 37.0 | 0.00 | 0.00 | 0.00 | 1 | 1013.1 |
| 20260506154804 | 18 | 171 | 17.7 | 37.0 | 0.00 | 0.00 | 0.00 | 1 | 1013.1 |
| 20260506154704 | 18 | 172 | 19.3 | 37.0 | 0.00 | 0.00 | 0.00 | 1 | 1013.0 |
| 20260506154604 | 18 | 171 | 19.3 | 37.0 | 0.00 | 0.00 | 0.00 | 1 | 1013.0 |
| 20260506154504 | 18 | 172 | 19.3 | 37.0 | 0.00 | 0.00 | 0.00 | 1 | 1013.1 |
| 20260506154404 | 18 | 171 | 19.3 | 37.0 | 0.00 | 0.00 | 0.00 | 1 | 1013.1 |
| 20260506154304 | 18 | 171 | 20.9 | 37.0 | 0.00 | 0.00 | 0.00 | 1 | 1013.0 |
| 20260506154203 | 18 | 172 | 19.3 | 37.0 | 0.00 | 0.00 | 0.00 | 1 | 1013.0 |
| 20260506154104 | 18 | 171 | 19.3 | 37.0 | 0.00 | 0.00 | 0.00 | 1 | 1013.1 |
| 20260506154004 | 18 | 171 | 17.7 | 37.0 | 0.00 | 0.00 | 0.00 | 1 | 1013.1 |
| 20260506153904 | 19 | 172 | 17.7 | 35.4 | 0.00 | 0.00 | 0.00 | 1 | 1013.1 |
| 20260506153804 | 19 | 172 | 16.1 | 33.8 | 0.00 | 0.00 | 0.00 | 1 | 1013.1 |
| 20260506153704 | 19 | 174 | 16.1 | 30.6 | 0.00 | 0.00 | 0.00 | 1 | 1013.0 |
| 20260506153604 | 19 | 177 | 14.5 | 30.6 | 0.00 | 0.00 | 0.00 | 1 | 1012.9 |
| 20260506153504 | 19 | 177 | 14.5 | 30.6 | 0.00 | 0.00 | 0.00 | 1 | 1012.8 |
| 20260506153404 | 19 | 180 | 14.5 | 30.6 | 0.00 | 0.00 | 0.00 | 1 | 1012.6 |
| 20260506153325 | 19 | 182 | 12.9 | 30.6 | 0.00 | 0.00 | 0.00 | 1 | 1012.6 |
| 20260506153204 | 20 | 180 | 12.9 | 25.7 | 0.00 | 0.00 | 0.00 | 1 | 1012.5 |
| 20260506153104 | 20 | 182 | 12.9 | 25.7 | 0.00 | 0.00 | 0.00 | 1 | 1012.5 |
| 20260506153004 | 20 | 184 | 14.5 | 25.7 | 0.00 | 0.00 | 0.00 | 1 | 1012.4 |
| 20260506152904 | 20 | 184 | 12.9 | 25.7 | 0.00 | 0.00 | 0.00 | 1 | 1012.4 |
| 20260506152804 | 20 | 184 | 12.9 | 25.7 | 0.00 | 0.00 | 0.00 | 1 | 1012.3 |
| 20260506152704 | 20 | 182 | 12.9 | 30.6 | 0.00 | 0.00 | 0.00 | 1 | 1012.3 |
| 20260506152603 | 20 | 182 | 12.9 | 30.6 | 0.00 | 0.00 | 0.00 | 1 | 1012.3 |
| 20260506152503 | 20 | 181 | 12.9 | 30.6 | 0.00 | 0.00 | 0.00 | 1 | 1012.2 |
| 20260506152404 | 20 | 179 | 14.5 | 30.6 | 0.00 | 0.00 | 0.00 | 1 | 1012.2 |
| 20260506152325 | 20 | 178 | 14.5 | 30.6 | 0.00 | 0.00 | 0.00 | 1 | 1012.1 |
| 20260506152203 | 20 | 179 | 14.5 | 30.6 | 0.00 | 0.00 | 0.00 | 1 | 1012.1 |
| 20260506152103 | 21 | 178 | 14.5 | 30.6 | 0.00 | 0.00 | 0.00 | 1 | 1012.0 |
| 20260506152003 | 21 | 176 | 14.5 | 30.6 | 0.00 | 0.00 | 0.00 | 1 | 1012.1 |
| 20260506151925 | 21 | 176 | 12.9 | 30.6 | 0.00 | 0.00 | 0.00 | 1 | 1012.0 |
| 20260506151803 | 21 | 175 | 11.3 | 30.6 | 0.00 | 0.00 | 0.00 | 1 | 1012.0 |
| 20260506151703 | 21 | 174 | 11.3 | 29.0 | 0.00 | 0.00 | 0.00 | 1 | 1012.0 |
| 20260506151604 | 22 | 170 | 9.7 | 22.5 | 0.00 | 0.00 | 0.00 | 3 | 1012.0 |
| 20260506151503 | 22 | 168 | 8.0 | 22.5 | 0.00 | 0.00 | 0.00 | 7 | 1011.9 |
| 20260506151404 | 23 | 165 | 6.4 | 22.5 | 0.00 | 0.00 | 0.00 | 11 | 1011.9 |
| 20260506151304 | 23 | 164 | 4.8 | 22.5 | 0.00 | 0.00 | 0.00 | 1 | 1011.9 |
| 20260506151204 | 24 | 159 | 4.8 | 22.5 | 0.00 | 0.00 | 0.00 | 1 | 1011.9 |
| 20260506151104 | 25 | 149 | 3.2 | 20.9 | 0.00 | 0.00 | 0.00 | 1 | 1011.8 |
| 20260506151003 | 26 | 116 | 1.6 | 9.7 | 0.00 | 0.00 | 0.00 | 1 | 1011.7 |
| 20260506150904 | 26 | 115 | 1.6 | 9.7 | 0.00 | 0.00 | 0.00 | 1 | 1011.6 |
| 20260506150825 | 26 | 108 | 1.6 | 8.0 | 0.00 | 0.00 | 0.00 | 1 | 1011.4 |
| 20260506150704 | 26 | 105 | 1.6 | 6.4 | 0.00 | 0.00 | 0.00 | 1 | 1011.3 |
| 20260506150604 | 26 | 104 | 1.6 | 6.4 | 0.00 | 0.00 | 0.00 | 1 | 1011.3 |
| 20260506150504 | 26 | 101 | 0.0 | 4.8 | 0.00 | 0.00 | 0.00 | 1 | 1011.3 |
| 20260506150404 | 26 | 101 | 0.0 | 4.8 | 0.00 | 0.00 | 0.00 | 1 | 1011.3 |
| 20260506150305 | 26 | 101 | 0.0 | 4.8 | 0.00 | 0.00 | 0.00 | 1 | 1011.3 |
| 20260506150204 | 26 | 100 | 0.0 | 4.8 | 0.00 | 0.00 | 0.00 | 1 | 1011.2 |
| 20260506150104 | 26 | 100 | 0.0 | 4.8 | 0.00 | 0.00 | 0.00 | 1 | 1011.1 |
| 20260506150004 | 26 | 98 | 0.0 | 1.6 | 0.00 | 0.00 | 0.00 | 1 | 1011.1 |
| 20260506145904 | 26 | 0 | 0.0 | 0.0 | 0.00 | 0.00 | 0.00 | 1 | 1011.0 |
| 20260506145804 | 26 | 0 | 0.0 | 0.0 | 0.00 | 0.00 | 0.00 | 1 | 1011.1 |
| 20260506145704 | 26 | 295 | 0.0 | 3.2 | 0.00 | 0.00 | 0.00 | 1 | 1011.0 |
| 20260506145604 | 26 | 292 | 0.0 | 9.7 | 0.00 | 0.00 | 0.00 | 1 | 1011.0 |
| 20260506145504 | 26 | 286 | 1.6 | 9.7 | 0.00 | 0.00 | 0.00 | 1 | 1011.0 |
| 20260506145404 | 26 | 286 | 1.6 | 9.7 | 0.00 | 0.00 | 0.00 | 1 | 1011.0 |
| 20260506145305 | 26 | 286 | 1.6 | 9.7 | 0.00 | 0.00 | 0.00 | 1 | 1010.9 |
| 20260506145204 | 26 | 286 | 1.6 | 9.7 | 0.00 | 0.00 | 0.00 | 1 | 1010.9 |
| 20260506145104 | 26 | 286 | 1.6 | 9.7 | 0.00 | 0.00 | 0.00 | 1 | 1010.7 |
| 20260506145003 | 26 | 286 | 1.6 | 9.7 | 0.00 | 0.00 | 0.00 | 1 | 1010.8 |
| 20260506144904 | 26 | 286 | 1.6 | 9.7 | 0.00 | 0.00 | 0.00 | 1 | 1010.7 |
| 20260506144825 | 26 | 286 | 1.6 | 9.7 | 0.00 | 0.00 | 0.00 | 1 | 1010.7 |
| 20260506144725 | 26 | 286 | 1.6 | 9.7 | 0.00 | 0.00 | 0.00 | 1 | 1010.8 |
| 20260506144604 | 26 | 277 | 1.6 | 8.0 | 0.00 | 0.00 | 0.00 | 1 | 1010.8 |
| 20260506144504 | 26 | 271 | 1.6 | 6.4 | 0.00 | 0.00 | 0.00 | 1 | 1010.7 |
| 20260506144404 | 26 | 269 | 1.6 | 6.4 | 0.00 | 0.00 | 0.00 | 1 | 1010.7 |
| 20260506144325 | 26 | 269 | 1.6 | 6.4 | 0.00 | 0.00 | 0.00 | 1 | 1010.6 |
| 20260506144224 | 26 | 268 | 1.6 | 6.4 | 0.00 | 0.00 | 0.00 | 1 | 1010.6 |
| 20260506144104 | 26 | 267 | 1.6 | 6.4 | 0.00 | 0.00 | 0.00 | 1 | 1010.6 |
| 20260506144004 | 26 | 267 | 3.2 | 6.4 | 0.00 | 0.00 | 0.00 | 1 | 1010.6 |
| 20260506143925 | 26 | 266 | 3.2 | 8.0 | 0.00 | 0.00 | 0.00 | 1 | 1010.6 |
| 20260506143804 | 26 | 265 | 3.2 | 9.7 | 0.00 | 0.00 | 0.00 | 1 | 1010.5 |
| 20260506143704 | 26 | 264 | 4.8 | 11.3 | 0.00 | 0.00 | 0.00 | 1 | 1010.5 |
| 20260506143603 | 26 | 264 | 4.8 | 11.3 | 0.00 | 0.00 | 0.00 | 1 | 1010.5 |
| 20260506143504 | 26 | 263 | 4.8 | 11.3 | 0.00 | 0.00 | 0.00 | 1 | 1010.4 |
| 20260506143404 | 26 | 263 | 4.8 | 11.3 | 0.00 | 0.00 | 0.00 | 1 | 1010.4 |
| 20260506143304 | 26 | 261 | 4.8 | 11.3 | 0.00 | 0.00 | 0.00 | 1 | 1010.4 |
| 20260506143204 | 26 | 260 | 4.8 | 11.3 | 0.00 | 0.00 | 0.00 | 1 | 1010.4 |
| 20260506143104 | 26 | 259 | 4.8 | 11.3 | 0.00 | 0.00 | 0.00 | 1 | 1010.4 |
| 20260506143004 | 26 | 258 | 4.8 | 11.3 | 0.00 | 0.00 | 0.00 | 1 | 1010.4 |
| 20260506142903 | 26 | 257 | 4.8 | 11.3 | 0.00 | 0.00 | 0.00 | 1 | 1010.4 |
| 20260506142804 | 26 | 257 | 4.8 | 11.3 | 0.00 | 0.00 | 0.00 | 1 | 1010.4 |
| 20260506142704 | 26 | 257 | 4.8 | 9.7 | 0.00 | 0.00 | 0.00 | 1 | 1010.4 |
| 20260506142603 | 26 | 255 | 4.8 | 9.7 | 0.00 | 0.00 | 0.00 | 1 | 1010.3 |
| 20260506142524 | 26 | 251 | 4.8 | 9.7 | 0.00 | 0.00 | 0.00 | 1 | 1010.3 |
| 20260506142404 | 26 | 247 | 4.8 | 9.7 | 0.00 | 0.00 | 0.00 | 1 | 1010.2 |
| 20260506142325 | 25 | 238 | 4.8 | 9.7 | 0.00 | 0.00 | 0.00 | 1 | 1010.2 |
| 20260506142224 | 25 | 88 | 4.8 | 9.7 | 0.00 | 0.00 | 0.00 | 1 | 1010.1 |
| 20260506142104 | 25 | 72 | 4.8 | 9.7 | 0.00 | 0.00 | 0.00 | 1 | 1010.1 |
| 20260506142004 | 25 | 70 | 3.2 | 9.7 | 0.00 | 0.00 | 0.00 | 1 | 1010.1 |
| 20260506141903 | 25 | 71 | 3.2 | 9.7 | 0.00 | 0.00 | 0.00 | 1 | 1010.0 |
| 20260506141803 | 25 | 73 | 3.2 | 8.0 | 0.00 | 0.00 | 0.00 | 1 | 1010.0 |
| 20260506141704 | 25 | 74 | 3.2 | 8.0 | 0.00 | 0.00 | 0.00 | 1 | 1010.1 |
| 20260506141603 | 25 | 72 | 1.6 | 8.0 | 0.00 | 0.00 | 0.00 | 1 | 1010.1 |
| 20260506141504 | 25 | 68 | 1.6 | 8.0 | 0.00 | 0.00 | 0.00 | 1 | 1010.1 |
| 20260506141425 | 25 | 68 | 1.6 | 8.0 | 0.00 | 0.00 | 0.00 | 1 | 1010.1 |
| 20260506141303 | 25 | 62 | 0.0 | 6.4 | 0.00 | 0.00 | 0.00 | 1 | 1010.1 |
| 20260506141204 | 25 | 55 | 0.0 | 6.4 | 0.00 | 0.00 | 0.00 | 1 | 1010.1 |
| 20260506141104 | 25 | 0 | 0.0 | 0.0 | 0.00 | 0.00 | 0.00 | 1 | 1010.2 |
| 20260506141004 | 25 | 0 | 0.0 | 0.0 | 0.00 | 0.00 | 0.00 | 1 | 1010.3 |
| 20260506140904 | 25 | 0 | 0.0 | 0.0 | 0.00 | 0.00 | 0.00 | 1 | 1010.5 |
| 20260506140804 | 25 | 0 | 0.0 | 0.0 | 0.00 | 0.00 | 0.00 | 1 | 1010.5 |
| 20260506140725 | 25 | 0 | 0.0 | 0.0 | 0.00 | 0.00 | 0.00 | 1 | 1010.6 |
| 20260506140603 | 25 | 0 | 0.0 | 0.0 | 0.00 | 0.00 | 0.00 | 1 | 1010.7 |
| 20260506140524 | 25 | 0 | 0.0 | 0.0 | 0.00 | 0.00 | 0.00 | 1 | 1010.7 |
| 20260506140404 | 25 | 0 | 0.0 | 0.0 | 0.00 | 0.00 | 0.00 | 1 | 1010.6 |
| 20260506140304 | 25 | 0 | 0.0 | 0.0 | 0.00 | 0.00 | 0.00 | 1 | 1010.6 |
| 20260506140203 | 25 | 78 | 0.0 | 1.6 | 0.00 | 0.00 | 0.00 | 1 | 1010.7 |
| 20260506140104 | 25 | 77 | 0.0 | 1.6 | 0.00 | 0.00 | 0.00 | 1 | 1010.6 |
| 20260506140004 | 25 | 77 | 0.0 | 1.6 | 0.00 | 0.00 | 0.00 | 1 | 1010.6 |
| 20260506135904 | 25 | 77 | 0.0 | 1.6 | 0.00 | 0.00 | 0.00 | 1 | 1010.5 |
| 20260506135803 | 25 | 77 | 0.0 | 1.6 | 0.00 | 0.00 | 0.00 | 1 | 1010.4 |
| 20260506135724 | 25 | 77 | 0.0 | 1.6 | 0.00 | 0.00 | 0.00 | 1 | 1010.4 |
| 20260506135604 | 25 | 77 | 0.0 | 1.6 | 0.00 | 0.00 | 0.00 | 1 | 1010.3 |
| 20260506135504 | 25 | 77 | 0.0 | 1.6 | 0.00 | 0.00 | 0.00 | 1 | 1010.3 |
| 20260506135404 | 25 | 77 | 0.0 | 1.6 | 0.00 | 0.00 | 0.00 | 1 | 1010.2 |
| 20260506135306 | 25 | 77 | 0.0 | 1.6 | 0.00 | 0.00 | 0.00 | 1 | 1010.2 |
| 20260506135204 | 25 | 77 | 0.0 | 1.6 | 0.00 | 0.00 | 0.00 | 1 | 1010.2 |
| 20260506135104 | 25 | 77 | 0.0 | 1.6 | 0.00 | 0.00 | 0.00 | 1 | 1010.1 |
| 20260506135004 | 25 | 0 | 0.0 | 0.0 | 0.00 | 0.00 | 0.00 | 1 | 1010.1 |
| 20260506134904 | 25 | 0 | 0.0 | 0.0 | 0.00 | 0.00 | 0.00 | 1 | 1009.9 |
| 20260506134804 | 25 | 0 | 0.0 | 0.0 | 0.00 | 0.00 | 0.00 | 1 | 1009.9 |
| 20260506134704 | 25 | 0 | 0.0 | 0.0 | 0.00 | 0.00 | 0.00 | 1 | 1009.9 |
| 20260506134604 | 25 | 0 | 0.0 | 0.0 | 0.00 | 0.00 | 0.00 | 1 | 1009.9 |
| 20260506134525 | 25 | 0 | 0.0 | 0.0 | 0.00 | 0.00 | 0.00 | 1 | 1009.9 |
| 20260506134404 | 25 | 0 | 0.0 | 0.0 | 0.00 | 0.00 | 0.00 | 1 | 1009.9 |
| 20260506134304 | 25 | 0 | 0.0 | 0.0 | 0.00 | 0.00 | 0.00 | 1 | 1009.9 |
| 20260506134224 | 25 | 77 | 0.0 | 3.2 | 0.00 | 0.00 | 0.00 | 1 | 1009.9 |
| 20260506134103 | 25 | 77 | 0.0 | 4.8 | 0.00 | 0.00 | 0.00 | 1 | 1009.9 |
| 20260506134004 | 25 | 77 | 1.6 | 4.8 | 0.00 | 0.00 | 0.00 | 1 | 1009.9 |
| 20260506133904 | 25 | 77 | 1.6 | 4.8 | 0.00 | 0.00 | 0.00 | 1 | 1009.9 |
| 20260506133804 | 25 | 77 | 1.6 | 4.8 | 0.00 | 0.00 | 0.00 | 1 | 1009.9 |
| 20260506133704 | 25 | 77 | 1.6 | 4.8 | 0.00 | 0.00 | 0.00 | 1 | 1009.9 |
| 20260506133624 | 25 | 77 | 1.6 | 4.8 | 0.00 | 0.00 | 0.00 | 1 | 1009.9 |
| 20260506133504 | 25 | 77 | 1.6 | 8.0 | 0.00 | 0.00 | 0.00 | 1 | 1009.9 |
| 20260506133425 | 24 | 77 | 3.2 | 8.0 | 0.00 | 0.00 | 0.00 | 1 | 1009.9 |
| 20260506133304 | 24 | 78 | 3.2 | 8.0 | 0.00 | 0.00 | 0.00 | 1 | 1009.8 |
| 20260506133204 | 24 | 78 | 3.2 | 8.0 | 0.00 | 0.00 | 0.00 | 1 | 1009.8 |
| 20260506133104 | 24 | 78 | 3.2 | 8.0 | 0.00 | 0.00 | 0.00 | 1 | 1009.9 |
| 20260506133003 | 24 | 78 | 1.6 | 8.0 | 0.00 | 0.00 | 0.00 | 1 | 1009.9 |
| 20260506132924 | 24 | 78 | 1.6 | 8.0 | 0.00 | 0.00 | 0.00 | 1 | 1009.9 |
| 20260506132825 | 24 | 78 | 1.6 | 8.0 | 0.00 | 0.00 | 0.00 | 1 | 1009.8 |
| 20260506132704 | 24 | 78 | 1.6 | 8.0 | 0.00 | 0.00 | 0.00 | 1 | 1009.9 |
| 20260506132603 | 24 | 79 | 1.6 | 8.0 | 0.00 | 0.00 | 0.00 | 1 | 1009.8 |
| 20260506132504 | 24 | 80 | 1.6 | 4.8 | 0.00 | 0.00 | 0.00 | 1 | 1009.8 |
| 20260506132404 | 24 | 79 | 0.0 | 4.8 | 0.00 | 0.00 | 0.00 | 1 | 1009.9 |
| 20260506132307 | 24 | 78 | 0.0 | 3.2 | 0.00 | 0.00 | 0.00 | 1 | 1009.9 |
| 20260506132204 | 24 | 75 | 0.0 | 3.2 | 0.00 | 0.00 | 0.00 | 1 | 1009.9 |
| 20260506132104 | 24 | 0 | 0.0 | 0.0 | 0.00 | 0.00 | 0.00 | 1 | 1009.9 |
| 20260506132004 | 24 | 0 | 0.0 | 0.0 | 0.00 | 0.00 | 0.00 | 1 | 1009.9 |
| 20260506131904 | 24 | 0 | 0.0 | 0.0 | 0.00 | 0.00 | 0.00 | 1 | 1009.8 |
| 20260506131804 | 24 | 0 | 0.0 | 0.0 | 0.00 | 0.00 | 0.00 | 1 | 1009.8 |
| 20260506131703 | 24 | 0 | 0.0 | 0.0 | 0.00 | 0.00 | 0.00 | 1 | 1009.8 |
| 20260506131604 | 24 | 0 | 0.0 | 0.0 | 0.00 | 0.00 | 0.00 | 1 | 1009.8 |
| 20260506131504 | 24 | 0 | 0.0 | 0.0 | 0.00 | 0.00 | 0.00 | 1 | 1009.8 |
| 20260506131404 | 24 | 0 | 0.0 | 0.0 | 0.00 | 0.00 | 0.00 | 1 | 1009.9 |
| 20260506131304 | 24 | 0 | 0.0 | 0.0 | 0.00 | 0.00 | 0.00 | 1 | 1009.8 |
| 20260506131204 | 24 | 0 | 0.0 | 0.0 | 0.00 | 0.00 | 0.00 | 1 | 1009.9 |
| 20260506131104 | 24 | 0 | 0.0 | 0.0 | 0.00 | 0.00 | 0.00 | 1 | 1009.9 |
| 20260506131004 | 24 | 62 | 0.0 | 1.6 | 0.00 | 0.00 | 0.00 | 1 | 1009.9 |
| 20260506130904 | 24 | 63 | 0.0 | 4.8 | 0.00 | 0.00 | 0.00 | 1 | 1009.8 |
| 20260506130803 | 24 | 62 | 1.6 | 6.4 | 0.00 | 0.00 | 0.00 | 1 | 1009.8 |
| 20260506130703 | 24 | 63 | 1.6 | 6.4 | 0.00 | 0.00 | 0.00 | 1 | 1009.7 |
| 20260506130604 | 24 | 63 | 1.6 | 6.4 | 0.00 | 0.00 | 0.00 | 1 | 1009.7 |
| 20260506130504 | 24 | 63 | 1.6 | 6.4 | 0.00 | 0.00 | 0.00 | 1 | 1009.7 |
| 20260506130404 | 24 | 63 | 1.6 | 6.4 | 0.00 | 0.00 | 0.00 | 1 | 1009.7 |
| 20260506130303 | 24 | 63 | 1.6 | 6.4 | 0.00 | 0.00 | 0.00 | 1 | 1009.7 |
| 20260506130203 | 24 | 63 | 1.6 | 6.4 | 0.00 | 0.00 | 0.00 | 1 | 1009.6 |
| 20260506130104 | 24 | 63 | 1.6 | 6.4 | 0.00 | 0.00 | 0.00 | 1 | 1009.6 |
| 20260506130004 | 24 | 64 | 3.2 | 6.4 | 0.00 | 0.00 | 0.00 | 1 | 1009.5 |
| 20260506125903 | 24 | 64 | 3.2 | 6.4 | 0.00 | 0.00 | 0.00 | 1 | 1009.5 |
| 20260506125804 | 24 | 64 | 1.6 | 6.4 | 0.00 | 0.00 | 0.00 | 1 | 1009.5 |
| 20260506125704 | 24 | 64 | 1.6 | 6.4 | 0.00 | 0.00 | 0.00 | 1 | 1009.5 |
| 20260506125603 | 24 | 64 | 1.6 | 6.4 | 0.00 | 0.00 | 0.00 | 1 | 1009.5 |
| 20260506125504 | 24 | 64 | 1.6 | 6.4 | 0.00 | 0.00 | 0.00 | 1 | 1009.5 |
| 20260506125425 | 24 | 64 | 1.6 | 6.4 | 0.00 | 0.00 | 0.00 | 1 | 1009.5 |
| 20260506125305 | 24 | 65 | 1.6 | 6.4 | 0.00 | 0.00 | 0.00 | 1 | 1009.5 |
| 20260506125204 | 24 | 65 | 1.6 | 6.4 | 0.00 | 0.00 | 0.00 | 1 | 1009.5 |
| 20260506125104 | 24 | 65 | 1.6 | 6.4 | 0.00 | 0.00 | 0.00 | 1 | 1009.5 |
| 20260506125003 | 24 | 65 | 1.6 | 6.4 | 0.00 | 0.00 | 0.00 | 1 | 1009.5 |
| 20260506124904 | 24 | 65 | 1.6 | 3.2 | 0.00 | 0.00 | 0.00 | 1 | 1009.6 |
| 20260506124825 | 24 | 65 | 1.6 | 3.2 | 0.00 | 0.00 | 0.00 | 1 | 1009.5 |
| 20260506124704 | 24 | 65 | 1.6 | 3.2 | 0.00 | 0.00 | 0.00 | 1 | 1009.5 |
| 20260506124625 | 24 | 65 | 1.6 | 6.4 | 0.00 | 0.00 | 0.00 | 1 | 1009.5 |
| 20260506124504 | 24 | 65 | 1.6 | 6.4 | 0.00 | 0.00 | 0.00 | 1 | 1009.5 |
| 20260506124404 | 24 | 65 | 1.6 | 6.4 | 0.00 | 0.00 | 0.00 | 1 | 1009.5 |
| 20260506124303 | 23 | 66 | 1.6 | 6.4 | 0.00 | 0.00 | 0.00 | 1 | 1009.5 |
| 20260506124203 | 23 | 66 | 1.6 | 6.4 | 0.00 | 0.00 | 0.00 | 1 | 1009.5 |
| 20260506124125 | 23 | 66 | 1.6 | 6.4 | 0.00 | 0.00 | 0.00 | 1 | 1009.5 |
| 20260506124004 | 23 | 66 | 1.6 | 6.4 | 0.00 | 0.00 | 0.00 | 1 | 1009.5 |
| 20260506123904 | 23 | 66 | 1.6 | 6.4 | 0.00 | 0.00 | 0.00 | 1 | 1009.5 |
| 20260506123824 | 23 | 66 | 1.6 | 6.4 | 0.00 | 0.00 | 0.00 | 1 | 1009.5 |
| 20260506123704 | 23 | 66 | 0.0 | 6.4 | 0.00 | 0.00 | 0.00 | 1 | 1009.5 |
| 20260506123604 | 23 | 68 | 0.0 | 4.8 | 0.00 | 0.00 | 0.00 | 1 | 1009.5 |
| 20260506123525 | 23 | 68 | 0.0 | 1.6 | 0.00 | 0.00 | 0.00 | 1 | 1009.5 |
| 20260506123424 | 23 | 0 | 0.0 | 0.0 | 0.00 | 0.00 | 0.00 | 1 | 1009.5 |
| 20260506123304 | 23 | 0 | 0.0 | 0.0 | 0.00 | 0.00 | 0.00 | 1 | 1009.5 |
| 20260506123203 | 23 | 0 | 0.0 | 0.0 | 0.00 | 0.00 | 0.00 | 1 | 1009.5 |
| 20260506123103 | 23 | 0 | 0.0 | 0.0 | 0.00 | 0.00 | 0.00 | 1 | 1009.5 |
| 20260506123004 | 23 | 0 | 0.0 | 0.0 | 0.00 | 0.00 | 0.00 | 1 | 1009.5 |
| 20260506122904 | 23 | 0 | 0.0 | 0.0 | 0.00 | 0.00 | 0.00 | 1 | 1009.6 |
| 20260506122803 | 23 | 0 | 0.0 | 0.0 | 0.00 | 0.00 | 0.00 | 1 | 1009.6 |
| 20260506122725 | 23 | 0 | 0.0 | 0.0 | 0.00 | 0.00 | 0.00 | 1 | 1009.5 |
| 20260506122625 | 23 | 0 | 0.0 | 0.0 | 0.00 | 0.00 | 0.00 | 1 | 1009.6 |
| 20260506122504 | 23 | 68 | 0.0 | 4.8 | 0.00 | 0.00 | 0.00 | 1 | 1009.5 |
| 20260506122403 | 23 | 68 | 0.0 | 4.8 | 0.00 | 0.00 | 0.00 | 1 | 1009.5 |
| 20260506122306 | 23 | 68 | 0.0 | 4.8 | 0.00 | 0.00 | 0.00 | 1 | 1009.5 |
| 20260506122203 | 23 | 68 | 0.0 | 4.8 | 0.00 | 0.00 | 0.00 | 1 | 1009.5 |
| 20260506122104 | 23 | 68 | 0.0 | 4.8 | 0.00 | 0.00 | 0.00 | 1 | 1009.5 |
| 20260506122003 | 23 | 68 | 0.0 | 4.8 | 0.00 | 0.00 | 0.00 | 1 | 1009.5 |
| 20260506121924 | 23 | 68 | 0.0 | 4.8 | 0.00 | 0.00 | 0.00 | 1 | 1009.5 |
| 20260506121803 | 23 | 68 | 0.0 | 4.8 | 0.00 | 0.00 | 0.00 | 1 | 1009.5 |
| 20260506121703 | 23 | 68 | 0.0 | 4.8 | 0.00 | 0.00 | 0.00 | 1 | 1009.5 |
| 20260506121603 | 23 | 68 | 0.0 | 4.8 | 0.00 | 0.00 | 0.00 | 1 | 1009.5 |
| 20260506121525 | 23 | 68 | 0.0 | 1.6 | 0.00 | 0.00 | 0.00 | 1 | 1009.5 |
| 20260506121403 | 23 | 0 | 0.0 | 0.0 | 0.00 | 0.00 | 0.00 | 1 | 1009.4 |
| 20260506121303 | 23 | 0 | 0.0 | 0.0 | 0.00 | 0.00 | 0.00 | 1 | 1009.4 |
| 20260506121204 | 23 | 0 | 0.0 | 0.0 | 0.00 | 0.00 | 0.00 | 1 | 1009.5 |
| 20260506121125 | 23 | 0 | 0.0 | 0.0 | 0.00 | 0.00 | 0.00 | 1 | 1009.5 |
| 20260506121004 | 23 | 0 | 0.0 | 0.0 | 0.00 | 0.00 | 0.00 | 1 | 1009.4 |
| 20260506120903 | 23 | 0 | 0.0 | 0.0 | 0.00 | 0.00 | 0.00 | 1 | 1009.4 |
| 20260506120804 | 23 | 0 | 0.0 | 0.0 | 0.00 | 0.00 | 0.00 | 1 | 1009.4 |
| 20260506120704 | 23 | 0 | 0.0 | 0.0 | 0.00 | 0.00 | 0.00 | 1 | 1009.4 |
| 20260506120603 | 23 | 0 | 0.0 | 0.0 | 0.00 | 0.00 | 0.00 | 1 | 1009.4 |
| 20260506120504 | 23 | 0 | 0.0 | 0.0 | 0.00 | 0.00 | 0.00 | 1 | 1009.4 |
| 20260506120424 | 23 | 0 | 0.0 | 0.0 | 0.00 | 0.00 | 0.00 | 1 | 1009.4 |
| 20260506120303 | 23 | 0 | 0.0 | 0.0 | 0.00 | 0.00 | 0.00 | 1 | 1009.3 |
| 20260506120204 | 23 | 0 | 0.0 | 0.0 | 0.00 | 0.00 | 0.00 | 1 | 1009.3 |
| 20260506120103 | 23 | 0 | 0.0 | 0.0 | 0.00 | 0.00 | 0.00 | 1 | 1009.3 |
| 20260506120004 | 23 | 0 | 0.0 | 0.0 | 0.00 | 0.00 | 0.00 | 1 | 1009.3 |
| 20260506115925 | 23 | 0 | 0.0 | 0.0 | 0.00 | 0.00 | 0.00 | 1 | 1009.3 |
| 20260506115803 | 23 | 0 | 0.0 | 0.0 | 0.00 | 0.00 | 0.00 | 1 | 1009.3 |
| 20260506115725 | 23 | 0 | 0.0 | 0.0 | 0.00 | 0.00 | 0.00 | 1 | 1009.3 |
| 20260506115603 | 23 | 0 | 0.0 | 0.0 | 0.00 | 0.00 | 0.00 | 1 | 1009.2 |
| 20260506115504 | 23 | 0 | 0.0 | 0.0 | 0.00 | 0.00 | 0.00 | 1 | 1009.3 |
| 20260506115404 | 23 | 0 | 0.0 | 0.0 | 0.00 | 0.00 | 0.00 | 1 | 1009.3 |
| 20260506115306 | 23 | 0 | 0.0 | 0.0 | 0.00 | 0.00 | 0.00 | 1 | 1009.3 |
| 20260506115204 | 23 | 0 | 0.0 | 0.0 | 0.00 | 0.00 | 0.00 | 1 | 1009.3 |
| 20260506115103 | 23 | 0 | 0.0 | 0.0 | 0.00 | 0.00 | 0.00 | 1 | 1009.3 |
| 20260506115025 | 23 | 0 | 0.0 | 0.0 | 0.00 | 0.00 | 0.00 | 1 | 1009.3 |
| 20260506114904 | 24 | 0 | 0.0 | 0.0 | 0.00 | 0.00 | 0.00 | 1 | 1009.3 |
| 20260506114803 | 24 | 0 | 0.0 | 0.0 | 0.00 | 0.00 | 0.00 | 1 | 1009.2 |
| 20260506114704 | 24 | 0 | 0.0 | 0.0 | 0.00 | 0.00 | 0.00 | 1 | 1009.3 |
| 20260506114603 | 24 | 0 | 0.0 | 0.0 | 0.00 | 0.00 | 0.00 | 1 | 1009.3 |
| 20260506114503 | 24 | 0 | 0.0 | 0.0 | 0.00 | 0.00 | 0.00 | 1 | 1009.3 |
| 20260506114403 | 24 | 0 | 0.0 | 0.0 | 0.00 | 0.00 | 0.00 | 1 | 1009.3 |
| 20260506114303 | 24 | 0 | 0.0 | 0.0 | 0.00 | 0.00 | 0.00 | 1 | 1009.3 |
| 20260506114225 | 24 | 0 | 0.0 | 0.0 | 0.00 | 0.00 | 0.00 | 1 | 1009.4 |
| 20260506114103 | 24 | 0 | 0.0 | 0.0 | 0.00 | 0.00 | 0.00 | 1 | 1009.4 |
| 20260506114003 | 24 | 0 | 0.0 | 0.0 | 0.00 | 0.00 | 0.00 | 1 | 1009.4 |
| 20260506113904 | 24 | 0 | 0.0 | 0.0 | 0.00 | 0.00 | 0.00 | 1 | 1009.4 |
| 20260506113804 | 24 | 0 | 0.0 | 0.0 | 0.00 | 0.00 | 0.00 | 1 | 1009.5 |
| 20260506113703 | 24 | 0 | 0.0 | 0.0 | 0.00 | 0.00 | 0.00 | 1 | 1009.4 |
| 20260506113604 | 24 | 0 | 0.0 | 0.0 | 0.00 | 0.00 | 0.00 | 1 | 1009.4 |
| 20260506113503 | 24 | 68 | 0.0 | 3.2 | 0.00 | 0.00 | 0.00 | 1 | 1009.4 |
| 20260506113403 | 24 | 68 | 0.0 | 6.4 | 0.00 | 0.00 | 0.00 | 1 | 1009.4 |
| 20260506113304 | 24 | 68 | 0.0 | 6.4 | 0.00 | 0.00 | 0.00 | 1 | 1009.4 |
| 20260506113204 | 24 | 68 | 0.0 | 6.4 | 0.00 | 0.00 | 0.00 | 1 | 1009.4 |
| 20260506113103 | 24 | 68 | 1.6 | 6.4 | 0.00 | 0.00 | 0.00 | 1 | 1009.4 |
| 20260506113003 | 24 | 68 | 1.6 | 6.4 | 0.00 | 0.00 | 0.00 | 1 | 1009.4 |
| 20260506112903 | 24 | 68 | 1.6 | 6.4 | 0.00 | 0.00 | 0.00 | 1 | 1009.3 |
| 20260506112804 | 24 | 68 | 1.6 | 6.4 | 0.00 | 0.00 | 0.00 | 1 | 1009.3 |
| 20260506112703 | 24 | 68 | 1.6 | 6.4 | 0.00 | 0.00 | 0.00 | 1 | 1009.2 |
| 20260506112603 | 24 | 68 | 1.6 | 6.4 | 0.00 | 0.00 | 0.00 | 1 | 1009.3 |
| 20260506112503 | 24 | 68 | 1.6 | 6.4 | 0.00 | 0.00 | 0.00 | 1 | 1009.3 |
| 20260506112404 | 24 | 68 | 1.6 | 6.4 | 0.00 | 0.00 | 0.00 | 1 | 1009.3 |
| 20260506112324 | 24 | 69 | 1.6 | 6.4 | 0.00 | 0.00 | 0.00 | 1 | 1009.4 |
| 20260506112204 | 24 | 69 | 1.6 | 6.4 | 0.00 | 0.00 | 0.00 | 1 | 1009.3 |